.

MPMG - Transparência

Contracheque - Remuneração de todos os servidores ativos - Pós Resolução CNMP 200/2019

Período: 2023 - Julho

Ordem Matrícula Nome Cargo Efetivo Lotação Rendimentos Descontos Rendimento Líquido Total *14 Data de Referência
Remuneração básica Remuneração eventual ou Temporária Outras Remunerações Temporárias *7 Verbas Indenizatórias *8 Total de Rendimentos Brutos *9 Obrigatórios Legais Outros Descontos Eventuais Total de descontos *13
Remuneração do Cargo Efetivo *1 Outras Verbas Remuneratórias *2 Função de Confiança ou Cargo em Comissão *3 Gratificação Natalina *4 Férias 1/3 Constitucional *5 Abono de Permanência *6 Contribuição Previdenciária *10 Imposto de Renda *11 Retenção por Teto Constitucional *12
1 498900 ABDON MARCIO BARBOSA DA SILVA OFICIAL DO MP ABRE CAMPO - COMARCA; ABRE CAMPO-PJ-01PJ 7.506,70 1.501,34 0,00 0,00 0,00 0,00 0,00 2.545,91 11.553,95 1.222,23 1.151,86 0,00 0,00 2.374,09 9.179,86 31/07/2023
2 177800 ADALBERTO MENEZES FARIA SAMORA OFICIAL DO MP BELO HORIZONTE - COMARCA; DIRET DE PLANOS PROJETOS E PROGRAMAS INST 21.346,53 8.538,61 0,00 0,00 0,00 0,00 0,00 2.105,00 31.990,14 4.562,57 5.974,47 0,00 0,00 10.537,04 21.453,10 31/07/2023
3 306400 ADALBERTO MOREIRA GONCALVES ANALISTA DO MP BELO HORIZONTE - COMARCA; BH-24PJ JUIZO REG BARREIRO-SECRETARIA 22.191,68 6.657,50 0,00 0,00 0,00 0,00 0,00 2.105,00 30.954,18 4.396,82 5.839,44 0,00 0,00 10.236,26 20.717,92 31/07/2023
4 179300 ADENISE AUXILIADORA SOUZA SAD OFICIAL DO MP BARBACENA - COMARCA; BARBACENA-PJ-06PJ 20.533,67 8.213,47 0,00 0,00 0,00 0,00 0,00 2.105,00 30.852,14 4.380,49 5.711,59 0,00 0,00 10.092,08 20.760,06 31/07/2023
5 272200 ADILSON BATISTA ORNELAS OFICIAL DO MP LAVRAS - COMARCA; LAVRAS-PJ-SECRETARIA 7.506,70 2.252,01 0,00 0,00 0,00 0,00 0,00 2.105,00 11.863,71 1.342,34 1.377,40 0,00 0,00 2.719,74 9.143,97 31/07/2023
6 380100 ADILSON GONCALVES DE MELO JUNIOR ANALISTA DO MP ARAXÁ - COMARCA; ARAXA-PJ-05PJ 16.469,17 4.940,75 0,00 0,00 0,00 0,00 0,00 2.105,00 23.514,92 3.206,54 4.016,70 0,00 0,00 7.223,24 16.291,68 31/07/2023
7 148800 ADILSON JANUARIO OFICIAL DO MP BELO HORIZONTE - COMARCA; BH-22PJ PES COM DEF E IDOSOS-SECRETARIA 23.070,31 18.456,25 0,00 0,00 0,00 5.795,34 477,24 7.311,24 55.110,38 5.795,34 9.400,14 3.936,60 0,00 19.132,08 35.978,30 31/07/2023
8 322601 ADMILSON SILVEIRA ANALISTA DO MP SAO JOAO DO PARAISO COMARCA; SAO JOAO DO PARAISO-PJ-UNPJ 12.343,61 2.468,72 0,00 0,00 0,00 0,00 0,00 3.055,00 17.867,33 2.150,92 2.596,93 0,00 0,00 4.747,85 13.119,48 31/07/2023
9 333700 ADRIANA ABRITTA TEIXEIRA OFICIAL DO MP BELO HORIZONTE - COMARCA; DIRET DE PESSOAL DO MINISTERIO PUBLICO - DPMP 12.343,61 3.703,08 0,00 0,00 0,00 0,00 0,00 2.105,00 18.151,69 2.348,42 2.882,06 0,00 0,00 5.230,48 12.921,21 31/07/2023
10 468500 ADRIANA APARECIDA FIRMINO ANALISTA DO MP CARATINGA - COMARCA; CARATINGA-PJ-04PJ 12.343,61 2.468,72 0,00 0,00 0,00 0,00 0,00 2.105,00 16.917,33 2.150,92 2.544,79 0,00 0,00 4.695,71 12.221,62 31/07/2023
11 326100 ADRIANA AUGUSTA AMARAL BELO OFICIAL DO MP BARBACENA - COMARCA; BARBACENA-PJ-05PJ 12.343,61 3.703,08 0,00 0,00 0,00 0,00 0,00 2.105,00 18.151,69 2.348,42 2.777,79 0,00 0,00 5.126,21 13.025,48 31/07/2023
12 605700 ADRIANA COSTA LIRA OFICIAL DO MP BELO HORIZONTE - COMARCA; CAO-EDUCACAO 7.506,70 750,67 4.020,58 0,00 0,00 0,00 0,00 2.105,00 14.382,95 1.102,13 2.188,39 0,00 0,00 3.290,52 11.092,43 31/07/2023
13 541100 ADRIANA CRISTINA DE OLIVEIRA OFICIAL DO MP EXTREMA - COMARCA; EXTREMA-PJ-01PJ 7.506,70 1.501,34 0,00 0,00 0,00 0,00 0,00 2.105,00 11.113,04 1.222,23 1.204,00 0,00 0,00 2.426,23 8.686,81 31/07/2023
14 254800 ADRIANA DAS GRACAS FERNANDES ANALISTA DO MP UBERABA - COMARCA; UBERABA-PJ-07PJ 23.070,31 18.456,25 0,00 0,00 0,00 0,00 0,00 2.105,00 43.631,56 5.795,34 7.806,42 3.936,60 0,00 17.538,36 26.093,20 31/07/2023
15 217400 ADRIANA DE CARVALHO CATAO BRAGA ASSESSOR ADMINISTRATIVO III BELO HORIZONTE - COMARCA; DIV FISCAL ADM CONT TERCEIRIZACAO 0,00 4.343,56 10.858,90 0,00 0,00 0,00 0,00 2.105,00 17.307,46 876,95 3.467,06 0,00 0,00 4.344,01 12.963,45 31/07/2023
16 434600 ADRIANA FERREIRA DA SILVA ANALISTA DO MP BELO HORIZONTE - COMARCA; BH-14PJ DEFESA CONSUMIDOR-GAB 112PJ 17.559,01 3.511,80 0,00 0,00 0,00 0,00 0,00 2.105,00 23.175,81 3.152,28 4.042,64 0,00 0,00 7.194,92 15.980,89 31/07/2023
17 499800 ADRIANA FERREIRA TIAGO OFICIAL DO MP SALINAS - COMARCA; SALINAS-PJ-02PJ 9.699,77 1.939,95 0,00 0,00 0,00 0,00 0,00 3.055,00 14.694,72 1.643,30 1.759,78 0,00 0,00 3.403,08 11.291,64 31/07/2023
18 543400 ADRIANA GUIMARAES NUNES DE PAULA ANALISTA DO MP PATROCÍNIO - COMARCA; PATROCINIO-PJ-01PJ 12.343,61 2.468,72 0,00 0,00 0,00 0,00 0,00 3.055,00 17.867,33 982,16 2.715,54 0,00 0,00 3.697,70 14.169,63 31/07/2023
19 471500 ADRIANA HORTA DE CARVALHO RODRIGUES DE SOUSA ANALISTA DO MP BELO HORIZONTE - COMARCA; GRUPO ESP PROM JUST DEF PROB ADM PAT PUB 12.343,61 2.468,72 0,00 0,00 0,00 0,00 0,00 2.105,00 16.917,33 2.150,92 2.544,79 0,00 0,00 4.695,71 12.221,62 31/07/2023
20 86400 ADRIANA MOREIRA CALDEIRA BRANT OFICIAL DO MP BELO HORIZONTE - COMARCA; BH-21PJ TUTELA FUNDACOES-SECRETARIA 21.346,53 14.942,57 0,00 0,00 0,00 5.587,20 0,00 2.105,00 43.981,30 5.587,20 9.094,54 0,00 0,00 14.681,74 29.299,56 31/07/2023
21 480700 ADRIANA MOREIRA DE AVELLAR CEZILIO OFICIAL DO MP BELO HORIZONTE - COMARCA; BH-12PJ JUIZO CRIMINAL-SECRETARIA 7.506,70 1.501,34 4.020,58 0,00 0,00 0,00 0,00 2.105,00 15.133,62 1.222,23 2.257,52 0,00 0,00 3.479,75 11.653,87 31/07/2023
22 326000 ADRIANA PEREIRA CARNEIRO RESENDE OFICIAL DO MP BELO HORIZONTE - COMARCA; BH-25PJ DEFESA DA EDUCACAO-SECRETARIA 12.343,61 3.703,08 0,00 0,00 0,00 0,00 0,00 2.105,00 18.151,69 2.348,42 2.882,06 0,00 0,00 5.230,48 12.921,21 31/07/2023
23 502200 ADRIANA PETRUCCI DAVINA OFICIAL DO MP PATROCÍNIO - COMARCA; PATROCINIO-PJ-01PJ 10.516,49 2.103,30 0,00 0,00 0,00 0,00 0,00 3.055,00 15.674,79 1.800,11 2.090,45 0,00 0,00 3.890,56 11.784,23 31/07/2023
24 201900 ADRIANA REIS PIMENTA OFICIAL DO MP TEÓFILO OTONI - COMARCA; TEOFILO OTONI-PJ-03PJ 20.533,67 8.213,47 0,00 0,00 0,00 0,00 0,00 2.105,00 30.852,14 4.380,49 5.815,87 0,00 0,00 10.196,36 20.655,78 31/07/2023
25 278700 ADRIANA RODRIGUES PINTO COELHO AMARAL ANALISTA DO MP BELO HORIZONTE - COMARCA; CGMP-DIR ESTAGIO PROBATORIO E ORIENT 23.070,31 6.921,09 0,00 0,00 0,00 0,00 0,00 2.105,00 32.096,40 4.579,57 6.103,29 0,00 0,00 10.682,86 21.413,54 31/07/2023
26 468000 ADRIANA SANTOS DE SANTANA MOREIRA ANALISTA DO MP GOVERNADOR VALADARES - COMARCA; GAECO REGIONAL DE GOVERNADOR VALADARES 12.343,61 4.937,44 0,00 0,00 0,00 0,00 0,00 2.105,00 19.386,05 2.545,92 3.062,93 0,00 0,00 5.608,85 13.777,20 31/07/2023
27 194700 ADRIANA TSUKIDE OFICIAL DO MP UBERABA - COMARCA; COORD REG BACIAS PARANAIBA BAIXO RIO GRANDE 20.533,67 8.213,47 0,00 0,00 0,00 0,00 527,03 7.854,43 37.128,60 4.380,49 5.763,73 0,00 0,00 10.144,22 26.984,38 31/07/2023
28 465500 ADRIANO CASSIANO MATOS ANALISTA DO MP ARAXÁ - COMARCA; ARAXA-PJ-02PJ 12.343,61 2.468,72 0,00 0,00 0,00 0,00 0,00 2.105,00 16.917,33 2.150,92 2.596,93 0,00 0,00 4.747,85 12.169,48 31/07/2023
29 500500 ADRIANO DE ALMEIDA SILVA OFICIAL DO MP UBERABA - COMARCA; UBERABA-PJ-12PJ 10.516,49 2.103,30 0,00 0,00 0,00 0,00 0,00 3.055,00 15.674,79 1.800,11 1.545,95 0,00 0,00 3.346,06 12.328,73 31/07/2023
30 187200 ADRIANO DE FREITAS MARON OFICIAL DO MP PONTE NOVA - COMARCA; PONTE NOVA-PJ-03PJ 17.559,01 15.803,11 0,00 0,00 0,00 5.118,89 0,00 2.105,00 40.586,01 5.118,89 8.289,62 0,00 0,00 13.408,51 27.177,50 31/07/2023
31 477900 ADRIANO FERREIRA DE ALMEIDA OFICIAL DO MP TAIOBEIRAS - COMARCA; TAIOBEIRAS-PJ-UNPJ 10.516,49 3.154,95 0,00 0,00 0,00 0,00 0,00 2.627,21 16.298,65 1.968,38 2.229,11 0,00 0,00 4.197,49 12.101,16 31/07/2023
32 269101 ADRIANO PEREIRA SILVA ANALISTA DO MP UBERABA - COMARCA; UBERABA-PJ-02PJ 12.343,61 3.703,08 0,00 0,00 0,00 0,00 0,00 2.105,00 18.151,69 2.348,42 2.725,65 0,00 0,00 5.074,07 13.077,62 31/07/2023
33 414200 ADRIANO RODRIGUES FERNANDES ANALISTA DO MP CARANDAÍ - COMARCA; CARANDAI-PJ-UNPJ 12.343,61 2.468,72 0,00 0,00 0,00 0,00 0,00 2.105,00 16.917,33 2.150,92 2.440,52 0,00 0,00 4.591,44 12.325,89 31/07/2023
34 536700 ADRIELLE COSTA MARIA MOURAO FIGUEIREDO OFICIAL DO MP SERRO - COMARCA; SERRO-PJ-SECRETARIA 7.506,70 1.501,34 0,00 0,00 3.002,68 0,00 495,44 8.459,82 20.965,98 1.222,23 2.081,87 0,00 0,00 3.304,10 17.661,88 31/07/2023
35 514300 ADRIENE DAMASCENO BRAGA ANALISTA DO MP ALFENAS - COMARCA; ALFENAS-PJ-03PJ 12.343,61 2.468,72 0,00 0,00 0,00 0,00 0,00 2.105,00 16.917,33 2.150,92 2.596,93 0,00 0,00 4.747,85 12.169,48 31/07/2023
36 254600 ADRIENE DOMINGUES COSTA ANALISTA DO MP BELO HORIZONTE - COMARCA; SUPER DE GESTAO DE PESSOAS-LOTACAO TEMPORARIA 23.070,31 9.228,12 0,00 0,00 0,00 0,00 0,00 0,00 32.298,43 4.948,70 6.636,22 0,00 0,00 11.584,92 20.713,51 31/07/2023
37 252001 ADRIENE GOMES BARRETO ANALISTA DO MP BELO HORIZONTE - COMARCA; BH-19PJ SAUDE-SECRETARIA 047PJ 18.720,84 9.360,42 0,00 0,00 0,00 0,00 0,00 2.105,00 30.186,26 4.273,95 5.662,05 0,00 0,00 9.936,00 20.250,26 31/07/2023
38 714800 ADSON GUSTAVO DE OLIVEIRA ASSESSOR PROCURADOR JUSTICA BELO HORIZONTE - COMARCA; GABINETE DE PROCURADOR DE JUSTIÇA - SALA 803 0,00 0,00 8.810,89 0,00 0,00 0,00 0,00 2.105,00 10.915,89 876,95 1.709,37 0,00 0,00 2.586,32 8.329,57 31/07/2023
39 724600 AECIO BRAS SILVA JUNIOR ASSESSOR PROMOTOR JUSTICA BAMBUÍ - COMARCA; BAMBUI-PJ-UNPJ 0,00 0,00 8.810,89 0,00 0,00 0,00 0,00 2.105,00 10.915,89 876,95 1.709,37 0,00 0,00 2.586,32 8.329,57 31/07/2023
40 302500 AGENOR JOSE DA SILVA JUNIOR ANALISTA DO MP JUIZ DE FORA - COMARCA; JUIZ DE FORA-PJ-07PJ 22.191,68 6.657,50 0,00 0,00 0,00 0,00 0,00 3.055,00 31.904,18 4.396,82 5.683,03 0,00 0,00 10.079,85 21.824,33 31/07/2023
41 357500 AILSON WAGNER DE ALENCAR SILVA OFICIAL DO MP BELO HORIZONTE - COMARCA; BH-12PJ JUIZO CRIMINAL-SECRETARIA 14.960,00 5.984,00 0,00 0,00 0,00 0,00 0,00 2.105,00 23.049,00 3.131,99 3.856,93 0,00 0,00 6.988,92 16.060,08 31/07/2023
42 366400 AILTON ALEXSSANDRO ALVES OFICIAL DO MP PARÁ DE MINAS - COMARCA; PARA DE MINAS-PJ-05PJ 12.343,61 4.937,44 0,00 0,00 0,00 0,00 0,00 2.105,00 19.386,05 2.545,92 3.167,20 0,00 0,00 5.713,12 13.672,93 31/07/2023
43 318900 AILTON DE CASTRO RIBEIRO JUNIOR OFICIAL DO MP CANDEIAS - COMARCA; CANDEIAS-PJ-UNPJ 12.343,61 3.703,08 0,00 0,00 0,00 0,00 0,00 2.105,00 18.151,69 2.348,42 2.725,65 0,00 0,00 5.074,07 13.077,62 31/07/2023
44 464400 ALAN MONTEIRO GASPAR ANALISTA DO MP SETE LAGOAS - COMARCA; SETE LAGOAS-PJ-08PJ 12.343,61 2.468,72 0,00 0,00 0,00 0,00 0,00 2.105,00 16.917,33 2.150,92 2.596,93 0,00 0,00 4.747,85 12.169,48 31/07/2023
45 492000 ALANA DE CASTRO FREITAS OFICIAL DO MP BELO HORIZONTE - COMARCA; SECRETARIA DO PROCON-MG 8.003,54 1.600,71 0,00 0,00 0,00 0,00 0,00 2.105,00 11.709,25 1.317,63 1.393,86 0,00 0,00 2.711,49 8.997,76 31/07/2023
46 306700 ALANA MARCIA DE OLIVEIRA OFICIAL DO MP BELO HORIZONTE - COMARCA; DIRETORIA DE ADMINISTRACAO FINANCEIRA 12.343,61 3.703,08 0,00 0,00 0,00 0,00 0,00 2.105,00 18.151,69 2.348,42 2.882,06 0,00 0,00 5.230,48 12.921,21 31/07/2023
47 324500 ALANMAR COUTINHO COSTA OFICIAL DO MP LEOPOLDINA - COMARCA; LEOPOLDINA-PJ-02PJ 12.343,61 3.703,08 0,00 0,00 0,00 0,00 0,00 2.105,00 18.151,69 2.348,42 2.777,79 0,00 0,00 5.126,21 13.025,48 31/07/2023
48 407300 ALBERTO LUIZ SOARES DE OLIVEIRA ANALISTA DO MP BELO HORIZONTE - COMARCA; DIRETORIA DE PROJETOS DE EDIFICACOES 17.559,01 3.511,80 0,00 0,00 0,00 0,00 0,00 2.105,00 23.175,81 3.152,28 4.042,64 0,00 0,00 7.194,92 15.980,89 31/07/2023
49 118200 ALBERTO PEREIRA DA COSTA OFICIAL DO MP DORES DO INDAIÁ - COMARCA; DORES DO INDAIA-PJ-UNPJ 22.191,68 19.972,51 0,00 0,00 0,00 5.795,34 477,24 7.311,23 55.748,00 5.795,34 9.400,14 4.574,23 0,00 19.769,71 35.978,29 31/07/2023
50 282400 ALCILENE MARISE DE ARAUJO ANALISTA DO MP BELO HORIZONTE - COMARCA; BH-23PJ INF-FISC MED SOC FEC 23.070,31 6.921,09 0,00 0,00 0,00 0,00 549,84 8.103,28 38.644,52 4.579,57 6.051,16 0,00 0,00 10.630,73 28.013,79 31/07/2023
51 396400 ALCIONE DE FREITAS E SILVA ANALISTA DO MP BELO HORIZONTE - COMARCA; ASSESS JUR DO CONS SUPERIOR DO MINISTERIO PUB 18.720,84 7.488,34 0,00 0,00 0,00 0,00 0,00 2.105,00 28.314,18 3.974,42 5.229,60 0,00 0,00 9.204,02 19.110,16 31/07/2023
52 657400 ALCIONE MARIA FERREIRA ASSESSOR PROCURADOR JUSTICA BELO HORIZONTE - COMARCA; GABINETE DE PROCURADOR DE JUSTIÇA - SALA 610 0,00 0,00 8.810,89 0,00 0,00 0,00 0,00 3.055,00 11.865,89 876,95 1.709,37 0,00 0,00 2.586,32 9.279,57 31/07/2023
53 161600 ALCIONE NERY SOUZA ASSESSOR ADMINISTRATIVO III BELO HORIZONTE - COMARCA; BH-18PJ DIREITOS HUMANOS-SECRETARIA 0,00 5.429,45 10.858,90 0,00 0,00 0,00 0,00 2.105,00 18.393,35 876,95 3.765,68 0,00 0,00 4.642,63 13.750,72 31/07/2023
54 376000 ALDA GOMES LANA OFICIAL DO MP BELO HORIZONTE - COMARCA; BH-18PJ VIOLENCIA DOMESTICA-SECRETARIA 12.343,61 3.703,08 0,00 0,00 0,00 0,00 0,00 2.105,00 18.151,69 2.348,42 2.829,93 0,00 0,00 5.178,35 12.973,34 31/07/2023
55 148000 ALDA MARTINS SIMOES OFICIAL DO MP BELO HORIZONTE - COMARCA; BH-23PJ CIVEL- FISC ENT AB POL 23.070,31 16.149,22 0,00 0,00 0,00 0,00 4.614,06 2.105,00 45.938,59 5.795,34 8.679,30 3.259,14 0,00 17.733,78 28.204,81 31/07/2023
56 318400 ALDO CREPALDI JUNIOR OFICIAL DO MP BELO HORIZONTE - COMARCA; DIVISAO DE MATERIAIS 12.343,61 3.703,08 0,00 0,00 0,00 0,00 0,00 2.105,00 18.151,69 2.348,42 2.829,93 0,00 0,00 5.178,35 12.973,34 31/07/2023
57 604500 ALENIZE APARECIDA RODRIGUES HENRIQUE OFICIAL DO MP RIO NOVO - COMARCA; RIO NOVO-PJ-SECRETARIA 7.506,70 750,67 0,00 0,00 0,00 0,00 0,00 2.105,00 10.362,37 1.102,13 1.082,73 0,00 0,00 2.184,86 8.177,51 31/07/2023
58 197900 ALESSA DE SOUSA E SILVA OFICIAL DO MP OLIVEIRA - COMARCA; OLIVEIRA-PJ-02PJ 21.346,53 8.538,61 0,00 0,00 0,00 0,00 0,00 2.314,19 32.199,33 4.562,57 5.974,47 0,00 0,00 10.537,04 21.662,29 31/07/2023
59 428500 ALESSANDRA ALVES DINIZ OFICIAL DO MP BELO HORIZONTE - COMARCA; CENTRAL DE APOIO TECNICO-SECRETARIA 10.015,59 5.007,80 0,00 0,00 0,00 0,00 0,00 2.105,00 17.128,39 2.184,69 2.645,68 0,00 0,00 4.830,37 12.298,02 31/07/2023
60 286801 ALESSANDRA BOTELHO JUNQUEIRA DE MENEZES ANALISTA DO MP PASSOS - COMARCA; PASSOS-PJ-05PJ 18.130,77 7.252,31 0,00 0,00 0,00 0,00 0,00 3.055,00 28.438,08 3.842,24 4.830,22 0,00 0,00 8.672,46 19.765,62 31/07/2023
61 307000 ALESSANDRA CRISTINA SANTOS MENDES ANALISTA DO MP BELO HORIZONTE - COMARCA; BH-18PJ VIOLENCIA DOMESTICA-SECRETARIA 20.533,67 6.160,10 0,00 0,00 0,00 0,00 0,00 2.105,00 28.798,77 4.051,95 5.289,40 0,00 0,00 9.341,35 19.457,42 31/07/2023
62 264400 ALESSANDRA DE SOUZA SANTOS ANALISTA DO MP BELO HORIZONTE - COMARCA; SECRETARIA DE ASSUNTOS INTERNACIONAIS 23.070,31 11.535,16 0,00 0,00 0,00 0,00 0,00 2.105,00 36.710,47 5.317,82 7.169,14 0,00 0,00 12.486,96 24.223,51 31/07/2023
63 441500 ALESSANDRA DRUMMOND DE FIGUEIREDO ROSSI ANALISTA DO MP BELO HORIZONTE - COMARCA; DIRETORIA DE PROJETOS DE EDIFICACOES 12.343,61 2.468,72 0,00 0,00 0,00 0,00 0,00 2.105,00 16.917,33 2.150,92 2.596,93 0,00 0,00 4.747,85 12.169,48 31/07/2023
64 524000 ALESSANDRA LUCIOLI DE BARROS GUERRA ANALISTA DO MP BELO HORIZONTE - COMARCA; BH-19PJ SAUDE--SECRETARIA 12.343,61 2.468,72 0,00 0,00 0,00 0,00 0,00 2.105,00 16.917,33 2.150,92 2.492,65 0,00 0,00 4.643,57 12.273,76 31/07/2023
65 479900 ALESSANDRA MARA ANDRADE DE FARIA OFICIAL DO MP UBERABA - COMARCA; UBERABA-PJ-09PJ 10.516,49 2.103,30 0,00 0,00 0,00 0,00 0,00 2.105,00 14.724,79 1.800,11 2.090,45 0,00 0,00 3.890,56 10.834,23 31/07/2023
66 226700 ALESSANDRA MARA VASCONCELOS REZENDE OFICIAL DO MP CONSELHEIRO LAFAIETE - COMARCA; CONSELHEIRO LAFAIETE-PJ-07PJ 17.559,01 7.023,60 0,00 0,00 0,00 0,00 0,00 2.105,00 26.687,61 3.714,17 4.853,86 0,00 0,00 8.568,03 18.119,58 31/07/2023
67 196500 ALESSANDRA MARIA RIBEIRO LUCIANO OFICIAL DO MP RIO PARANAÍBA - COMARCA; RIO PARANAIBA-PJ-UNPJ 21.346,53 10.673,27 0,00 0,00 0,00 0,00 0,00 2.105,00 34.124,80 4.904,12 6.467,58 0,00 0,00 11.371,70 22.753,10 31/07/2023
68 651700 ALESSANDRA PROFIRIO SOUZA OFICIAL DO MP NOVA ERA - COMARCA; NOVA ERA-PJ-UNPJ 6.097,80 609,78 0,00 0,00 0,00 0,00 0,00 2.105,00 8.812,58 858,46 671,41 0,00 0,00 1.529,87 7.282,71 31/07/2023
69 384900 ALESSANDRA RODRIGUES ANALISTA DO MP VISCONDE DO RIO BRANCO - COMARCA; VISCONDE DO RIO BRANCO-PJ-03PJ 18.720,84 5.616,25 0,00 0,00 0,00 0,00 0,00 3.055,00 27.392,09 3.674,88 4.692,87 0,00 0,00 8.367,75 19.024,34 31/07/2023
70 390000 ALESSANDRA SPADANO MASSARA VASCONCELOS OFICIAL DO MP BETIM - COMARCA; BETIM-PJ-10PJ 12.343,61 3.703,08 0,00 0,00 0,00 0,00 353,03 5.956,21 22.355,93 2.348,42 2.882,06 0,00 0,00 5.230,48 17.125,45 31/07/2023
71 426500 ALESSANDRO CAMPOS DE PAIVA ANALISTA DO MP BELO HORIZONTE - COMARCA; DIR CRIACAO E MIDIAS 18.130,77 3.626,15 0,00 0,00 0,00 0,00 0,00 2.105,00 23.861,92 3.262,06 4.201,13 0,00 0,00 7.463,19 16.398,73 31/07/2023
72 623400 ALESSANDRO DE OLIVEIRA REZENDE ANALISTA DO MP BELO HORIZONTE - COMARCA; DIRET DE INFORMACAO E CONHECIMENTO-DINC/CEAF 11.577,56 1.157,76 0,00 0,00 0,00 0,00 0,00 2.105,00 14.840,32 1.818,60 2.117,14 0,00 0,00 3.935,74 10.904,58 31/07/2023
73 420600 ALESSANDRO SILVA OFICIAL DO MP VISCONDE DO RIO BRANCO - COMARCA; VISCONDE DO RIO BRANCO-PJ-02PJ 11.577,56 4.631,02 0,00 0,00 0,00 0,00 0,00 2.105,00 18.313,58 2.374,32 2.469,23 0,00 0,00 4.843,55 13.470,03 31/07/2023
74 375301 ALETHEIA PATRICIA ASSIS MORAIS MOREIRA ANALISTA DO MP ITABIRA - COMARCA; ITABIRA-PJ-02PJ 12.343,61 3.703,08 0,00 0,00 0,00 0,00 0,00 3.055,00 19.101,69 2.348,42 2.829,93 0,00 0,00 5.178,35 13.923,34 31/07/2023
75 382300 ALEX CARVALHO LIMA ANALISTA DO MP UBERLÂNDIA - COMARCA; UBERLANDIA-PJ-14PJ 18.720,84 5.616,25 0,00 0,00 0,00 0,00 0,00 3.055,00 27.392,09 3.674,88 4.797,15 0,00 0,00 8.472,03 18.920,06 31/07/2023
76 195201 ALEX DE CASTRO PEREIRA ANALISTA DO MP UBERABA - COMARCA; UBERABA-PJ-09PJ 23.070,31 9.228,12 0,00 0,00 0,00 0,00 0,00 2.105,00 34.403,43 4.948,70 6.636,22 0,00 0,00 11.584,92 22.818,51 31/07/2023
77 358900 ALEX DE PAULA LANZA ASSESSOR ADMINISTRATIVO IV BELO HORIZONTE - COMARCA; DIR CONTEUDO JORNALISTICO 0,00 0,00 14.488,22 0,00 0,00 0,00 0,00 3.055,00 17.543,22 876,95 3.270,64 0,00 0,00 4.147,59 13.395,63 31/07/2023
78 178400 ALEX RODRIGO SALDANHA GUIMARAES OFICIAL DO MP BELO HORIZONTE - COMARCA; DIRETORIA DE SISTEMAS DE INFORMACAO 7.506,70 3.002,68 0,00 0,00 0,00 0,00 0,00 2.105,00 12.614,38 1.462,45 1.602,95 0,00 0,00 3.065,40 9.548,98 31/07/2023
79 413500 ALEX VILELA OLIVEIRA ANALISTA DO MP GOVERNADOR VALADARES - COMARCA; COORD REG PJ DEF EDU DIR CRIANCA ADOL RIODOCE 18.130,77 3.626,15 0,00 0,00 0,00 0,00 0,00 2.105,00 23.861,92 3.262,06 4.201,13 0,00 0,00 7.463,19 16.398,73 31/07/2023
80 264300 ALEXANDRA FATIMA SARAIVA SOARES ANALISTA DO MP BELO HORIZONTE - COMARCA; CENTRAL DE APOIO TECN-SETOR DE MEIO AMBIENTE 23.070,31 9.228,12 0,00 0,00 0,00 0,00 355,28 5.980,81 38.634,52 4.948,70 6.636,22 0,00 0,00 11.584,92 27.049,60 31/07/2023
81 488000 ALEXANDRA LARA PAIS DE CARVALHO ANALISTA DO MP SABARÁ - COMARCA; SABARA-PJ-04PJ 12.343,61 2.468,72 0,00 0,00 0,00 0,00 0,00 2.105,00 16.917,33 2.150,92 2.440,52 0,00 0,00 4.591,44 12.325,89 31/07/2023
82 256300 ALEXANDRA SANTOS GOMES OFICIAL DO MP BELO HORIZONTE - COMARCA; DIRETORIA GESTAO COMPRAS LICITACOES 12.343,61 4.937,44 0,00 0,00 0,00 0,00 0,00 2.105,00 19.386,05 2.545,92 3.167,20 0,00 0,00 5.713,12 13.672,93 31/07/2023
83 403300 ALEXANDRE AUGUSTO RODRIGUES ANALISTA DO MP ÁGUAS FORMOSAS - COMARCA; AGUAS FORMOSAS-PJ-UNPJ 12.343,61 2.468,72 0,00 0,00 0,00 0,00 0,00 4.005,00 18.817,33 2.150,92 2.596,93 0,00 0,00 4.747,85 14.069,48 31/07/2023
84 640900 ALEXANDRE BARBOSA MASCARENHAS ANALISTA DO MP BETIM - COMARCA; BETIM-PJ-02PJ 9.393,95 939,40 0,00 0,00 0,00 0,00 0,00 2.105,00 12.438,35 982,16 1.316,16 0,00 0,00 2.298,32 10.140,03 31/07/2023
85 311700 ALEXANDRE BARCELOS RESENDE OFICIAL DO MP BELO HORIZONTE - COMARCA; BH-17PJ PATRIMONIO PUBLICO-SECRETARIA 10.858,90 3.257,67 0,00 0,00 0,00 0,00 0,00 3.055,00 17.171,57 2.039,60 2.436,21 0,00 0,00 4.475,81 12.695,76 31/07/2023
86 285600 ALEXANDRE CAMPOS DE OLIVEIRA OFICIAL DO MP UBERABA - COMARCA; COORD REG BACIAS PARANAIBA BAIXO RIO GRANDE 12.343,61 3.703,08 0,00 0,00 0,00 0,00 0,00 2.105,00 18.151,69 2.348,42 2.725,65 0,00 0,00 5.074,07 13.077,62 31/07/2023
87 509200 ALEXANDRE CAPUANO DE REZENDE ANALISTA DO MP BELO HORIZONTE - COMARCA; BH-07PJ 03 TRIBUNAL DO JURI-GAB 061PJ 12.343,61 2.468,72 0,00 0,00 0,00 0,00 0,00 2.105,00 16.917,33 2.150,92 2.544,79 0,00 0,00 4.695,71 12.221,62 31/07/2023
88 229400 ALEXANDRE CARLOS BOTREL SUPERINTENDENTE BELO HORIZONTE - COMARCA; SUPERINTENDENCIA DOS ORGAOS COLEGIADOS 28.013,39 11.205,36 0,00 0,00 0,00 0,00 275,66 5.112,20 44.606,61 3.842,24 8.395,66 1.628,79 0,00 13.866,69 30.739,92 31/07/2023
89 411900 ALEXANDRE CARVALHO SANTOS RIBEIRO ANALISTA DO MP OLIVEIRA - COMARCA; OLIVEIRA-PJ-02PJ 18.130,77 3.626,15 0,00 0,00 0,00 0,00 0,00 3.055,00 24.811,92 3.262,06 4.201,13 0,00 0,00 7.463,19 17.348,73 31/07/2023
90 641600 ALEXANDRE DA SILVA ASSUNCAO OFICIAL DO MP BELO HORIZONTE - COMARCA; SERVICO MEDICO-DEPTO PERIC MEDICA SAUDE OCUP 6.603,76 660,38 0,00 0,00 0,00 0,00 0,00 3.055,00 10.319,14 944,43 852,96 0,00 0,00 1.797,39 8.521,75 31/07/2023
91 201200 ALEXANDRE DE ALENCAR CORDEIRO OFICIAL DO MP ÁGUAS FORMOSAS - COMARCA; AGUAS FORMOSAS-PJ-UNPJ 7.506,70 5.254,69 0,00 0,00 0,00 0,00 0,00 2.105,00 14.866,39 1.822,77 2.123,16 0,00 0,00 3.945,93 10.920,46 31/07/2023
92 288200 ALEXANDRE DE VASCONCELOS COSTA KER ANALISTA DO MP BELO HORIZONTE - COMARCA; BH-03PJ EMPRESARIAL-SECRETARIA 22.191,68 6.657,50 0,00 0,00 0,00 0,00 0,00 2.105,00 30.954,18 4.396,82 5.787,30 0,00 0,00 10.184,12 20.770,06 31/07/2023
93 445000 ALEXANDRE DIOGENES OLIVEIRA ANALISTA DO MP SALINAS - COMARCA; SALINAS-PJ-02PJ 13.588,97 2.717,79 0,00 0,00 0,00 0,00 0,00 2.105,00 18.411,76 2.390,03 2.942,14 0,00 0,00 5.332,17 13.079,59 31/07/2023
94 463400 ALEXANDRE LEAL WINKELSTROTER ANALISTA DO MP TEÓFILO OTONI - COMARCA; TEOFILO OTONI-PJ-04PJ 12.343,61 3.209,34 0,00 0,00 0,00 0,00 0,00 2.105,00 17.657,95 2.269,42 2.768,01 0,00 0,00 5.037,43 12.620,52 31/07/2023
95 615700 ALEXANDRE LUIZ DE CASTRO MACIEL ANALISTA DO MP BELO HORIZONTE - COMARCA; BH-08PJ JUIZADO ESPECIAL-SECRETARIA 11.577,56 1.852,41 0,00 0,00 0,00 0,00 0,00 3.055,00 16.484,97 1.929,74 2.225,47 0,00 0,00 4.155,21 12.329,76 31/07/2023
96 356900 ALEXANDRE MOISES MENDONCA E ARAUJO OFICIAL DO MP UBERABA - COMARCA; UBERABA-PJ-13PJ 9.699,77 2.909,93 0,00 0,00 0,00 0,00 0,00 2.105,00 14.714,70 1.798,50 2.088,12 0,00 0,00 3.886,62 10.828,08 31/07/2023
97 633300 ALEXANDRE NONATO MARTINS OFICIAL DO MP IGARAPÉ - COMARCA; IGARAPE-PJ-02PJ 6.603,76 660,38 0,00 0,00 0,00 0,00 0,00 2.105,00 9.369,14 944,43 800,82 0,00 0,00 1.745,25 7.623,89 31/07/2023
98 469900 ALEXANDRE PEREIRA GUEDES ANALISTA DO MP CATAGUASES - COMARCA; CATAGUASES-PJ-03PJ 12.343,61 2.468,72 0,00 0,00 0,00 0,00 0,00 2.105,00 16.917,33 2.150,92 2.596,93 0,00 0,00 4.747,85 12.169,48 31/07/2023
99 208700 ALEXANDRE RESENDE FRAGA ANALISTA DO MP BELO HORIZONTE - COMARCA; BH-19PJ SAUDE-SECRETARIA 130PJ 23.070,31 9.228,12 0,00 0,00 0,00 0,00 0,00 2.105,00 34.403,43 4.948,70 6.479,80 0,00 0,00 11.428,50 22.974,93 31/07/2023
100 216401 ALEXANDRE RIBEIRO DE LIMA MAIORINO ANALISTA DO MP UBERABA - COMARCA; UBERABA-PJ-03PJ 22.191,68 8.876,67 0,00 0,00 0,00 0,00 0,00 2.105,00 33.173,35 4.751,88 6.299,93 0,00 0,00 11.051,81 22.121,54 31/07/2023
101 475100 ALEXANDRE TEOTONIO COSTA ANALISTA DO MP ARAGUARI - COMARCA; ARAGUARI-PJ-01PJ 12.343,61 2.468,72 0,00 0,00 0,00 0,00 0,00 2.105,00 16.917,33 2.150,92 2.492,65 0,00 0,00 4.643,57 12.273,76 31/07/2023
102 339000 ALEXANDRE VITOR CARDOSO OFICIAL DO MP BELO HORIZONTE - COMARCA; BH-23PJ INFRACIONAL-SEC EXP 7.506,70 2.252,01 0,00 0,00 0,00 0,00 0,00 2.105,00 11.863,71 1.342,34 1.273,13 0,00 0,00 2.615,47 9.248,24 31/07/2023
103 623100 ALEXSANDER BATISTA AGUIAR COORDENADOR II BELO HORIZONTE - COMARCA; DIRETORIA DE SUPORTE E MANUTENCAO 20.533,67 2.053,37 0,00 0,00 0,00 0,00 0,00 2.105,00 24.692,04 1.818,60 4.669,95 0,00 0,00 6.488,55 18.203,49 31/07/2023
104 513300 ALFSON MIRANDA BRAGA ANALISTA DO MP BELO HORIZONTE - COMARCA; BH-12PJ JUIZO CRIMINAL-GAB 087PJ 12.343,61 2.468,72 0,00 0,00 0,00 0,00 0,00 2.105,00 16.917,33 2.150,92 2.596,93 0,00 0,00 4.747,85 12.169,48 31/07/2023
105 618400 ALICE MAGALHAES MACEDO DE CARVALHO ANALISTA DO MP IPATINGA - COMARCA; IPATINGA-PJ-10PJ 11.577,56 1.157,76 0,00 0,00 0,00 0,00 0,00 3.055,00 15.790,32 1.818,60 2.117,14 0,00 0,00 3.935,74 11.854,58 31/07/2023
106 707000 ALICE MARIA RIBEIRO DINIZ ASSESSOR PROMOTOR JUSTICA BELO HORIZONTE - COMARCA; PROC JUST ATUACAO TRIBUNAIS SUPERIORES-GAB004 0,00 0,00 8.810,89 0,00 0,00 0,00 0,00 2.105,00 10.915,89 876,95 1.709,37 0,00 0,00 2.586,32 8.329,57 31/07/2023
107 471000 ALICE TITONELI MOREIRA ANALISTA DO MP MIRADOURO - COMARCA; MIRADOURO-PJ-UNPJ 12.343,61 2.468,72 0,00 0,00 0,00 0,00 271,56 6.124,36 21.208,25 2.150,92 2.492,65 0,00 0,00 4.643,57 16.564,68 31/07/2023
108 731600 ALICIA PAULA RODRIGUES DE LIMA ASSESSOR PROMOTOR JUSTICA TIROS - COMARCA; TIROS-PJ-UNPJ 0,00 0,00 8.810,89 0,00 0,00 0,00 0,00 2.105,00 10.915,89 876,95 1.709,37 0,00 0,00 2.586,32 8.329,57 31/07/2023
109 725800 ALINE ALBIERI FRANCISCO ASSESSOR PROMOTOR JUSTICA BELO HORIZONTE - COMARCA; CAO-ORDEM ECONOMICA E TRIBUTARIA-ASSESS TECN 0,00 0,00 8.810,89 0,00 0,00 0,00 0,00 2.105,00 10.915,89 876,95 1.709,37 0,00 0,00 2.586,32 8.329,57 31/07/2023
110 733200 ALINE APARECIDA DO PRADO TERRITO ASSESSOR ADMINISTRATIVO II BELO HORIZONTE - COMARCA; ESCRITORIO DE PROTECAO DE DADOS PESSOAIS 0,00 0,00 7.506,70 0,00 0,00 0,00 0,00 2.105,00 9.611,70 876,95 1.350,72 0,00 0,00 2.227,67 7.384,03 31/07/2023
111 622400 ALINE BALBINO PORTUGAL LOPES ANALISTA DO MP TRÊS PONTAS - COMARCA; TRES PONTAS-PJ-03PJ 11.577,56 1.157,76 0,00 0,00 0,00 0,00 0,00 3.055,00 15.790,32 1.818,60 2.117,14 0,00 0,00 3.935,74 11.854,58 31/07/2023
112 373000 ALINE BOTELHO RESENDE OFICIAL DO MP JUIZ DE FORA - COMARCA; JUIZ DE FORA-PJ-22PJ 11.954,43 3.586,33 0,00 0,00 0,00 0,00 0,00 2.105,00 17.645,76 2.267,47 2.765,19 0,00 0,00 5.032,66 12.613,10 31/07/2023
113 699800 ALINE CRISTINA DE OLIVEIRA AMARAL BARBOSA ASSESSOR PROCURADOR JUSTICA BELO HORIZONTE - COMARCA; GABINETE DE PROCURADOR DE JUSTIÇA - SALA 904 0,00 0,00 8.810,89 0,00 0,00 0,00 0,00 2.105,00 10.915,89 876,95 1.605,10 0,00 0,00 2.482,05 8.433,84 31/07/2023
114 407700 ALINE CRISTINA RODRIGUES PEREIRA COORDENADOR II BELO HORIZONTE - COMARCA; DIRETORIA DE PROJETOS DE EDIFICACOES 20.533,67 4.106,73 0,00 0,00 0,00 0,00 0,00 2.105,00 26.745,40 2.150,92 5.299,65 0,00 0,00 7.450,57 19.294,83 31/07/2023
115 193100 ALINE CRISTINA SENA OLIVEIRA OFICIAL DO MP UBERLÂNDIA - COMARCA; UBERLANDIA-PJ-03PJ 20.533,67 8.213,47 0,00 0,00 0,00 0,00 0,00 3.055,00 31.802,14 4.380,49 5.763,73 0,00 0,00 10.144,22 21.657,92 31/07/2023
116 554200 ALINE CRISTINA SILVA SOUZA OFICIAL DO MP TIROS - COMARCA; TIROS-PJ-UNPJ 7.506,70 1.501,34 0,00 0,00 0,00 0,00 0,00 2.105,00 11.113,04 1.222,23 1.256,14 0,00 0,00 2.478,37 8.634,67 31/07/2023
117 505500 ALINE DA CUNHA MARREIROS OLIVEIRA ANALISTA DO MP EUGENÓPOLIS - COMARCA; EUGENOPOLIS-PJ-UNPJ 12.343,61 2.468,72 0,00 0,00 0,00 0,00 0,00 3.055,00 17.867,33 2.150,92 2.544,79 0,00 0,00 4.695,71 13.171,62 31/07/2023
118 433500 ALINE DE MELO QUEIROZ OFICIAL DO MP BELO HORIZONTE - COMARCA; ASSESSORIA JURIDICA DO PROCON-MG 11.212,54 2.242,51 4.020,58 0,00 0,00 0,00 0,00 3.055,00 20.530,63 1.933,76 3.389,05 0,00 0,00 5.322,81 15.207,82 31/07/2023
119 691100 ALINE DE MELO SOUZA ASSESSOR PROCURADOR JUSTICA BELO HORIZONTE - COMARCA; GABINETE DE PROCURADOR DE JUSTIÇA - SALA 401 0,00 0,00 8.810,89 0,00 0,00 0,00 0,00 2.105,00 10.915,89 876,95 1.709,37 0,00 0,00 2.586,32 8.329,57 31/07/2023
120 542700 ALINE DE SOUSA ALBINO ANALISTA DO MP CONTAGEM - COMARCA; CONTAGEM-PJ-09PJ 12.343,61 2.468,72 0,00 0,00 0,00 0,00 0,00 2.105,00 16.917,33 2.150,92 2.596,93 0,00 0,00 4.747,85 12.169,48 31/07/2023
121 330000 ALINE DIORIO MAYRINK OFICIAL DO MP BELO HORIZONTE - COMARCA; DIRETORIA DE PESSOAL ADMINISTRATIVO - DPAD 10.015,59 2.003,12 0,00 0,00 0,00 0,00 0,00 2.105,00 14.123,71 1.703,94 1.951,60 0,00 0,00 3.655,54 10.468,17 31/07/2023
122 499000 ALINE FERREIRA LOPES ANALISTA DO MP TEÓFILO OTONI - COMARCA; TEOFILO OTONI-PJ-09PJ 12.343,61 2.468,72 0,00 0,00 0,00 0,00 0,00 2.105,00 16.917,33 2.150,92 2.544,79 0,00 0,00 4.695,71 12.221,62 31/07/2023
123 405300 ALINE LAIA CARDOZO SUPERINTENDENTE BELO HORIZONTE - COMARCA; SUPERINTENDENCIA LOGISTICA SERVICOS 28.013,39 5.602,68 0,00 0,00 0,00 0,00 0,00 2.105,00 35.721,07 3.375,35 7.431,24 0,00 0,00 10.806,59 24.914,48 31/07/2023
124 278200 ALINE MARCIA FARIA BARBOSA FERNANDES OFICIAL DO MP BARBACENA - COMARCA; BARBACENA-PJ-SECRETARIA 9.699,77 2.909,93 0,00 0,00 0,00 0,00 0,00 2.105,00 14.714,70 1.798,50 1.983,85 0,00 0,00 3.782,35 10.932,35 31/07/2023
125 389000 ALINE NERI NOBRE ANALISTA DO MP MONTES CLAROS - COMARCA; COORD REG PJ DEF EDUC DIR CRIANCA ADOL NORTE 18.720,84 7.488,34 0,00 0,00 0,00 0,00 0,00 2.105,00 28.314,18 3.974,42 5.229,60 0,00 0,00 9.204,02 19.110,16 31/07/2023
126 294600 ALINE PATRICIA SILVA VIEIRA OFICIAL DO MP UBERLÂNDIA - COMARCA; UBERLANDIA-PJ-03PJ 14.960,00 4.488,00 0,00 0,00 0,00 0,00 1.771,66 2.105,00 23.324,66 2.892,63 3.946,42 0,00 0,00 6.839,05 16.485,61 31/07/2023
127 420000 ALINE RODRIGUES CAMOROPIN ANALISTA DO MP SABARÁ - COMARCA; SABARA-PJ-02PJ 18.130,77 3.626,15 0,00 0,00 0,00 0,00 0,00 2.105,00 23.861,92 3.262,06 4.201,13 0,00 0,00 7.463,19 16.398,73 31/07/2023
128 715800 ALINE SANTOS PEDROSA MAIA BARBOSA ASSESSOR PROCURADOR JUSTICA BELO HORIZONTE - COMARCA; GABINETE DE PROCURADOR DE JUSTIÇA - SALA 1010 0,00 0,00 8.810,89 0,00 0,00 0,00 0,00 2.105,00 10.915,89 876,95 1.709,37 0,00 0,00 2.586,32 8.329,57 31/07/2023
129 699600 ALINE SEPULVEDA ROSA PIRES ASSESSOR PROCURADOR JUSTICA BELO HORIZONTE - COMARCA; GABINETE DE PROCURADOR DE JUSTIÇA - SALA 905 0,00 0,00 8.810,89 0,00 0,00 0,00 0,00 2.105,00 10.915,89 876,95 1.709,37 0,00 0,00 2.586,32 8.329,57 31/07/2023
130 408300 ALINE SILVA ARAUJO DE PAULA ANALISTA DO MP SÃO SEBASTIÃO DO PARAÍSO - COMARCA; SAO SEBASTIAO DO PARAISO-PJ-02PJ 18.130,77 3.626,15 0,00 0,00 0,00 0,00 0,00 2.105,00 23.861,92 982,16 4.690,95 0,00 0,00 5.673,11 18.188,81 31/07/2023
131 734300 ALINE TAVARES GURGEL ASSESSOR ADMINISTRATIVO III BELO HORIZONTE - COMARCA; SECRETARIA-GERAL 0,00 0,00 10.858,90 0,00 0,00 0,00 0,00 2.105,00 12.963,90 876,95 2.272,58 0,00 0,00 3.149,53 9.814,37 31/07/2023
132 425400 ALINE TRINDADE DE FREITAS CAMPOS OFICIAL DO MP BELO HORIZONTE - COMARCA; PROMOT ESTADUAL DE DEF PATRI CULT E TUR DE MG 11.212,54 2.242,51 0,00 0,00 0,00 0,00 0,00 2.105,00 15.560,05 1.933,76 2.283,39 0,00 0,00 4.217,15 11.342,90 31/07/2023
133 517200 ALISSOM PEREIRA DA SILVA ANALISTA DO MP BORDA DA MATA - COMARCA; BORDA DA MATA-PJ-UNPJ 12.343,61 3.703,08 0,00 0,00 0,00 0,00 0,00 3.055,00 19.101,69 2.348,42 2.882,06 0,00 0,00 5.230,48 13.871,21 31/07/2023
134 442400 ALISSON LABRE ANALISTA DO MP VARGINHA - COMARCA; VARGINHA-PJ-03PJ 13.160,57 2.632,11 0,00 0,00 0,00 0,00 0,00 2.105,00 17.897,68 982,16 3.187,93 0,00 0,00 4.170,09 13.727,59 31/07/2023
135 643800 ALLAN PAUL FONSECA DE CASTRO OFICIAL DO MP CONTAGEM - COMARCA; CONTAGEM-PJ-SECRETARIA 6.603,76 660,38 2.918,39 0,00 0,00 0,00 0,00 3.055,00 13.237,53 944,43 1.655,52 0,00 0,00 2.599,95 10.637,58 31/07/2023
136 612900 ALLAN VINICIUS VIEIRA ARAUJO COORDENADOR II BELO HORIZONTE - COMARCA; DIRETORIA DE GESTAO DOCUMENTAL 20.533,67 2.053,37 0,00 0,00 0,00 0,00 0,00 2.105,00 24.692,04 1.102,13 5.023,39 0,00 0,00 6.125,52 18.566,52 31/07/2023
137 349000 ALLEC RODRIGUES VIEIRA OFICIAL DO MP CAPINÓPOLIS - COMARCA; CAO-CIVEL 12.343,61 3.703,08 0,00 0,00 0,00 0,00 0,00 2.105,00 18.151,69 2.348,42 2.882,06 0,00 0,00 5.230,48 12.921,21 31/07/2023
138 297300 ALLYSON SALIBA MONTEIRO LAIZO ANALISTA DO MP CONSELHEIRO LAFAIETE - COMARCA; CONSELHEIRO LAFAIETE-PJ-03PJ 23.070,31 6.921,09 0,00 0,00 0,00 0,00 0,00 3.055,00 33.046,40 4.579,57 6.103,29 0,00 0,00 10.682,86 22.363,54 31/07/2023
139 303700 ALMIR LOPES LOURES ANALISTA DO MP BELO HORIZONTE - COMARCA; CENTRAL DE APOIO TECN-SETOR DE MEIO AMBIENTE 23.070,31 6.921,09 0,00 0,00 0,00 0,00 0,00 2.105,00 32.096,40 4.579,57 6.103,29 0,00 0,00 10.682,86 21.413,54 31/07/2023
140 743900 ALMIR MOREIRA DOS SANTOS ANALISTA DO MP BELO HORIZONTE - COMARCA; SUPERINTENDENCIA GESTÃO DE PESSOAS 5.632,62 0,00 0,00 0,00 0,00 0,00 0,00 1.832,27 7.464,89 691,54 374,70 0,00 0,00 1.066,24 6.398,65 31/07/2023
141 696600 ALOIZIO MARTINS JALES JUNIOR ASSESSOR PROMOTOR JUSTICA CAMPESTRE - COMARCA; CAMPESTRE-PJ-SECRETARIA 0,00 0,00 8.810,89 0,00 0,00 0,00 0,00 2.105,00 10.915,89 876,95 1.709,37 0,00 0,00 2.586,32 8.329,57 31/07/2023
142 515900 ALTAIR NEVES JUNIOR OFICIAL DO MP BELO HORIZONTE - COMARCA; BH-01PJ FAZENDA PUBLICA-SECRETARIA 9.699,77 1.939,95 0,00 0,00 0,00 0,00 0,00 2.105,00 13.744,72 1.643,30 1.864,06 0,00 0,00 3.507,36 10.237,36 31/07/2023
143 233300 ALVARINDO BATISTA ANALISTA DO MP BELO HORIZONTE - COMARCA; NUCLEO APOIO TECNICO ESP COMUNICACAO 23.070,31 9.228,12 0,00 0,00 0,00 0,00 0,00 2.105,00 34.403,43 4.948,70 6.584,08 0,00 0,00 11.532,78 22.870,65 31/07/2023
144 274100 ALYSSON CARVALHO VIDAL DE LACERDA OFICIAL DO MP MANHUAÇU - COMARCA; MANHUACU-PJ-01PJ 12.343,61 3.703,08 0,00 0,00 0,00 0,00 0,00 2.105,00 18.151,69 2.348,42 2.882,06 0,00 0,00 5.230,48 12.921,21 31/07/2023
145 621000 AMANDA BASTOS ALVES ANALISTA DO MP BELO HORIZONTE - COMARCA; BH-07PJ 02 TRIBUNAL DO JURI-GAB 066PJ 11.577,56 1.157,76 0,00 0,00 0,00 0,00 0,00 2.105,00 14.840,32 982,16 2.239,33 0,00 0,00 3.221,49 11.618,83 31/07/2023
146 521700 AMANDA CRISTINA AGUIAR MACHADO OFICIAL DO MP CONGONHAS - COMARCA; CONGONHAS-PJ-01PJ 7.506,70 1.501,34 0,00 0,00 0,00 0,00 0,00 2.105,00 11.113,04 1.222,23 1.204,00 0,00 0,00 2.426,23 8.686,81 31/07/2023
147 733500 AMANDA CRISTINA GONCALVES ASSESSOR ADMINISTRATIVO I PARACATU - COMARCA; COORD REG AP COM INCL MOB SOCIAIS NOROESTE MG 0,00 0,00 4.872,71 0,00 0,00 0,00 0,00 2.105,00 6.977,71 718,08 670,06 0,00 0,00 1.388,14 5.589,57 31/07/2023
148 713900 AMANDA DE ARAUJO CARVALHO ASSESSOR PROMOTOR JUSTICA ARAÇUAÍ - COMARCA; ARACUAI-PJ-01PJ 0,00 0,00 8.810,89 0,00 0,00 0,00 0,00 2.105,00 10.915,89 876,95 1.709,37 0,00 0,00 2.586,32 8.329,57 31/07/2023
149 613400 AMANDA DE ASSIS IUNES SANTOS ANALISTA DO MP CONGONHAS - COMARCA; CONGONHAS-PJ-01PJ 11.577,56 1.157,76 0,00 0,00 0,00 0,00 0,00 2.105,00 14.840,32 1.818,60 2.117,14 0,00 0,00 3.935,74 10.904,58 31/07/2023
150 695900 AMANDA DE OLIVEIRA ASSESSOR PROCURADOR JUSTICA BELO HORIZONTE - COMARCA; PROC JUST ATUACAO TRIBUNAIS SUPERIORES-GAB004 0,00 0,00 8.810,89 0,00 0,00 0,00 0,00 2.105,00 10.915,89 876,95 1.709,37 0,00 0,00 2.586,32 8.329,57 31/07/2023
151 520800 AMANDA DE SOUZA MACHADO ANALISTA DO MP BAEPENDI - COMARCA; BAEPENDI-PJ-UNPJ 12.343,61 2.468,72 0,00 0,00 0,00 0,00 0,00 2.105,00 16.917,33 2.150,92 2.492,65 0,00 0,00 4.643,57 12.273,76 31/07/2023
152 663900 AMANDA DENISE GONCALVES DA SILVA ASSESSOR ADMINISTRATIVO I BELO HORIZONTE - COMARCA; BH-12PJ JUIZO CRIMINAL-SECRETARIA 0,00 0,00 4.872,71 0,00 0,00 0,00 0,00 2.105,00 6.977,71 718,08 670,06 0,00 0,00 1.388,14 5.589,57 31/07/2023
153 543100 AMANDA VIEIRA FREITAS BRESSANE ANALISTA DO MP VARGINHA - COMARCA; COORD REG DEF ORDEM ECON TRIB VARGINHA 12.343,61 2.468,72 0,00 0,00 0,00 0,00 0,00 2.105,00 16.917,33 2.150,92 2.596,93 0,00 0,00 4.747,85 12.169,48 31/07/2023
154 434400 AMARILIS ASSIS SIMAO CURCIO ANALISTA DO MP BELO HORIZONTE - COMARCA; DIRETORIA GESTAO COMPRAS LICITACOES 12.343,61 2.468,72 0,00 0,00 0,00 0,00 0,00 2.105,00 16.917,33 2.150,92 2.596,93 0,00 0,00 4.747,85 12.169,48 31/07/2023
155 652000 AMAURI SILVA ALVES ASSESSOR ADMINISTRATIVO III BELO HORIZONTE - COMARCA; BH-23PJ INFRACIONAL-COORD ADM INFRACIONAL 10.858,90 1.085,89 0,00 0,00 0,00 0,00 0,00 2.105,00 14.049,79 858,16 2.163,86 0,00 0,00 3.022,02 11.027,77 31/07/2023
156 58000 AMELIA GUARIZE DE CASTRO OFICIAL DO MP JUIZ DE FORA - COMARCA; JUIZ DE FORA-PJ-SECRETARIA 8.264,07 9.090,49 0,00 0,00 0,00 2.557,68 0,00 2.105,00 22.017,24 2.557,68 3.887,54 0,00 0,00 6.445,22 15.572,02 31/07/2023
157 324301 AMERICA SUELI FERREIRA DA SILVA ANALISTA DO MP UBERLÂNDIA - COMARCA; UBERLANDIA-PJ-02PJ 12.343,61 3.703,08 0,00 0,00 0,00 0,00 0,00 2.105,00 18.151,69 2.348,42 2.829,93 0,00 0,00 5.178,35 12.973,34 31/07/2023
158 273300 AMUJACY DE BRITO ASSIZ OFICIAL DO MP BELO HORIZONTE - COMARCA; BH-12PJ JUIZO CRIMINAL-SECRETARIA 12.343,61 3.703,08 0,00 0,00 0,00 0,00 0,00 2.105,00 18.151,69 2.348,42 2.673,52 0,00 0,00 5.021,94 13.129,75 31/07/2023
159 482200 ANA ALICE LOPES ACHTSCHIN ANALISTA DO MP BELO HORIZONTE - COMARCA; PROC JUST ATUACAO TRIBUNAIS SUPERIORES-GAB003 14.960,00 2.992,00 0,00 0,00 0,00 0,00 0,00 2.105,00 20.057,00 2.653,27 3.322,19 0,00 0,00 5.975,46 14.081,54 31/07/2023
160 490400 ANA AMELIA PAULINO GARCIA OFICIAL DO MP CONTAGEM - COMARCA; CONTAGEM-PJ-SECRETARIA 10.516,49 2.103,30 0,00 0,00 0,00 0,00 0,00 3.055,00 15.674,79 1.800,11 2.038,31 0,00 0,00 3.838,42 11.836,37 31/07/2023
161 714900 ANA BEATRIZ LOBATO ALVES DE CARVALHO ASSESSOR PROCURADOR JUSTICA BELO HORIZONTE - COMARCA; GABINETE DE PROCURADOR DE JUSTIÇA - SALA 414 0,00 3.524,36 8.810,89 0,00 0,00 0,00 0,00 2.105,00 14.440,25 876,95 2.678,57 0,00 0,00 3.555,52 10.884,73 31/07/2023
162 715000 ANA CARLA RODRIGUES DE SOUZA ASSESSOR PROMOTOR JUSTICA TRÊS CORACOES - COMARCA; TRES CORACOES-PJ-01PJ 0,00 0,00 8.810,89 0,00 0,00 0,00 0,00 2.105,00 10.915,89 876,95 1.709,37 0,00 0,00 2.586,32 8.329,57 31/07/2023
163 279100 ANA CAROLINA ARAUJO PEREIRA ANALISTA DO MP BELO HORIZONTE - COMARCA; DIRETORIA DE PROJETOS DE EDIFICACOES 23.070,31 6.921,09 0,00 0,00 0,00 0,00 549,84 8.103,28 38.644,52 4.579,57 6.051,16 0,00 0,00 10.630,73 28.013,79 31/07/2023
164 653300 ANA CAROLINA CYRNE DINIZ ASSESSOR ADMINISTRATIVO III BELO HORIZONTE - COMARCA; CENTRAL DE APOIO TECNICO-SETOR CONTABIL 0,00 0,00 10.858,90 0,00 0,00 0,00 0,00 2.105,00 12.963,90 876,95 2.272,58 0,00 0,00 3.149,53 9.814,37 31/07/2023
165 359400 ANA CAROLINA DE ABREU FARIA ASSESSOR ADMINISTRATIVO IV BELO HORIZONTE - COMARCA; SUPERINTENDÊNCIA DE ENGENHARIA E ARQUITETURA 0,00 0,00 14.488,22 0,00 0,00 0,00 0,00 3.055,00 17.543,22 876,95 3.218,50 0,00 0,00 4.095,45 13.447,77 31/07/2023
166 408500 ANA CAROLINA DE CASTRO CARVALHO ANALISTA DO MP BARBACENA - COMARCA; BARBACENA - SECRETARIA DAS PJS CRIMINAIS 18.130,77 3.626,15 0,00 0,00 0,00 0,00 0,00 3.055,00 24.811,92 3.262,06 4.201,13 0,00 0,00 7.463,19 17.348,73 31/07/2023
167 688000 ANA CAROLINA DE OLIVEIRA PINTO ASSESSOR PROCURADOR JUSTICA BELO HORIZONTE - COMARCA; GABINETE DE PROCURADOR DE JUSTIÇA - SALA 1005 0,00 0,00 8.810,89 0,00 0,00 0,00 0,00 2.105,00 10.915,89 876,95 1.709,37 0,00 0,00 2.586,32 8.329,57 31/07/2023
168 420200 ANA CAROLINA FERNANDES SILVA ANALISTA DO MP BELO HORIZONTE - COMARCA; GABINETE DE PROCURADOR DE JUSTIÇA - SALA 704 17.559,01 3.511,80 0,00 0,00 0,00 0,00 0,00 2.105,00 23.175,81 3.152,28 4.042,64 0,00 0,00 7.194,92 15.980,89 31/07/2023
169 522100 ANA CAROLINA FERNANDINO VIDAL PEREIRA SANTOS OFICIAL DO MP BELO HORIZONTE - COMARCA; SECRETARIA DO PROCON-MG 9.699,77 1.939,95 0,00 0,00 0,00 0,00 85,36 3.036,18 14.761,26 982,16 1.960,64 0,00 0,00 2.942,80 11.818,46 31/07/2023
170 716001 ANA CAROLINA FIGUEIREDO SILVA ASSESSOR ADMINISTRATIVO II BELO HORIZONTE - COMARCA; PROC JUST ATUACAO TRIBUNAIS SUPERIORES 0,00 0,00 6.255,58 0,00 0,00 0,00 0,00 1.900,45 8.156,03 876,95 950,41 0,00 0,00 1.827,36 6.328,67 31/07/2023
171 502400 ANA CAROLINA GONCALVES FERNANDES ANALISTA DO MP IPATINGA - COMARCA; IPATINGA-PJ-01PJ 12.343,61 2.468,72 0,00 0,00 0,00 0,00 0,00 4.005,00 18.817,33 982,16 2.767,68 0,00 0,00 3.749,84 15.067,49 31/07/2023
172 529900 ANA CAROLINA GONCALVES PECANHA CHEQUER ANALISTA DO MP MANHUAÇU - COMARCA; MANHUACU-PJ-04PJ 12.343,61 2.468,72 0,00 0,00 0,00 0,00 0,00 4.005,00 18.817,33 2.150,92 2.596,93 0,00 0,00 4.747,85 14.069,48 31/07/2023
173 431900 ANA CAROLINA MOTTA GUATIMOSIM ANALISTA DO MP BELO HORIZONTE - COMARCA; ASSESSORIA JURIDICO-ADMINISTRATIVA 17.559,01 3.511,80 0,00 0,00 0,00 0,00 0,00 3.055,00 24.125,81 3.152,28 4.042,64 0,00 0,00 7.194,92 16.930,89 31/07/2023
174 490600 ANA CAROLINA XAVIER GODOY ANALISTA DO MP BELO HORIZONTE - COMARCA; BH-18PJ DIREITOS HUMANOS-SECRETARIA 12.343,61 2.468,72 0,00 0,00 0,00 0,00 0,00 4.005,00 18.817,33 2.150,92 2.492,65 0,00 0,00 4.643,57 14.173,76 31/07/2023
175 600300 ANA CAROLINE PEREIRA DINIZ ANALISTA DO MP BELO HORIZONTE - COMARCA; PROC JUST ESP ACOES COMP ORIG CRIMINAL-SEC 12.343,61 1.234,36 0,00 0,00 0,00 0,00 0,00 3.055,00 16.632,97 1.953,42 2.311,79 0,00 0,00 4.265,21 12.367,76 31/07/2023
176 615800 ANA CAROLINE PEREIRA OLIVEIRA OFICIAL DO MP ALFENAS - COMARCA; ALFENAS-PJ-06PJ 7.506,70 750,67 0,00 0,00 0,00 0,00 0,00 2.105,00 10.362,37 1.102,13 1.082,73 0,00 0,00 2.184,86 8.177,51 31/07/2023
177 324800 ANA CECILIA MENDES DA SILVA OFICIAL DO MP OURO FINO - COMARCA; OURO FINO-PJ-01PJ 12.343,61 4.937,44 0,00 0,00 0,00 0,00 0,00 2.105,00 19.386,05 2.545,92 3.115,06 0,00 0,00 5.660,98 13.725,07 31/07/2023
178 736000 ANA CLARA FERREIRA AMARAL ASSESSOR ADMINISTRATIVO I BELO HORIZONTE - COMARCA; PROCURADOR-GERAL DE JUSTICA- GABINETE 0,00 0,00 4.872,71 0,00 0,00 0,00 0,00 2.105,00 6.977,71 718,08 670,06 0,00 0,00 1.388,14 5.589,57 31/07/2023
179 704100 ANA CLARA MARTINS ALBUQUERQUE ASSESSOR ADMINISTRATIVO I BELO HORIZONTE - COMARCA; CAO-CRIANCAS E ADOLESCENTES-ASS TECNICA 0,00 0,00 4.872,71 0,00 0,00 0,00 0,00 2.105,00 6.977,71 718,08 670,06 0,00 0,00 1.388,14 5.589,57 31/07/2023
180 698700 ANA CLARA SANTOS ALMEIDA ASSESSOR PROMOTOR JUSTICA SABINÓPOLIS - COMARCA; SABINOPOLIS-PJ-UNPJ 0,00 0,00 8.810,89 0,00 0,00 0,00 0,00 2.105,00 10.915,89 876,95 1.709,37 0,00 0,00 2.586,32 8.329,57 31/07/2023
181 441300 ANA CLAUDIA ALKIMIM MIRANDA BOMTEMPO ANALISTA DO MP MONTES CLAROS - COMARCA; MONTES CLAROS-PJ-11PJ 17.559,01 3.511,80 0,00 0,00 0,00 0,00 0,00 2.105,00 23.175,81 3.152,28 3.938,36 0,00 0,00 7.090,64 16.085,17 31/07/2023
182 642500 ANA CLAUDIA DA COSTA NAVES OFICIAL DO MP MONTE CARMELO - COMARCA; MONTE CARMELO-PJ-02PJ 6.097,80 609,78 0,00 0,00 0,00 0,00 0,00 3.055,00 9.762,58 858,16 723,63 0,00 0,00 1.581,79 8.180,79 31/07/2023
183 716800 ANA CLAUDIA DOURADO MENDES ASSESSOR PROMOTOR JUSTICA ARAÇUAÍ - COMARCA; ARACUAI-PJ-02PJ 0,00 0,00 8.810,89 0,00 0,00 0,00 0,00 2.105,00 10.915,89 876,95 1.709,37 0,00 0,00 2.586,32 8.329,57 31/07/2023
184 604900 ANA CLAUDIA OLIVEIRA DE MIRANDA OFICIAL DO MP PONTE NOVA - COMARCA; PONTE NOVA-PJ-04PJ 7.506,70 750,67 0,00 0,00 0,00 0,00 0,00 2.105,00 10.362,37 1.102,13 1.030,59 0,00 0,00 2.132,72 8.229,65 31/07/2023
185 379300 ANA CRISTINA ALVES FLAVIO ANALISTA DO MP SÃO GOTARDO - COMARCA; SAO GOTARDO-PJ-01PJ 18.720,84 5.616,25 0,00 0,00 0,00 0,00 0,00 3.055,00 27.392,09 3.674,88 4.745,01 0,00 0,00 8.419,89 18.972,20 31/07/2023
186 461200 ANA CRISTINA ALVES PASCHOAL ANALISTA DO MP BELO HORIZONTE - COMARCA; BH-07PJ 03 TRIBUNAL DO JURI-GAB 064PJ 12.343,61 2.468,72 0,00 0,00 4.937,44 0,00 543,12 8.029,93 28.322,82 2.150,92 3.902,59 0,00 0,00 6.053,51 22.269,31 31/07/2023
187 514100 ANA CRISTINA ARAUJO ASSUNCAO ANALISTA DO MP BELO HORIZONTE - COMARCA; ASSESS JUR DO CONS SUPERIOR DO MINISTERIO PUB 12.343,61 3.184,65 0,00 0,00 0,00 0,00 0,00 3.055,00 18.583,26 2.265,47 2.710,17 0,00 0,00 4.975,64 13.607,62 31/07/2023
188 113401 ANA CRISTINA BRAGA ALBUQUERQUE ASSESSOR ADM. ESPECIAL BELO HORIZONTE - COMARCA; DIRETORIA-GERAL 0,00 0,00 28.013,39 0,00 0,00 0,00 410,86 5.982,14 34.406,39 876,95 6.990,06 0,00 0,00 7.867,01 26.539,38 31/07/2023
189 233800 ANA CRISTINA BRAGA SOARES OFICIAL DO MP BELO HORIZONTE - COMARCA; DIRETORIA DE CONTABILIDADE 14.960,00 5.984,00 0,00 0,00 0,00 0,00 0,00 2.105,00 23.049,00 3.131,99 3.909,07 0,00 0,00 7.041,06 16.007,94 31/07/2023
190 186400 ANA CRISTINA DE AZEVEDO LOPES OFICIAL DO MP UBÁ - COMARCA; UBA-PJ-01PJ 20.533,67 8.213,47 0,00 0,00 0,00 0,00 0,00 2.105,00 30.852,14 4.380,49 5.815,87 0,00 0,00 10.196,36 20.655,78 31/07/2023
191 693000 ANA CRISTINA DE MELO SILVEIRA ASSESSOR PROCURADOR JUSTICA BELO HORIZONTE - COMARCA; COORD DE CONTROLE CONSTITUCIONALIDADE 0,00 0,00 8.810,89 0,00 0,00 0,00 96,92 4.112,31 13.020,12 876,95 1.709,37 0,00 0,00 2.586,32 10.433,80 31/07/2023
192 465100 ANA CRISTINA DE OLIVEIRA GUIMARAES ANALISTA DO MP ITAJUBA - COMARCA; ITAJUBA-PJ-05PJ 12.343,61 2.468,72 0,00 0,00 0,00 0,00 0,00 3.055,00 17.867,33 2.150,92 2.492,65 0,00 0,00 4.643,57 13.223,76 31/07/2023
193 500600 ANA CRISTINA LATADO SUDARIO ANALISTA DO MP UBERLÂNDIA - COMARCA; UBERLANDIA-PJ-09PJ 12.343,61 2.468,72 0,00 0,00 0,00 0,00 108,62 3.289,99 18.210,94 2.150,92 2.596,93 0,00 0,00 4.747,85 13.463,09 31/07/2023
194 331400 ANA CRISTINA RIBEIRO ALVES OFICIAL DO MP BAMBUÍ - COMARCA; BAMBUI-PJ-UNPJ 12.343,61 3.703,08 0,00 0,00 0,00 0,00 0,00 2.105,00 18.151,69 2.348,42 2.829,93 0,00 0,00 5.178,35 12.973,34 31/07/2023
195 249300 ANA ELOINA MARTINS OFICIAL DO MP BETIM - COMARCA; BETIM-PJ-02PJ 17.559,01 8.779,51 0,00 0,00 0,00 0,00 0,00 2.105,00 28.443,52 3.995,11 5.259,48 0,00 0,00 9.254,59 19.188,93 31/07/2023
196 257400 ANA FLAVIA CAMBRAIA ANALISTA DO MP BELO HORIZONTE - COMARCA; BH-19PJ SAUDE-SECRETARIA 150PJ 23.070,31 9.228,12 0,00 0,00 0,00 0,00 473,71 7.272,75 40.044,89 4.948,70 6.584,08 0,00 0,00 11.532,78 28.512,11 31/07/2023
197 248201 ANA FLAVIA DE MORAIS SOUZA ANALISTA DO MP DIVINÓPOLIS - COMARCA; DIVINOPOLIS-PJ-01PJ 14.960,00 5.984,00 0,00 0,00 0,00 0,00 0,00 2.105,00 23.049,00 3.131,99 3.909,07 0,00 0,00 7.041,06 16.007,94 31/07/2023
198 621100 ANA FLAVIA DINIZ TEODORO OFICIAL DO MP SANTA LUZIA - COMARCA; SANTA LUZIA-PJ-06PJ 7.506,70 750,67 0,00 0,00 0,00 0,00 0,00 2.105,00 10.362,37 1.102,13 1.082,73 0,00 0,00 2.184,86 8.177,51 31/07/2023
199 238600 ANA FLAVIA FRANCO OFICIAL DO MP BELO HORIZONTE - COMARCA; DIRETORIA DE PESSOAL ADMINISTRATIVO - DPAD 18.130,77 7.252,31 0,00 0,00 0,00 0,00 0,00 2.105,00 27.488,08 3.842,24 5.038,77 0,00 0,00 8.881,01 18.607,07 31/07/2023
200 402900 ANA FLAVIA PORTES DE CARVALHO ANALISTA DO MP BELO HORIZONTE - COMARCA; DIRET DE PLANOS PROJETOS E PROGRAMAS INST 18.720,84 3.744,17 0,00 0,00 0,00 0,00 0,00 2.105,00 24.570,01 3.375,35 4.312,56 0,00 0,00 7.687,91 16.882,10 31/07/2023
201 382700 ANA KARENINA SALDANHA GONTIJO ANALISTA DO MP BELO HORIZONTE - COMARCA; ASSESS TECNICO-JUR JUNTO AS PROC. DE JUST 18.999,41 5.699,82 0,00 0,00 0,00 0,00 543,38 8.032,82 33.275,43 3.732,83 4.880,80 0,00 0,00 8.613,63 24.661,80 31/07/2023
202 620500 ANA KARINE DE ANDRADE OLIVEIRA ANALISTA DO MP RIBEIRÃO DAS NEVES - COMARCA; RIBEIRAO NEVES-SEC PJ EXECUCAO PENAL 10.516,49 1.051,65 0,00 0,00 0,00 0,00 0,00 2.105,00 13.673,14 1.631,85 1.847,52 0,00 0,00 3.479,37 10.193,77 31/07/2023
203 462200 ANA LUCIA ANDRADE TOMICH OTTONI ANALISTA DO MP TEÓFILO OTONI - COMARCA; TEOFILO OTONI-PJ-07PJ 12.343,61 2.468,72 0,00 0,00 0,00 0,00 0,00 3.055,00 17.867,33 2.150,92 2.492,65 0,00 0,00 4.643,57 13.223,76 31/07/2023
204 504100 ANA LUCIA CATAO DE CARVALHO OFICIAL DO MP BELO HORIZONTE - COMARCA; DIR RELACOES INSTITUCIONAIS 10.516,49 2.103,30 4.020,58 0,00 0,00 0,00 0,00 2.105,00 18.745,37 1.800,11 3.143,97 0,00 0,00 4.944,08 13.801,29 31/07/2023
205 274700 ANA LUCIA DE ALENCAR BRAGATO OFICIAL DO MP UBERABA - COMARCA; UBERABA-PJ-07PJ 12.343,61 3.703,08 0,00 0,00 0,00 0,00 0,00 2.105,00 18.151,69 2.348,42 2.882,06 0,00 0,00 5.230,48 12.921,21 31/07/2023
206 509400 ANA LUCIA DORNELAS MALLOSTO ANALISTA DO MP JUIZ DE FORA - COMARCA; JUIZ DE FORA-PJ-25PJ 12.343,61 2.468,72 0,00 0,00 0,00 0,00 0,00 2.105,00 16.917,33 2.150,92 2.544,79 0,00 0,00 4.695,71 12.221,62 31/07/2023
207 302600 ANA LUCIA LOPES SANTOS OFICIAL DO MP BELO HORIZONTE - COMARCA; DIVISÃO DE FISCALIZAÇÃO DAS RELAÇÕES DE CONSU 12.343,61 3.703,08 0,00 0,00 0,00 0,00 1.771,66 2.105,00 19.923,35 2.348,42 3.317,13 0,00 0,00 5.665,55 14.257,80 31/07/2023
208 716700 ANA LUISA DE LANA COELHO ASSESSOR PROCURADOR JUSTICA BELO HORIZONTE - COMARCA; GABINETE DE PROCURADOR DE JUSTIÇA - SALA 715 0,00 0,00 8.810,89 0,00 0,00 0,00 0,00 2.105,00 10.915,89 876,95 1.709,37 0,00 0,00 2.586,32 8.329,57 31/07/2023
209 702000 ANA LUISA DE OLIVEIRA RIBEIRO ASSESSOR PROCURADOR JUSTICA BELO HORIZONTE - COMARCA; ASSESS TECNICO-JUR JUNTO AS PROC. DE JUST 0,00 0,00 8.810,89 0,00 0,00 0,00 0,00 2.105,00 10.915,89 876,95 1.709,37 0,00 0,00 2.586,32 8.329,57 31/07/2023
210 493400 ANA LUISA NOGUEIRA MOREIRA ANALISTA DO MP BELO HORIZONTE - COMARCA; BH-19PJ SAUDE-SECRETARIA 130PJ 12.343,61 2.468,72 0,00 0,00 0,00 0,00 0,00 2.105,00 16.917,33 2.150,92 2.596,93 0,00 0,00 4.747,85 12.169,48 31/07/2023
211 389300 ANA LUISA REUTER LIMA ANALISTA DO MP BELO HORIZONTE - COMARCA; DIRETORIA DE SISTEMAS DE INFORMACAO 18.720,84 5.616,25 5.538,92 0,00 0,00 0,00 0,00 2.105,00 31.981,01 3.674,88 6.320,35 0,00 0,00 9.995,23 21.985,78 31/07/2023
212 480600 ANA LUIZA FERNANDES FRAGA E GRECO COORDENADOR I BELO HORIZONTE - COMARCA; OUVIDORIA DO MPMG 16.469,17 3.293,83 0,00 0,00 0,00 0,00 0,00 2.105,00 21.868,00 1.643,30 4.097,96 0,00 0,00 5.741,26 16.126,74 31/07/2023
213 726800 ANA LUIZA GOMES PEREIRA ASSESSOR ADMINISTRATIVO I BELO HORIZONTE - COMARCA; OUVIDORIA DO MPMG 0,00 0,00 4.872,71 0,00 0,00 0,00 0,00 2.105,00 6.977,71 876,95 626,37 0,00 0,00 1.503,32 5.474,39 31/07/2023
214 733600 ANA LUIZA MACHADO RODRIGUES ASSESSOR PROMOTOR JUSTICA CARMO DA MATA - COMARCA; CARMO DA MATA-PJ-UNPJ 0,00 0,00 8.810,89 0,00 0,00 0,00 0,00 2.105,00 10.915,89 876,95 1.709,37 0,00 0,00 2.586,32 8.329,57 31/07/2023
215 517800 ANA LUIZA MAGALHAES CIRINO PIOTO DE MELO OFICIAL DO MP BELO HORIZONTE - COMARCA; DIVISAO DE MATERIAIS 6.818,83 681,88 0,00 0,00 0,00 0,00 0,00 4.005,00 11.505,71 981,10 907,93 0,00 0,00 1.889,03 9.616,68 31/07/2023
216 481400 ANA MARCIA CANDIDA FERREIRA OFICIAL DO MP BRUMADINHO - COMARCA; BRUMADINHO-PJ-02PJ 7.506,70 1.501,34 0,00 0,00 0,00 0,00 0,00 2.105,00 11.113,04 1.222,23 1.256,14 0,00 0,00 2.478,37 8.634,67 31/07/2023
217 643100 ANA MARIA LOPES MIRANDA ANALISTA DO MP BELO HORIZONTE - COMARCA; CAO-FUNDACOES 10.341,72 1.034,17 0,00 0,00 0,00 0,00 0,00 3.055,00 14.430,89 982,16 1.813,74 0,00 0,00 2.795,90 11.634,99 31/07/2023
218 556400 ANA MARIA OLIVEIRA SOUZA OFICIAL DO MP ITAPECERICA - COMARCA; ITAPECERICA-PJ-UNPJ 8.003,54 1.600,71 0,00 0,00 0,00 0,00 1.131,96 5.722,60 16.458,81 1.445,68 1.578,74 0,00 0,00 3.024,42 13.434,39 31/07/2023
219 409600 ANA OLIVIA FARIA ROSENBURG ANALISTA DO MP BELO HORIZONTE - COMARCA; DIRETORIA DO COLEGIO E DA CAMARA DE PJ 18.130,77 7.252,31 0,00 0,00 0,00 0,00 0,00 2.105,00 27.488,08 3.842,24 5.038,77 0,00 0,00 8.881,01 18.607,07 31/07/2023
220 461500 ANA PAULA ALVES CARVALHO ANALISTA DO MP UBERLÂNDIA - COMARCA; UBERLANDIA-PJ-25PJ 13.160,57 2.632,11 0,00 0,00 0,00 0,00 0,00 3.055,00 18.847,68 2.307,78 2.719,11 0,00 0,00 5.026,89 13.820,79 31/07/2023
221 523200 ANA PAULA ALVES DA SILVA OFICIAL DO MP GOVERNADOR VALADARES - COMARCA; GOVERNADOR VALADARES-PJ-10PJ 9.699,77 1.939,95 0,00 0,00 0,00 0,00 0,00 5.905,00 17.544,72 982,16 1.856,37 0,00 0,00 2.838,53 14.706,19 31/07/2023
222 381200 ANA PAULA BARROS PEREIRA RIGHI ANALISTA DO MP BELO HORIZONTE - COMARCA; PROC JUST ATUACAO TRIBUNAIS SUPERIORES-GAB003 18.720,84 5.616,25 0,00 0,00 0,00 0,00 0,00 3.055,00 27.392,09 982,16 5.138,40 0,00 0,00 6.120,56 21.271,53 31/07/2023
223 696400 ANA PAULA CARVALHO SILVA ASSESSOR PROMOTOR JUSTICA PERDÕES - COMARCA; PERDOES-PJ-UNPJ 0,00 0,00 8.810,89 0,00 0,00 0,00 0,00 3.055,00 11.865,89 876,95 1.657,24 0,00 0,00 2.534,19 9.331,70 31/07/2023
224 700900 ANA PAULA CRAVO SALOME ASSESSOR ADMINISTRATIVO I BELO HORIZONTE - COMARCA; PROCURADOR-GERAL DE JUSTIÇA 0,00 0,00 4.872,71 0,00 0,00 0,00 0,00 2.105,00 6.977,71 718,08 670,06 0,00 0,00 1.388,14 5.589,57 31/07/2023
225 227200 ANA PAULA DA SILVA CAMPOLINA ANALISTA DO MP BELO HORIZONTE - COMARCA; DIRETORIA DE ORCAMENTO-DIOR/SPC 23.070,31 11.535,16 0,00 0,00 0,00 0,00 126,89 3.489,22 38.221,58 5.317,82 7.169,14 0,00 0,00 12.486,96 25.734,62 31/07/2023
226 278500 ANA PAULA DIAS CAPANEMA OFICIAL DO MP BELO HORIZONTE - COMARCA; DIRETORIA DE SEGURANCA 13.160,57 3.948,17 0,00 0,00 0,00 0,00 0,00 2.105,00 19.213,74 2.518,35 3.127,40 0,00 0,00 5.645,75 13.567,99 31/07/2023
227 327300 ANA PAULA GARCIA MAXIMO OFICIAL DO MP UNAÍ - COMARCA; UNAI-PJ-01PJ 15.447,01 7.723,51 0,00 0,00 0,00 0,00 0,00 2.105,00 25.275,52 3.488,23 4.371,26 0,00 0,00 7.859,49 17.416,03 31/07/2023
228 738700 ANA PAULA GOMES ANTUNES ASSESSOR PROMOTOR JUSTICA CORAÇÃO DE JESUS - COMARCA; CORACAO DE JESUS-PJ-UNPJ 0,00 0,00 8.810,89 0,00 0,00 0,00 0,00 2.105,00 10.915,89 876,95 1.709,37 0,00 0,00 2.586,32 8.329,57 31/07/2023
229 270000 ANA PAULA GOULART CRUZ DE MAGALHAES ANALISTA DO MP BELO HORIZONTE - COMARCA; ASSESSORIA ESPECIAL DO PGJ 23.070,31 6.921,09 0,00 0,00 0,00 0,00 0,00 2.105,00 32.096,40 4.579,57 6.103,29 0,00 0,00 10.682,86 21.413,54 31/07/2023
230 262100 ANA PAULA KOMATSUZAKI ABIJAUDI ANALISTA DO MP BELO HORIZONTE - COMARCA; BH-17PJ PATRIMONIO PUBLICO-SECRETARIA 23.070,31 11.535,16 0,00 0,00 0,00 0,00 0,00 2.105,00 36.710,47 5.317,82 7.064,87 0,00 0,00 12.382,69 24.327,78 31/07/2023
231 278900 ANA PAULA MOREIRA GURGEL ANALISTA DO MP BELO HORIZONTE - COMARCA; ASSESSORIA JURIDICO-ADMINISTRATIVA 23.070,31 11.535,16 8.404,02 0,00 0,00 0,00 275,66 5.112,20 48.397,35 5.317,82 7.989,88 5.419,53 0,00 18.727,23 29.670,12 31/07/2023
232 745500 ANA PAULA OLIVEIRA MENDES OFICIAL DO MP BELO HORIZONTE - COMARCA; SUPER DE GESTAO DE PESSOAS-LOTACAO TEMPORARIA 3.656,20 0,00 0,00 0,00 0,00 0,00 0,00 1.832,27 5.488,47 385,20 98,83 0,00 0,00 484,03 5.004,44 31/07/2023
233 425701 ANA PAULA ROCHA ANALISTA DO MP BELO HORIZONTE - COMARCA; ASSESSORIA DE COMUNICACAO INTEGRADA 12.343,61 2.468,72 0,00 0,00 0,00 0,00 0,00 3.055,00 17.867,33 2.150,92 2.596,93 0,00 0,00 4.747,85 13.119,48 31/07/2023
234 395601 ANA PAULA SALGE OLIVEIRA ANALISTA DO MP UBERABA - COMARCA; UBERABA-PJ-15PJ 12.343,61 4.937,44 0,00 0,00 0,00 0,00 0,00 2.105,00 19.386,05 2.545,92 3.167,20 0,00 0,00 5.713,12 13.672,93 31/07/2023
235 473200 ANA PAULA SCOTTON BRASIL ANALISTA DO MP JUIZ DE FORA - COMARCA; JUIZ DE FORA-PJ-09PJ 12.343,61 2.468,72 0,00 0,00 0,00 0,00 0,00 2.105,00 16.917,33 2.150,92 2.596,93 0,00 0,00 4.747,85 12.169,48 31/07/2023
236 633600 ANA PAULA SILVA FERNANDES OFICIAL DO MP CATAGUASES - COMARCA; CATAGUASES-PJ-04PJ 7.270,07 727,01 0,00 0,00 0,00 0,00 0,00 2.105,00 10.102,08 1.060,48 1.022,61 0,00 0,00 2.083,09 8.018,99 31/07/2023
237 470900 ANA PAULA VALADARES ANALISTA DO MP PITANGUI - COMARCA; PITANGUI-PJ-01PJ 12.343,61 2.468,72 0,00 0,00 0,00 0,00 0,00 2.105,00 16.917,33 2.150,92 2.492,65 0,00 0,00 4.643,57 12.273,76 31/07/2023
238 447000 ANA PAULA VALENTIM DE ARAUJO ANALISTA DO MP BELO HORIZONTE - COMARCA; PROC JUST ESP ACOES COMP ORIG CRIMINAL-ASSESS 13.588,97 2.717,79 0,00 0,00 0,00 0,00 0,00 2.105,00 18.411,76 2.390,03 2.942,14 0,00 0,00 5.332,17 13.079,59 31/07/2023
239 604200 ANA PAULA VIANA E SILVA OFICIAL DO MP BELO HORIZONTE - COMARCA; BH-17PJ PATRIMONIO PUBLICO-SECRETARIA 7.506,70 750,67 0,00 0,00 0,00 0,00 0,00 2.105,00 10.362,37 1.102,13 1.082,73 0,00 0,00 2.184,86 8.177,51 31/07/2023
240 505400 ANA PAULA VIEIRA SOUTO OFICIAL DO MP ALMENARA - COMARCA; ALMENARA-PJ-01PJ 7.506,70 3.002,68 0,00 0,00 0,00 0,00 0,00 2.105,00 12.614,38 1.462,45 1.550,81 0,00 0,00 3.013,26 9.601,12 31/07/2023
241 280200 ANA RACHEL BRANDAO LADEIRA ROLAND ANALISTA DO MP BELO HORIZONTE - COMARCA; SUPERINTENDENCIA GESTÃO DE PESSOAS 23.070,31 6.921,09 8.404,02 0,00 0,00 0,00 0,00 2.105,00 40.500,42 4.579,57 8.192,90 805,46 0,00 13.577,93 26.922,49 31/07/2023
242 601200 ANA REGINA RIBEIRO ANALISTA DO MP BELO HORIZONTE - COMARCA; DIV FISCAL ADM CONT TERCEIRIZACAO 12.343,61 1.234,36 4.940,75 0,00 0,00 0,00 0,00 2.105,00 20.623,72 982,16 3.710,49 0,00 0,00 4.692,65 15.931,07 31/07/2023
243 384700 ANA RODRIGUES PEREIRA MARRA ANALISTA DO MP COROMANDEL - COMARCA; COROMANDEL-PJ-01PJ 12.343,61 3.703,08 0,00 0,00 0,00 0,00 0,00 2.105,00 18.151,69 2.348,42 2.777,79 0,00 0,00 5.126,21 13.025,48 31/07/2023
244 232700 ANA SILVIA SEMBLANO NAKAMURA OFICIAL DO MP BELO HORIZONTE - COMARCA; CENT DE APOIO TEC-SETOR DEF,IDOSO E INFANC 12.343,61 4.937,44 4.020,58 0,00 0,00 0,00 0,00 2.105,00 23.406,63 2.545,92 4.272,86 0,00 0,00 6.818,78 16.587,85 31/07/2023
245 602100 ANACLETO FRANCISCO MARCIER PIMENTA OFICIAL DO MP SÃO JOÃO DEL REI - COMARCA; SAO JOAO DEL REI-PJ-03PJ 7.506,70 750,67 0,00 0,00 0,00 0,00 0,00 3.055,00 11.312,37 1.102,13 822,04 0,00 0,00 1.924,17 9.388,20 31/07/2023
246 310400 ANADEJE DO CARMO DINIZ ARAUJO OFICIAL DO MP BELO HORIZONTE - COMARCA; DIRETORIA DE PESSOAL ADMINISTRATIVO - DPAD 12.343,61 3.703,08 0,00 0,00 0,00 0,00 0,00 2.105,00 18.151,69 2.348,42 2.882,06 0,00 0,00 5.230,48 12.921,21 31/07/2023
247 337000 ANAILDES MARIA MENDES OFICIAL DO MP JANAÚBA - COMARCA; JANAUBA-PJ-02PJ 12.343,61 3.703,08 0,00 0,00 0,00 0,00 0,00 3.055,00 19.101,69 2.348,42 2.882,06 0,00 0,00 5.230,48 13.871,21 31/07/2023
248 377400 ANDEIRSON DA MATTA BARBOSA ANALISTA DO MP POUSO ALEGRE - COMARCA; POUSO ALEGRE-PJ-01PJ 12.343,61 3.703,08 0,00 0,00 0,00 0,00 0,00 3.055,00 19.101,69 2.348,42 2.882,06 0,00 0,00 5.230,48 13.871,21 31/07/2023
249 317400 ANDERSON DA SILVA BICALHO OFICIAL DO MP CONTAGEM - COMARCA; CONTAGEM-PJ-SECRETARIA 11.954,43 3.586,33 0,00 0,00 0,00 0,00 0,00 2.105,00 17.645,76 2.267,47 2.608,78 0,00 0,00 4.876,25 12.769,51 31/07/2023
250 506900 ANDERSON DE SOUZA DAMIANI ANALISTA DO MP BELO HORIZONTE - COMARCA; DIRETORIA DE PAGAMENTO DE PESSOAL-DPAG 12.343,61 4.937,44 5.538,92 0,00 0,00 0,00 0,00 2.105,00 24.924,97 2.545,92 4.638,27 0,00 0,00 7.184,19 17.740,78 31/07/2023
251 410000 ANDERSON DE SOUZA NETO ASSESSOR ADMINISTRATIVO II BELO HORIZONTE - COMARCA; DIRETORIA DE ADMINISTRACAO FINANCEIRA 0,00 0,00 7.506,70 0,00 0,00 0,00 0,00 2.105,00 9.611,70 876,95 1.350,72 0,00 0,00 2.227,67 7.384,03 31/07/2023
252 181900 ANDERSON FLAVIO DE OLIVEIRA OFICIAL DO MP ITAGUARA - COMARCA; ITAGUARA-PJ-SECRETARIA 18.130,77 7.252,31 0,00 0,00 0,00 0,00 0,00 2.105,00 27.488,08 3.842,24 5.038,77 0,00 0,00 8.881,01 18.607,07 31/07/2023
253 333200 ANDERSON JOSE DE FREITAS OFICIAL DO MP IPATINGA - COMARCA; IPATINGA-PJ-04PJ 12.343,61 3.703,08 0,00 0,00 0,00 0,00 1.771,66 3.055,00 20.873,35 2.348,42 3.212,86 0,00 0,00 5.561,28 15.312,07 31/07/2023
254 699400 ANDERSON LUIZ CABRAL ASSESSOR PROMOTOR JUSTICA ALÉM PARAÍBA - COMARCA; ALEM PARAIBA-PJ-03PJ 0,00 0,00 8.810,89 0,00 0,00 0,00 0,00 2.105,00 10.915,89 876,95 1.709,37 0,00 0,00 2.586,32 8.329,57 31/07/2023
255 462100 ANDERSON LUIZ GUIMARAES CARDOSO ANALISTA DO MP BARBACENA - COMARCA; BARBACENA-PJ-02PJ 14.960,00 3.889,60 0,00 0,00 0,00 0,00 0,00 2.105,00 20.954,60 2.796,88 3.529,54 0,00 0,00 6.326,42 14.628,18 31/07/2023
256 429700 ANDERSON MELO DE SOUZA COORDENADOR II BELO HORIZONTE - COMARCA; DIRET DE ESTAGIOS E CONVENIOS ACADEMICOS 20.533,67 4.106,73 0,00 0,00 0,00 0,00 0,00 2.105,00 26.745,40 1.222,23 5.555,04 0,00 0,00 6.777,27 19.968,13 31/07/2023
257 545600 ANDERSON MENDES PROCOPIO FERREIRA ANALISTA DO MP BELO HORIZONTE - COMARCA; BH-12PJ JUIZO CRIMINAL-GAB 089PJ 12.343,61 2.468,72 0,00 0,00 0,00 0,00 0,00 2.105,00 16.917,33 2.150,92 2.596,93 0,00 0,00 4.747,85 12.169,48 31/07/2023
258 519900 ANDERSON MOREIRA DOEHLER ANALISTA DO MP TEÓFILO OTONI - COMARCA; COORD REG SAUDE MACRORREGIAO SANIT NORDESTE 12.343,61 4.937,44 0,00 0,00 0,00 0,00 0,00 2.105,00 19.386,05 2.545,92 3.167,20 0,00 0,00 5.713,12 13.672,93 31/07/2023
259 103000 ANDERSON TADEU DE DEUS ASSESSOR ADMINISTRATIVO II BELO HORIZONTE - COMARCA; BH-26 CRIME CONT CRIAN ADOL-SECRETARIA 0,00 6.005,36 7.506,70 0,00 0,00 0,00 0,00 6.609,02 20.121,08 876,95 3.002,20 0,00 0,00 3.879,15 16.241,93 31/07/2023
260 309200 ANDITYAS SOARES DE MOURA COSTA MATOS ANALISTA DO MP BELO HORIZONTE - COMARCA; GABINETE DE PROCURADOR DE JUSTIÇA - SALA 909 20.533,67 8.213,47 0,00 0,00 0,00 0,00 0,00 2.105,00 30.852,14 4.380,49 5.815,87 0,00 0,00 10.196,36 20.655,78 31/07/2023
261 519200 ANDRE BORJA LANA ANALISTA DO MP BELO HORIZONTE - COMARCA; DIR CONTEUDO JORNALISTICO 12.343,61 2.468,72 0,00 0,00 0,00 0,00 0,00 3.055,00 17.867,33 2.150,92 2.596,93 0,00 0,00 4.747,85 13.119,48 31/07/2023
262 637200 ANDRE FERNANDES DA CUNHA OFICIAL DO MP MORADA NOVA DE MINAS - COMARCA; MORADA NOVA DE MINAS-PJ-UNPJ 7.270,07 727,01 0,00 0,00 0,00 0,00 0,00 2.105,00 10.102,08 982,16 1.044,14 0,00 0,00 2.026,30 8.075,78 31/07/2023
263 651500 ANDRE GONCALVES MARANHAO OFICIAL DO MP ANDRADAS - COMARCA; ANDRADAS-PJ-02PJ 6.097,80 609,78 0,00 0,00 0,00 0,00 0,00 2.105,00 8.812,58 858,46 723,55 0,00 0,00 1.582,01 7.230,57 31/07/2023
264 521900 ANDRE LUIS GOMES SILVA ANALISTA DO MP FORMIGA - COMARCA; FORMIGA-PJ-02PJ 12.343,61 2.468,72 0,00 0,00 0,00 0,00 0,00 6.586,57 21.398,90 2.150,92 2.043,38 0,00 0,00 4.194,30 17.204,60 31/07/2023
265 304300 ANDRE LUIZ AVELAR ANALISTA DO MP BELO HORIZONTE - COMARCA; DIRETORIA DE REDES E BANCOS DE DADOS 10.341,72 3.102,52 0,00 0,00 0,00 0,00 0,00 2.105,00 15.549,24 1.932,03 2.228,76 0,00 0,00 4.160,79 11.388,45 31/07/2023
266 397400 ANDRE PATARO MYRRHA DE PAULA E SILVA ANALISTA DO MP BELO HORIZONTE - COMARCA; ASSESSORIA JURIDICO-ADMINISTRATIVA 18.720,84 5.616,25 0,00 0,00 0,00 0,00 0,00 3.055,00 27.392,09 3.674,88 4.797,15 0,00 0,00 8.472,03 18.920,06 31/07/2023
267 650100 ANDRE THOME VARGAS OFICIAL DO MP LEOPOLDINA - COMARCA; LEOPOLDINA-PJ-04PJ 6.603,76 660,38 0,00 0,00 0,00 0,00 0,00 2.105,00 9.369,14 944,43 852,96 0,00 0,00 1.797,39 7.571,75 31/07/2023
268 548500 ANDRE VINICIUS CARVALHO MEIRA ANALISTA DO MP JUIZ DE FORA - COMARCA; JUIZ DE FORA-PJ-24PJ 12.343,61 2.468,72 0,00 0,00 0,00 0,00 0,00 2.105,00 16.917,33 982,16 2.767,68 0,00 0,00 3.749,84 13.167,49 31/07/2023
269 297200 ANDRE WILLE ROSARIO ANALISTA DO MP BELO HORIZONTE - COMARCA; ASSESSORIA ESPECIAL DO PGJ 23.070,31 6.921,09 0,00 0,00 0,00 0,00 0,00 2.105,00 32.096,40 4.579,57 5.999,02 0,00 0,00 10.578,59 21.517,81 31/07/2023
270 423600 ANDREA COSTA GUALBERTO ALVES ANALISTA DO MP GOVERNADOR VALADARES - COMARCA; COORD REG PJ DEF EDU DIR CRIANCA ADOL RIODOCE 17.559,01 14.047,21 0,00 0,00 0,00 4.837,94 0,00 2.105,00 38.549,16 4.837,94 7.754,61 0,00 0,00 12.592,55 25.956,61 31/07/2023
271 467300 ANDREA DE CASSIA PENNA ALVERNAZ ANALISTA DO MP PONTE NOVA - COMARCA; PONTE NOVA-PJ-01PJ 12.343,61 2.468,72 0,00 0,00 0,00 0,00 543,12 8.029,93 23.385,38 2.150,92 2.544,79 0,00 0,00 4.695,71 18.689,67 31/07/2023
272 308000 ANDREA DE CASSIA SANTOS OLIVEIRA ANALISTA DO MP BELO HORIZONTE - COMARCA; COORD DE GABINETE DO PGJ 22.191,68 6.657,50 0,00 0,00 0,00 0,00 0,00 2.105,00 30.954,18 4.396,82 5.787,30 0,00 0,00 10.184,12 20.770,06 31/07/2023
273 349500 ANDREA DE OLIVEIRA LOIOLA REGIS OFICIAL DO MP IGUATAMA - COMARCA; IGUATAMA-PJ-UNPJ 12.343,61 3.703,08 0,00 0,00 5.348,90 0,00 0,00 2.105,00 23.500,59 2.348,42 4.248,74 0,00 0,00 6.597,16 16.903,43 31/07/2023
274 287900 ANDREA FERNANDES PENA MARTINS OFICIAL DO MP MONTES CLAROS - COMARCA; MONTES CLAROS-PJ-09PJ 12.343,61 3.703,08 0,00 0,00 0,00 0,00 0,00 2.105,00 18.151,69 2.348,42 2.777,79 0,00 0,00 5.126,21 13.025,48 31/07/2023
275 300800 ANDREA FERREIRA ANALISTA DO MP LAVRAS - COMARCA; LAVRAS-PJ-04PJ 21.346,53 6.403,96 0,00 0,00 0,00 0,00 0,00 2.105,00 29.855,49 4.221,03 5.585,64 0,00 0,00 9.806,67 20.048,82 31/07/2023
276 395100 ANDREA LANNA MENDES NOVAIS ANALISTA DO MP BELO HORIZONTE - COMARCA; PROMOT ESTADUAL DE DEF PATRI CULT E TUR DE MG 18.720,84 5.616,25 0,00 0,00 0,00 0,00 0,00 2.105,00 26.442,09 3.674,88 4.745,01 0,00 0,00 8.419,89 18.022,20 31/07/2023
277 67300 ANDREA LEAO MAGALHAES ROQUE ASSESSOR ADMINISTRATIVO IV BELO HORIZONTE - COMARCA; GRUPO ATUACAO ESP COMB CRIMES CIBER 0,00 11.590,57 14.488,22 0,00 0,00 0,00 0,00 2.105,00 28.183,79 876,95 6.405,91 0,00 0,00 7.282,86 20.900,93 31/07/2023
278 335700 ANDREA LOPES PEREIRA ANALISTA DO MP GOVERNADOR VALADARES - COMARCA; COORD REG DO MA DA BACIA DO RIO DOCE 22.191,68 6.657,50 0,00 0,00 0,00 0,00 0,00 2.105,00 30.954,18 4.396,82 5.839,44 0,00 0,00 10.236,26 20.717,92 31/07/2023
279 419000 ANDREIA BARBOSA DE ALMEIDA ANALISTA DO MP BELO HORIZONTE - COMARCA; CENT ESTAD COOPERACAO TECNICO-JURIDICA 17.559,01 3.511,80 0,00 0,00 0,00 0,00 0,00 2.105,00 23.175,81 3.152,28 4.042,64 0,00 0,00 7.194,92 15.980,89 31/07/2023
280 281501 ANDREIA CARLA COSTA ANALISTA DO MP UBÁ - COMARCA; UBA-PJ-02PJ 18.130,77 4.714,00 0,00 0,00 0,00 0,00 0,00 2.105,00 24.949,77 3.436,11 4.452,42 0,00 0,00 7.888,53 17.061,24 31/07/2023
281 477100 ANDREIA DE ALMEIDA RIBEIRO MELO OFICIAL DO MP CONTAGEM - COMARCA; CONTAGEM-PJ-SECRETARIA 10.516,49 3.154,95 0,00 0,00 0,00 0,00 0,00 2.105,00 15.776,44 1.968,38 2.333,38 0,00 0,00 4.301,76 11.474,68 31/07/2023
282 619000 ANDREIA FERREIRA NORONHA COORDENADOR II BELO HORIZONTE - COMARCA; DIRETORIA DE SERVICO CRIMINAL 20.533,67 2.053,37 0,00 0,00 0,00 0,00 0,00 2.105,00 24.692,04 1.102,13 5.023,39 0,00 0,00 6.125,52 18.566,52 31/07/2023
283 747000 ANDREIA FERREIRA TIAGO OFICIAL DO MP BELO HORIZONTE - COMARCA; SUPER DE GESTAO DE PESSOAS-LOTACAO TEMPORARIA 3.656,20 0,00 0,00 0,00 0,00 0,00 0,00 1.832,27 5.488,47 385,20 98,83 0,00 0,00 484,03 5.004,44 31/07/2023
284 424000 ANDREIA LUCIA COUTO ANALISTA DO MP BELO HORIZONTE - COMARCA; BH-18PJ DIREITOS HUMANOS-SECRETARIA 18.130,77 3.626,15 0,00 0,00 7.252,31 0,00 0,00 2.105,00 31.114,23 3.262,06 6.195,51 0,00 0,00 9.457,57 21.656,66 31/07/2023
285 370100 ANDREIA MARIA SILVA PINTO OFICIAL DO MP CORONEL FABRICIANO - COMARCA; CORONEL FABRICIANO-PJ-01PJ 12.343,61 3.703,08 0,00 0,00 0,00 0,00 0,00 3.055,00 19.101,69 982,16 3.081,66 0,00 0,00 4.063,82 15.037,87 31/07/2023
286 382100 ANDREIA NATALI PEREIRA DE OLIVEIRA OFICIAL DO MP PRADOS - COMARCA; PRADOS-PJ-UNPJ 12.343,61 3.703,08 0,00 0,00 0,00 0,00 0,00 2.105,00 18.151,69 2.348,42 2.882,06 0,00 0,00 5.230,48 12.921,21 31/07/2023
287 275200 ANDREIA RIBEIRO FREITAS OFICIAL DO MP VIÇOSA - COMARCA; VICOSA-PJ-04PJ 13.160,57 5.264,23 0,00 0,00 0,00 0,00 0,00 2.105,00 20.529,80 2.728,92 3.379,27 0,00 0,00 6.108,19 14.421,61 31/07/2023
288 352200 ANDREIA XAVIER PEREIRA OFICIAL DO MP CLÁUDIO - COMARCA; CLAUDIO-PJ-UNPJ 12.343,61 3.703,08 0,00 0,00 0,00 0,00 0,00 3.530,00 19.576,69 2.348,42 2.882,06 0,00 0,00 5.230,48 14.346,21 31/07/2023
289 638500 ANDRESA ALVES FEITOSA CASAGRANDE ANALISTA DO MP LAVRAS - COMARCA; COORD REG DO MA DA BACIA DO RIO GRANDE 11.212,54 1.121,25 0,00 0,00 0,00 0,00 0,00 2.105,00 14.438,79 982,16 2.236,74 0,00 0,00 3.218,90 11.219,89 31/07/2023
290 383700 ANDRESSA EDUARDO SOUZA ANALISTA DO MP OURO BRANCO - COMARCA; OURO BRANCO-PJ-SECRETARIA 18.720,84 5.616,25 0,00 0,00 0,00 0,00 0,00 2.105,00 26.442,09 3.674,88 4.797,15 0,00 0,00 8.472,03 17.970,06 31/07/2023
291 678400 ANDRESSA LUIZA SILVA LOPES ASSESSOR PROMOTOR JUSTICA CARMO DO PARANAÍBA - COMARCA; CARMO DO PARANAIBA-PJ-02PJ 0,00 0,00 8.810,89 0,00 0,00 0,00 0,00 2.105,00 10.915,89 876,95 1.709,37 0,00 0,00 2.586,32 8.329,57 31/07/2023
292 426200 ANDRESSA MENDES CASAL OFICIAL DO MP BELO HORIZONTE - COMARCA; DIR ESTRUTURA E PROCESSOS ORGANIZACIONAIS 9.699,77 1.939,95 0,00 0,00 0,00 0,00 0,00 3.055,00 14.694,72 1.643,30 1.811,92 0,00 0,00 3.455,22 11.239,50 31/07/2023
293 390100 ANDRESSA RIBEIRO PUCCI OFICIAL DO MP UBERABA - COMARCA; UBERABA-PJ-14PJ 9.393,95 1.878,79 0,00 0,00 0,00 0,00 0,00 2.105,00 13.377,74 1.584,59 1.779,28 0,00 0,00 3.363,87 10.013,87 31/07/2023
294 462500 ANDREZA APARECIDA COSTA E SILVA ANALISTA DO MP CONSELHEIRO LAFAIETE - COMARCA; CONSELHEIRO LAFAIETE-PJ-02PJ 12.343,61 2.468,72 0,00 0,00 0,00 0,00 0,00 4.005,00 18.817,33 982,16 2.767,68 0,00 0,00 3.749,84 15.067,49 31/07/2023
295 677700 ANDREZA DE LOURDES FERREIRA DE PAIVA ASSESSOR PROMOTOR JUSTICA ABRE CAMPO - COMARCA; ABRE CAMPO-PJ-01PJ 0,00 0,00 8.810,89 0,00 0,00 0,00 0,00 2.105,00 10.915,89 876,95 1.709,37 0,00 0,00 2.586,32 8.329,57 31/07/2023
296 537800 ANDREZZA LUZIA DE OLIVEIRA ALVES ANALISTA DO MP PATOS DE MINAS - COMARCA; COORD REG PJ DEF EDU DIR CRI ADO AL PAR NOROE 12.343,61 2.468,72 0,00 0,00 0,00 0,00 0,00 2.105,00 16.917,33 2.150,92 2.544,79 0,00 0,00 4.695,71 12.221,62 31/07/2023
297 491600 ANE PATRICIA RIBEIRO DUARTE ANALISTA DO MP SETE LAGOAS - COMARCA; SETE LAGOAS-PJ-11PJ 12.343,61 2.468,72 0,00 0,00 0,00 0,00 0,00 2.105,00 16.917,33 2.150,92 2.544,79 0,00 0,00 4.695,71 12.221,62 31/07/2023
298 465800 ANELISE GAMA ASSESSOR ADMINISTRATIVO III BELO HORIZONTE - COMARCA; BH-18PJ VIOLENCIA DOMESTICA-SECRETARIA 0,00 0,00 10.858,90 0,00 0,00 0,00 0,00 2.105,00 12.963,90 876,95 2.272,58 0,00 0,00 3.149,53 9.814,37 31/07/2023
299 535200 ANELIZE FERNANDA ALVES VILARINHO OFICIAL DO MP CAPINÓPOLIS - COMARCA; CAPINOPOLIS-PJ-UNPJ 7.506,70 1.501,34 0,00 0,00 0,00 0,00 0,00 3.055,00 12.063,04 1.222,23 1.256,14 0,00 0,00 2.478,37 9.584,67 31/07/2023
300 197200 ANGELA COELHO SALDANHA OFICIAL DO MP PARÁ DE MINAS - COMARCA; PARA DE MINAS-PJ-03PJ 21.346,53 10.673,27 0,00 0,00 0,00 0,00 2.134,65 2.105,00 36.259,45 5.245,66 7.064,96 0,00 0,00 12.310,62 23.948,83 31/07/2023
301 307400 ANGELA CRISTINA GONCALVES MUNIZ ANALISTA DO MP UBERLÂNDIA - COMARCA; UBERLANDIA-PJ-SEC FAMILIA 23.070,31 9.228,12 0,00 0,00 0,00 0,00 0,00 2.105,00 34.403,43 4.948,70 6.531,94 0,00 0,00 11.480,64 22.922,79 31/07/2023
302 191800 ANGELA MARIA DE OLIVEIRA OFICIAL DO MP GUARANÉSIA - COMARCA; GUARANESIA-PJ-SECRETARIA 21.346,53 17.077,22 0,00 0,00 0,00 5.795,34 477,24 7.311,24 52.007,57 5.795,34 9.452,28 833,79 0,00 16.081,41 35.926,16 31/07/2023
303 497400 ANGELA MARIA HENRIQUES ANALISTA DO MP BELO HORIZONTE - COMARCA; COORD REG BACIAS RIO VELHAS E PARAOPEBA 12.343,61 2.468,72 0,00 0,00 0,00 0,00 0,00 2.105,00 16.917,33 2.150,92 2.596,93 0,00 0,00 4.747,85 12.169,48 31/07/2023
304 260700 ANGELICA CRISTINA AZEVEDO MOREIRA MOUCO OFICIAL DO MP UBÁ - COMARCA; UBA-PJ-05PJ 17.559,01 7.023,60 0,00 0,00 0,00 0,00 0,00 2.105,00 26.687,61 3.714,17 4.853,86 0,00 0,00 8.568,03 18.119,58 31/07/2023
305 708300 ANGELICA NUNES VIEIRA DA SILVA ASSESSOR PROMOTOR JUSTICA IBIRITÉ - COMARCA; IBIRITE-PJ-02PJ 0,00 0,00 8.810,89 0,00 0,00 0,00 0,00 2.105,00 10.915,89 876,95 1.709,37 0,00 0,00 2.586,32 8.329,57 31/07/2023
306 334600 ANGELICA PANISSA DE FREITAS GALLATI OFICIAL DO MP GUAXUPÉ - COMARCA; GUAXUPE-PJ-02PJ 12.343,61 4.937,44 0,00 0,00 0,00 0,00 0,00 3.055,00 20.336,05 2.545,92 3.115,06 0,00 0,00 5.660,98 14.675,07 31/07/2023
307 521100 ANGELICA SALES MOREIRA OFICIAL DO MP BELO HORIZONTE - COMARCA; BH-02PJ FAMILIA-SECRETARIA 9.699,77 1.939,95 0,00 0,00 0,00 0,00 0,00 2.105,00 13.744,72 1.643,30 1.864,06 0,00 0,00 3.507,36 10.237,36 31/07/2023
308 466500 ANGELLO MARQUES AGRELLI ANALISTA DO MP MAR DE ESPANHA - COMARCA; MAR DE ESPANHA-PJ-UNPJ 12.343,61 2.468,72 0,00 0,00 0,00 0,00 0,00 2.105,00 16.917,33 2.150,92 2.596,93 0,00 0,00 4.747,85 12.169,48 31/07/2023
309 363300 ANGELO VERDOLIN HENRIQUES ANALISTA DO MP SETE LAGOAS - COMARCA; SETE LAGOAS-PJ-04PJ 21.346,53 8.538,61 0,00 0,00 0,00 0,00 0,00 2.105,00 31.990,14 4.562,57 6.078,75 0,00 0,00 10.641,32 21.348,82 31/07/2023
310 250900 ANISIO APARECIDO SANTOS OFICIAL DO MP BETIM - COMARCA; BETIM - SECRETARIA DAS PJS CRIMINAIS 7.506,70 3.002,68 0,00 0,00 0,00 0,00 0,00 2.105,00 12.614,38 1.462,45 932,38 0,00 0,00 2.394,83 10.219,55 31/07/2023
311 698100 ANNA CAROLINA POLICARIO BERTOLIN ASSESSOR PROCURADOR JUSTICA BELO HORIZONTE - COMARCA; PROC. JUSTICA DIR. DIFUSOS E COLETIVOS-SEC 0,00 0,00 8.810,89 0,00 0,00 0,00 0,00 2.105,00 10.915,89 876,95 1.709,37 0,00 0,00 2.586,32 8.329,57 31/07/2023
312 253400 ANNA FLAVIA LEHMAN ANALISTA DO MP BELO HORIZONTE - COMARCA; SUPRIN DE PLANEJAMENTO E COORDENACAO 23.070,31 9.228,12 8.404,02 0,00 0,00 0,00 551,32 8.119,39 49.373,16 4.948,70 7.934,97 3.112,49 0,00 15.996,16 33.377,00 31/07/2023
313 688800 ANNA LUIZA MATTOS DUARTE ASSESSOR PROCURADOR JUSTICA BELO HORIZONTE - COMARCA; GABINETE DE PROCURADOR DE JUSTICA - SALA 311 0,00 0,00 8.810,89 0,00 0,00 0,00 0,00 2.105,00 10.915,89 876,95 1.709,37 0,00 0,00 2.586,32 8.329,57 31/07/2023
314 447600 ANNGELUCE ALCANTARA DE CAMPOS OFICIAL DO MP DIVINÓPOLIS - COMARCA; DIVINOPOLIS-PJ-07PJ 10.341,72 3.102,52 0,00 0,00 0,00 0,00 0,00 2.105,00 15.549,24 1.932,03 2.280,90 0,00 0,00 4.212,93 11.336,31 31/07/2023
315 119600 ANSELMO BORGES PARREIRAS OFICIAL DO MP BONFIM - COMARCA; BONFIM-PJ-UNPJ 10.858,90 9.773,01 0,00 0,00 0,00 3.082,05 0,00 2.105,00 25.818,96 3.082,05 4.736,68 0,00 0,00 7.818,73 18.000,23 31/07/2023
316 630300 ANTONIA GOMES RAMALHO OFICIAL DO MP NOVO CRUZEIRO - COMARCA; NOVO CRUZEIRO-PJ-UNPJ 7.506,70 750,67 0,00 0,00 0,00 0,00 0,00 4.005,00 12.262,37 1.102,13 1.082,73 0,00 0,00 2.184,86 10.077,51 31/07/2023
317 401600 ANTONIO CARLOS GUEDES AROUCA ANALISTA DO MP BELO HORIZONTE - COMARCA; ASSESSORIA JURIDICO-ADMINISTRATIVA 16.469,17 3.293,83 0,00 0,00 0,00 0,00 0,00 2.105,00 21.868,00 2.943,03 3.740,53 0,00 0,00 6.683,56 15.184,44 31/07/2023
318 333900 ANTONIO GONCALVES DE SOUZA FILHO OFICIAL DO MP BELO HORIZONTE - COMARCA; DIRETORIA DE CONTABILIDADE 12.343,61 3.703,08 0,00 0,00 0,00 0,00 0,00 2.105,00 18.151,69 2.348,42 2.882,06 0,00 0,00 5.230,48 12.921,21 31/07/2023
319 176100 ANTONIO MARCELO CAMPOS CAMPANELLA OFICIAL DO MP BELO HORIZONTE - COMARCA; COORD DE GABINETE DO PGJ 21.346,53 10.673,27 0,00 0,00 0,00 0,00 0,00 2.105,00 34.124,80 4.904,12 6.571,85 0,00 0,00 11.475,97 22.648,83 31/07/2023
320 321001 ANTONIO OLINTO VIEIRA MACHADO ANALISTA DO MP BELO HORIZONTE - COMARCA; CENTRAL DE APOIO TECN-SETOR DE MEIO AMBIENTE 18.720,84 5.616,25 0,00 0,00 0,00 3.674,88 0,00 2.105,00 30.116,97 3.674,88 5.703,47 0,00 0,00 9.378,35 20.738,62 31/07/2023
321 356200 ANTONIO PAULA DA SILVA OFICIAL DO MP JUIZ DE FORA - COMARCA; JUIZ DE FORA-PJ-20PJ 11.954,43 4.781,77 0,00 0,00 0,00 0,00 0,00 2.105,00 18.841,20 2.458,74 3.041,34 0,00 0,00 5.500,08 13.341,12 31/07/2023
322 119900 ANTONIO RODRIGUES DE PINHO OFICIAL DO MP GUANHÃES - COMARCA; GUANHAES-PJ-01PJ 20.533,67 16.426,94 0,00 0,00 0,00 0,00 542,09 8.018,70 45.521,40 5.694,65 7.661,04 0,00 0,00 13.355,69 32.165,71 31/07/2023
323 373300 ANTONIO SERGIO ANANIAS OFICIAL DO MP SÃO JOÃO NEPOMUCENO - COMARCA; SAO JOAO NEPOMUCENO-PJ-01PJ 11.212,54 3.363,76 0,00 0,00 0,00 0,00 0,00 2.105,00 16.681,30 982,16 2.801,29 0,00 0,00 3.783,45 12.897,85 31/07/2023
324 608100 ANTONIO SIDINEY VIEIRA LEMOS ANALISTA DO MP PIRAPORA - COMARCA; PIRAPORA-PJ-01PJ 11.577,56 5.788,78 0,00 0,00 0,00 0,00 0,00 3.055,00 20.421,34 2.559,56 3.134,77 0,00 0,00 5.694,33 14.727,01 31/07/2023
325 374700 ANTONIO SILVA NETO OFICIAL DO MP BELO HORIZONTE - COMARCA; GAECO - SECRETARIA 12.343,61 3.703,08 0,00 0,00 0,00 0,00 0,00 3.055,00 19.101,69 2.348,42 2.882,06 0,00 0,00 5.230,48 13.871,21 31/07/2023
326 636700 ANTONIUS VITORIANO FERNANDES OFICIAL DO MP BELO HORIZONTE - COMARCA; ASSESSORIA JURIDICA DO PROCON-MG 6.603,76 660,38 0,00 0,00 0,00 0,00 0,00 2.105,00 9.369,14 944,43 852,96 0,00 0,00 1.797,39 7.571,75 31/07/2023
327 413200 ANY PEREIRA SILVA ANALISTA DO MP TRÊS PONTAS - COMARCA; TRES PONTAS-PJ-01PJ 17.559,01 3.511,80 0,00 0,00 0,00 0,00 0,00 2.105,00 23.175,81 3.152,28 4.042,64 0,00 0,00 7.194,92 15.980,89 31/07/2023
328 151401 APARECIDA DE FATIMA MENDES DE ALMEIDA ASSESSOR ADMINISTRATIVO II JUIZ DE FORA - COMARCA; JUIZ DE FORA-PJ-SECRETARIA 0,00 0,00 7.506,70 0,00 0,00 0,00 0,00 2.105,00 9.611,70 876,95 1.350,72 0,00 0,00 2.227,67 7.384,03 31/07/2023
329 329300 APARECIDA MARIA MELO DE ASSIS OFICIAL DO MP BELO HORIZONTE - COMARCA; BH-18PJ DIREITOS HUMANOS-SECRETARIA 12.343,61 3.703,08 0,00 0,00 0,00 0,00 0,00 2.105,00 18.151,69 2.348,42 2.882,06 0,00 0,00 5.230,48 12.921,21 31/07/2023
330 653000 APARECIDA ROSA DE LIMA ASSESSOR ADMINISTRATIVO III BELO HORIZONTE - COMARCA; SECRETARIA PROCESSOS DISCIPES ADMINISTRATIVOS 0,00 0,00 10.858,90 0,00 0,00 0,00 0,00 2.105,00 12.963,90 876,95 2.272,58 0,00 0,00 3.149,53 9.814,37 31/07/2023
331 354500 APARECIDA VIEIRA DE CARVALHO OFICIAL DO MP BELO HORIZONTE - COMARCA; DIVISÃO DE EDUCAÇÃO PARA O CONSUMO 10.516,49 3.154,95 0,00 0,00 0,00 0,00 0,00 2.105,00 15.776,44 1.968,38 2.333,38 0,00 0,00 4.301,76 11.474,68 31/07/2023
332 551000 ARACELES BICALHO FELIX ANALISTA DO MP MANHUAÇU - COMARCA; MANHUACU-PJ-SECRETARIA 12.343,61 2.468,72 0,00 0,00 411,45 0,00 3.703,08 4.005,00 22.931,86 2.743,41 3.565,49 0,00 0,00 6.308,90 16.622,96 31/07/2023
333 286200 ARACELI MEDRADO DOS SANTOS LIMA OFICIAL DO MP PARACATU - COMARCA; PARACATU-PJ-03PJ 7.506,70 2.252,01 0,00 0,00 0,00 0,00 0,00 3.055,00 12.813,71 1.342,34 1.429,54 0,00 0,00 2.771,88 10.041,83 31/07/2023
334 112200 ARAQUEM AUGUSTO DE MATOS AGENTE DO MP BELO HORIZONTE - COMARCA; BH-23PJ CIVEL-SEC EXP CIVEIS 13.160,57 11.844,52 0,00 0,00 0,00 3.781,76 0,00 2.105,00 30.891,85 3.781,76 5.887,17 0,00 0,00 9.668,93 21.222,92 31/07/2023
335 280600 ARDUINO FRATTEZI ANALISTA DO MP BELO HORIZONTE - COMARCA; CENTRAL DE APOIO TECNICO-SETOR CONTABIL 23.070,31 6.921,09 0,00 0,00 0,00 0,00 0,00 2.105,00 32.096,40 4.579,57 6.103,29 0,00 0,00 10.682,86 21.413,54 31/07/2023
336 520201 ARIANE DE FATIMA CARVALHO ALMEIDA RODRIGUES ANALISTA DO MP VESPASIANO - COMARCA; VESPASIANO-PJ-SECRETARIA 11.577,56 1.157,76 0,00 0,00 0,00 0,00 0,00 3.530,00 16.265,32 1.818,60 1.960,73 0,00 0,00 3.779,33 12.485,99 31/07/2023
337 537600 ARIELA FREIRE MONTIJO ANALISTA DO MP ARCOS - COMARCA; ARCOS-PJ-01PJ 12.343,61 2.468,72 0,00 0,00 0,00 0,00 0,00 2.105,00 16.917,33 2.150,92 2.492,65 0,00 0,00 4.643,57 12.273,76 31/07/2023
338 182000 ARILSON ALEXANDRE MARTINS MAGALHAES OFICIAL DO MP JOÃO MONLEVADE - COMARCA; JOAO MONLEVADE-PJ-01PJ 20.533,67 10.266,84 0,00 0,00 0,00 0,00 0,00 5.905,00 36.705,51 4.709,03 6.029,51 0,00 0,00 10.738,54 25.966,97 31/07/2023
339 511000 ARISLANE CAROLINA DA SILVA ANALISTA DO MP MONTE CARMELO - COMARCA; MONTE CARMELO-PJ-02PJ 12.343,61 2.468,72 0,00 0,00 0,00 0,00 0,00 3.055,00 17.867,33 2.150,92 2.596,93 0,00 0,00 4.747,85 13.119,48 31/07/2023
340 170000 ARLEY BRITES DA SILVA ASSESSOR ADMINISTRATIVO II BELO HORIZONTE - COMARCA; BH-14PJ DEFESA CONSUMIDOR-SECRETARIA 0,00 3.002,68 7.506,70 0,00 0,00 0,00 0,00 5.608,13 16.117,51 876,95 1.470,87 0,00 0,00 2.347,82 13.769,69 31/07/2023
341 120400 ARLINDO CASSIO DA CRUZ OFICIAL DO MP SÃO GONÇALO DO SAPUCAÍ - COMARCA; SAO GONCALO DO SAPUCAI-PJ-01PJ 23.070,31 20.763,28 0,00 0,00 0,00 5.795,34 477,24 7.311,23 57.417,40 5.795,34 9.348,00 6.243,63 0,00 21.386,97 36.030,43 31/07/2023
342 243700 ARLINDO MARCIO LACERDA OFICIAL DO MP CONTAGEM - COMARCA; CONTAGEM-PJ-SECRETARIA 17.559,01 8.779,51 0,00 0,00 0,00 0,00 1.771,66 2.105,00 30.215,18 3.995,11 5.746,68 0,00 0,00 9.741,79 20.473,39 31/07/2023
343 392100 ARNALDO DE ANDRADE OFICIAL DO MP DIVINÓPOLIS - COMARCA; DIVINOPOLIS-PJ-02PJ 12.343,61 4.443,70 0,00 0,00 0,00 0,00 1.771,66 2.105,00 20.663,97 2.466,92 3.488,22 0,00 0,00 5.955,14 14.708,83 31/07/2023
344 642400 ARTANE INARDE DE SIQUEIRA DAMASCENO ANALISTA DO MP BELO HORIZONTE - COMARCA; SECRETARIA DE ASSUNTOS INTERNACIONAIS 10.015,59 1.001,56 0,00 0,00 0,00 0,00 0,00 7.947,50 18.964,65 982,16 1.802,28 0,00 0,00 2.784,44 16.180,21 31/07/2023
345 733000 ARTHUR BRANDAO ALBUQUERQUE ASSESSOR ADMINISTRATIVO II BELO HORIZONTE - COMARCA; DIRETORIA DE PAGAMENTO DE PESSOAL-DPAG 0,00 0,00 7.506,70 0,00 0,00 0,00 0,00 2.105,00 9.611,70 876,95 1.350,72 0,00 0,00 2.227,67 7.384,03 31/07/2023
346 712100 ARTUR FONTE BOA TEOFILO ASSESSOR ADMINISTRATIVO I BELO HORIZONTE - COMARCA; DIRET DE ESTAGIOS E CONVENIOS ACADEMICOS 0,00 0,00 4.872,71 0,00 1.624,24 0,00 446,67 6.977,71 13.921,33 490,69 1.169,00 0,00 0,00 1.659,69 12.261,64 31/07/2023
347 302100 AUGUSTO ROUSSEAU DE CASTRO ANALISTA DO MP CATAGUASES - COMARCA; CATAGUASES-PJ-02PJ 23.070,31 6.921,09 0,00 0,00 0,00 0,00 0,00 2.105,00 32.096,40 4.579,57 6.103,29 0,00 0,00 10.682,86 21.413,54 31/07/2023
348 540200 AUREA AVELAR BITTENCOURT OFICIAL DO MP BELO HORIZONTE - COMARCA; GRUPO ESP PROM JUST DEF PROB ADM PAT PUB 7.506,70 1.501,34 0,00 0,00 0,00 0,00 0,00 2.105,00 11.113,04 982,16 1.239,07 0,00 0,00 2.221,23 8.891,81 31/07/2023
349 633501 AUREA GONTIJO BIRCHAL ASSESSOR DE GABINETE I BELO HORIZONTE - COMARCA; PROCURADOR-GERAL DE JUSTIÇA 0,00 0,00 18.130,77 0,00 0,00 0,00 66,48 2.830,23 21.027,48 876,95 4.272,34 0,00 0,00 5.149,29 15.878,19 31/07/2023
350 183200 AURELIANO MAGELA DE REZENDE OFICIAL DO MP BELO HORIZONTE - COMARCA; COORD DE GABINETE DO PGJ 20.533,67 8.213,47 6.160,10 0,00 0,00 0,00 127,99 3.501,29 38.536,52 4.380,49 7.509,90 0,00 0,00 11.890,39 26.646,13 31/07/2023
351 629400 AYESKA DA COSTA VAL MOURA DABIEN OFICIAL DO MP BELO HORIZONTE - COMARCA; BH-09PJ AUDITORIA MILITAR-SECRETARIA 6.818,83 681,88 0,00 0,00 0,00 0,00 0,00 2.105,00 9.605,71 981,10 907,93 0,00 0,00 1.889,03 7.716,68 31/07/2023
352 707400 AYMEE JOHANSSENN TYNEE CORREIA ALVES ASSESSOR PROMOTOR JUSTICA NOVA LIMA - COMARCA; NOVA LIMA-PJ-01PJ 0,00 0,00 8.810,89 0,00 0,00 0,00 0,00 2.105,00 10.915,89 876,95 1.709,37 0,00 0,00 2.586,32 8.329,57 31/07/2023
353 701600 BARBARA CHAVES OLIVEIRA ASSESSOR PROCURADOR JUSTICA BELO HORIZONTE - COMARCA; PROC. JUSTICA DIR. DIFUSOS E COLETIVOS-SEC 0,00 0,00 8.810,89 0,00 0,00 0,00 0,00 2.105,00 10.915,89 876,95 1.709,37 0,00 0,00 2.586,32 8.329,57 31/07/2023
354 691900 BARBARA COUTINHO REIS ASSESSOR PROCURADOR JUSTICA BELO HORIZONTE - COMARCA; GABINETE DE PROCURADOR DE JUSTIÇA - SALA 910 0,00 0,00 8.810,89 0,00 0,00 0,00 0,00 2.105,00 10.915,89 876,95 1.709,37 0,00 0,00 2.586,32 8.329,57 31/07/2023
355 692200 BARBARA CRISTINA MENDES BANDEIRA DE MELO DUTRA ASSESSOR PROCURADOR JUSTICA BELO HORIZONTE - COMARCA; GABINETE DE PROCURADOR DE JUSTIÇA - SALA 1009 0,00 0,00 8.810,89 0,00 0,00 0,00 0,00 2.105,00 10.915,89 876,95 1.709,37 0,00 0,00 2.586,32 8.329,57 31/07/2023
356 743300 BARBARA CRISTINA SOUZA E SOUSA ASSESSOR PROCURADOR JUSTICA BELO HORIZONTE - COMARCA; GABINETE DE PROCURADOR DE JUSTIÇA - SALA 513 0,00 0,00 8.810,89 0,00 0,00 0,00 3.230,66 3.323,64 15.365,19 876,95 2.766,56 0,00 0,00 3.643,51 11.721,68 31/07/2023
357 723400 BARBARA CRISTINA TAVARES CARNEIRO ASSESSOR PROCURADOR JUSTICA BELO HORIZONTE - COMARCA; GABINETE DE PROCURADOR DE JUSTIÇA - SALA 502 0,00 0,00 8.810,89 0,00 0,00 0,00 0,00 2.105,00 10.915,89 876,95 1.709,37 0,00 0,00 2.586,32 8.329,57 31/07/2023
358 652800 BARBARA JULIANNE MOREIRA CASTRO ASSESSOR PROCURADOR JUSTICA BELO HORIZONTE - COMARCA; ASSESS TECNICO-JUR JUNTO AS PROC. DE JUST 0,00 0,00 8.810,89 0,00 0,00 0,00 0,00 2.105,00 10.915,89 876,95 1.709,37 0,00 0,00 2.586,32 8.329,57 31/07/2023
359 707700 BARBARA LOUISE PUFF DE OLIVEIRA ASSESSOR PROMOTOR JUSTICA RIBEIRÃO DAS NEVES - COMARCA; RIBEIRAO DAS NEVES-PJ-02PJ 0,00 0,00 8.810,89 0,00 0,00 0,00 0,00 2.105,00 10.915,89 876,95 1.709,37 0,00 0,00 2.586,32 8.329,57 31/07/2023
360 663600 BARBARA REGINA PEREIRA DE PINHO MAGALHAES ASSESSOR PROMOTOR JUSTICA BELO HORIZONTE - COMARCA; CAO-DH CONT EXT ATIV POLIC E AP COMUNIT 0,00 0,00 8.810,89 0,00 0,00 0,00 0,00 2.105,00 10.915,89 876,95 1.709,37 0,00 0,00 2.586,32 8.329,57 31/07/2023
361 546500 BARBARA ZACARONI GOULART OFICIAL DO MP BETIM - COMARCA; BETIM-PJ-08PJ 7.506,70 1.501,34 0,00 0,00 0,00 0,00 0,00 2.105,00 11.113,04 1.222,23 1.256,14 0,00 0,00 2.478,37 8.634,67 31/07/2023
362 316500 BEATRIZ ABILVIA DA SILVA ANALISTA DO MP GOVERNADOR VALADARES - COMARCA; GOVERNADOR VALADARES-PJ-07PJ 22.191,68 6.657,50 0,00 0,00 0,00 4.396,82 0,00 2.105,00 35.351,00 4.396,82 7.048,56 0,00 0,00 11.445,38 23.905,62 31/07/2023
363 311800 BEATRIZ APARECIDA SOARES GANEM OFICIAL DO MP ITAMBACURI - COMARCA; ITAMBACURI-PJ-02PJ 13.588,97 5.435,59 0,00 0,00 0,00 0,00 0,00 2.105,00 21.129,56 2.824,88 3.413,54 0,00 0,00 6.238,42 14.891,14 31/07/2023
364 266800 BEATRIZ AUGUSTA VILACA GOMES DE HUBER OFICIAL DO MP BELO HORIZONTE - COMARCA; BH-05PJ-JUÍZO SUCESSÕES-SEC 12.343,61 4.937,44 0,00 0,00 5.760,35 0,00 1.804,63 8.326,18 33.172,21 2.743,41 5.036,44 0,00 0,00 7.779,85 25.392,36 31/07/2023
365 235200 BEATRIZ BOTELHO BATISTA OFICIAL DO MP MATEUS LEME - COMARCA; MATEUS LEME-PJ-02PJ 12.343,61 4.937,44 0,00 0,00 0,00 0,00 0,00 2.105,00 19.386,05 2.545,92 3.167,20 0,00 0,00 5.713,12 13.672,93 31/07/2023
366 182300 BEATRIZ PAULA SOUSA RAMOS OFICIAL DO MP MARIANA - COMARCA; MARIANA-PJ-01PJ 20.533,67 10.266,84 0,00 0,00 0,00 0,00 564,68 8.265,10 39.630,29 4.709,03 6.290,20 0,00 0,00 10.999,23 28.631,06 31/07/2023
367 507000 BELCHIOR FRANKLIN AMARAL LEITE ANALISTA DO MP BELO HORIZONTE - COMARCA; CAO ORGAOS MPMG DESIG FUNC ELEITORAIS-SEC 13.588,97 3.533,13 0,00 0,00 0,00 0,00 0,00 2.105,00 19.227,10 2.520,48 2.974,07 0,00 0,00 5.494,55 13.732,55 31/07/2023
368 345100 BENITO ELIAS RODRIGUES ANALISTA DO MP BARBACENA - COMARCA; BARBACENA - SECRETARIA DAS PJS CRIMINAIS 21.346,53 6.403,96 0,00 0,00 0,00 0,00 0,00 3.055,00 30.805,49 4.221,03 5.533,50 0,00 0,00 9.754,53 21.050,96 31/07/2023
369 207300 BENITO VIEIRA DOS SANTOS ANALISTA DO MP BELO HORIZONTE - COMARCA; PROC JUST ESP ACOES COMP ORIG CRIMINAL-ASSESS 23.070,31 11.535,16 0,00 0,00 0,00 5.317,82 439,16 6.895,80 47.258,25 5.317,82 7.092,97 0,00 0,00 12.410,79 34.847,46 31/07/2023
370 480200 BERNADETE NUNES DOS SANTOS ANALISTA DO MP GUANHÃES - COMARCA; GUANHAES-PJ-02PJ 12.343,61 4.937,44 0,00 0,00 0,00 0,00 0,00 2.105,00 19.386,05 2.545,92 3.167,20 0,00 0,00 5.713,12 13.672,93 31/07/2023
371 378400 BETANIA FARNESI DE SOUZA E SILVA OFICIAL DO MP CURVELO - COMARCA; CURVELO-PJ-01PJ 12.343,61 4.937,44 0,00 0,00 0,00 0,00 0,00 2.105,00 19.386,05 2.545,92 3.115,06 0,00 0,00 5.660,98 13.725,07 31/07/2023
372 387400 BETANIA MENDONCA DE ASSIS CARVALHO ANALISTA DO MP JUIZ DE FORA - COMARCA; JUIZ DE FORA-PJ-03PJ 18.720,84 5.616,25 0,00 0,00 0,00 0,00 0,00 3.055,00 27.392,09 3.674,88 4.745,01 0,00 0,00 8.419,89 18.972,20 31/07/2023
373 714400 BIANCA DE CASTRO RAMOS ASSESSOR PROMOTOR JUSTICA BETIM - COMARCA; BETIM-PJ-13PJ 0,00 0,00 8.810,89 0,00 0,00 0,00 0,00 2.105,00 10.915,89 876,95 1.709,37 0,00 0,00 2.586,32 8.329,57 31/07/2023
374 450300 BIANCA OLIVEIRA DE ALBUQUERQUE ANALISTA DO MP BELO HORIZONTE - COMARCA; BH-10PJ EXECUÇÃO PENAL-SECRETARIA 12.343,61 2.468,72 0,00 0,00 0,00 0,00 0,00 3.055,00 17.867,33 2.150,92 2.596,93 0,00 0,00 4.747,85 13.119,48 31/07/2023
375 535400 BIANCA SALOTO ROSSI ANALISTA DO MP SANTOS DUMONT - COMARCA; SANTOS DUMONT-PJ-01PJ 12.343,61 2.468,72 0,00 0,00 0,00 0,00 0,00 3.055,00 17.867,33 2.150,92 2.596,93 0,00 0,00 4.747,85 13.119,48 31/07/2023
376 120800 BRAS MARQUES DE SOUZA ANALISTA DO MP BELO HORIZONTE - COMARCA; SUPERINTENDENCIA DE GESTAO ADMINISTRATIVA 29.122,38 26.210,14 0,00 0,00 0,00 5.795,34 477,24 7.311,23 68.916,33 5.795,34 9.348,00 17.742,56 0,00 32.885,90 36.030,43 31/07/2023
377 724400 BRENDA PIMENTEL DE SOUZA VIANA ASSESSOR PROMOTOR JUSTICA MANHUMIRIM - COMARCA; MANHUMIRIM-PJ-01PJ 0,00 0,00 8.810,89 0,00 0,00 0,00 0,00 2.105,00 10.915,89 876,95 1.709,37 0,00 0,00 2.586,32 8.329,57 31/07/2023
378 710500 BRENNO VINICIUS MAGESTE ROSA ASSESSOR PROMOTOR JUSTICA MANHUAÇU - COMARCA; MANHUACU-PJ-02PJ 0,00 0,00 8.810,89 0,00 0,00 0,00 0,00 2.105,00 10.915,89 876,95 1.709,37 0,00 0,00 2.586,32 8.329,57 31/07/2023
379 460900 BRENO CRISTIANO DE SOUZA REZENDE ANALISTA DO MP ITAÚNA - COMARCA; ITAUNA-PJ-02PJ 12.343,61 2.468,72 0,00 0,00 0,00 0,00 0,00 2.105,00 16.917,33 2.150,92 2.596,93 0,00 0,00 4.747,85 12.169,48 31/07/2023
380 239000 BRENO VENANCIO ROMANINI OFICIAL DO MP BELO HORIZONTE - COMARCA; BH-20PJ ORD ECON TRIBUTARIA-SECRETARIA 12.343,61 4.937,44 0,00 0,00 0,00 0,00 0,00 2.105,00 19.386,05 2.545,92 3.167,20 0,00 0,00 5.713,12 13.672,93 31/07/2023
381 722100 BRUNA HENRIQUE DE SOUZA ASSESSOR PROMOTOR JUSTICA PIRAPETINGA - COMARCA; PIRAPETINGA-PJ-UNPJ 0,00 0,00 8.810,89 0,00 0,00 0,00 0,00 2.105,00 10.915,89 876,95 1.709,37 0,00 0,00 2.586,32 8.329,57 31/07/2023
382 642300 BRUNA IZABELITA DE FATIMA OLIVEIRA COSTA OFICIAL DO MP BELO HORIZONTE - COMARCA; BH-02PJ FAMILIA-SECRETARIA 7.270,07 727,01 0,00 0,00 0,00 0,00 0,00 2.105,00 10.102,08 1.060,48 1.022,61 0,00 0,00 2.083,09 8.018,99 31/07/2023
383 513600 BRUNA KARLA MARTINS CARVALHO ANALISTA DO MP GOVERNADOR VALADARES - COMARCA; GOVERNADOR VALADARES-PJ-14PJ 12.343,61 2.468,72 0,00 0,00 0,00 0,00 0,00 2.105,00 16.917,33 982,16 2.767,68 0,00 0,00 3.749,84 13.167,49 31/07/2023
384 415100 BRUNA MARIA SOARES OLIVEIRA COSTA RAMOS ANALISTA DO MP UBÁ - COMARCA; COORD REG BACIA DO RIO PARAIBA DO SUL 18.130,77 3.626,15 0,00 0,00 0,00 0,00 0,00 2.105,00 23.861,92 982,16 4.534,20 0,00 0,00 5.516,36 18.345,56 31/07/2023
385 692900 BRUNA MENDES COELHO ASSESSOR PROCURADOR JUSTICA BELO HORIZONTE - COMARCA; GABINETE DE PROCURADOR DE JUSTIÇA - SALA 801 0,00 0,00 8.810,89 0,00 2.936,96 0,00 549,21 8.096,41 20.393,47 876,95 2.517,04 0,00 0,00 3.393,99 16.999,48 31/07/2023
386 470000 BRUNA MORAES ANALISTA DO MP TOMBOS - COMARCA; TOMBOS-PJ-UNPJ 15.949,86 4.146,96 0,00 0,00 0,00 0,00 0,00 2.105,00 22.201,82 2.996,44 3.661,23 0,00 0,00 6.657,67 15.544,15 31/07/2023
387 614700 BRUNA NATTANY DE LIMA OFICIAL DO MP MANTENA - COMARCA; MANTENA-PJ-01PJ 7.506,70 750,67 0,00 0,00 0,00 0,00 0,00 3.055,00 11.312,37 1.102,13 1.082,73 0,00 0,00 2.184,86 9.127,51 31/07/2023
388 729800 BRUNA PAULA AMARAL CEOLIN ASSESSOR PROMOTOR JUSTICA COMARCA - JUATUBA; JUATUBA-PJ-UNPJ 0,00 0,00 8.810,89 0,00 0,00 0,00 0,00 2.105,00 10.915,89 876,95 1.709,37 0,00 0,00 2.586,32 8.329,57 31/07/2023
389 631800 BRUNA RAPOSO JORGE OFICIAL DO MP JUIZ DE FORA - COMARCA; JUIZ DE FORA-PJ-06PJ 7.506,70 750,67 0,00 0,00 0,00 0,00 0,00 3.530,00 11.787,37 1.102,13 1.082,73 0,00 0,00 2.184,86 9.602,51 31/07/2023
390 707800 BRUNA ROMIE WERDINE ASSESSOR PROMOTOR JUSTICA IBIRITÉ - COMARCA; IBIRITE-PJ-06PJ 0,00 0,00 8.810,89 0,00 0,00 0,00 0,00 2.105,00 10.915,89 876,95 1.709,37 0,00 0,00 2.586,32 8.329,57 31/07/2023
391 697400 BRUNA SILVA SANTOS ASSESSOR PROMOTOR JUSTICA TIMÓTEO - COMARCA; TIMOTEO-PJ-04PJ 0,00 0,00 8.810,89 0,00 0,00 0,00 0,00 2.105,00 10.915,89 876,95 1.709,37 0,00 0,00 2.586,32 8.329,57 31/07/2023
392 699300 BRUNA URSINE TIMO ASSESSOR PROCURADOR JUSTICA BELO HORIZONTE - COMARCA; PROC JUST ESP ACOES COMP ORIG CRIMINAL-ASSESS 0,00 0,00 8.810,89 0,00 0,00 0,00 0,00 2.105,00 10.915,89 876,95 1.709,37 0,00 0,00 2.586,32 8.329,57 31/07/2023
393 463800 BRUNO ALVES TEIXEIRA ANALISTA DO MP UBERLÂNDIA - COMARCA; UBERLANDIA-PJ-04PJ 12.343,61 2.468,72 0,00 0,00 0,00 0,00 0,00 2.105,00 16.917,33 2.150,92 2.596,93 0,00 0,00 4.747,85 12.169,48 31/07/2023
394 538500 BRUNO AUGUSTO DA SILVA OFICIAL DO MP SANTA LUZIA - COMARCA; SANTA LUZIA-PJ-03PJ 7.506,70 1.501,34 0,00 0,00 0,00 0,00 0,00 2.105,00 11.113,04 1.222,23 1.256,14 0,00 0,00 2.478,37 8.634,67 31/07/2023
395 318200 BRUNO BARROS DE SOUZA OFICIAL DO MP BELO HORIZONTE - COMARCA; DIRETORIA GESTAO CONTRATOS CONVENIOS 12.343,61 3.703,08 0,00 0,00 0,00 0,00 0,00 2.105,00 18.151,69 982,16 2.635,76 0,00 0,00 3.617,92 14.533,77 31/07/2023
396 427400 BRUNO CESAR RIBEIRO DE PAIVA ANALISTA DO MP BELO HORIZONTE - COMARCA; DIRETORIA DO COLEGIO E DA CAMARA DE PJ 18.130,77 3.626,15 0,00 0,00 0,00 0,00 0,00 2.105,00 23.861,92 3.262,06 4.201,13 0,00 0,00 7.463,19 16.398,73 31/07/2023
397 380900 BRUNO CIRILO ANTUNES OFICIAL DO MP VARGINHA - COMARCA; VARGINHA-PJ-05PJ 11.954,43 3.586,33 0,00 0,00 0,00 0,00 0,00 2.105,00 17.645,76 2.267,47 2.765,19 0,00 0,00 5.032,66 12.613,10 31/07/2023
398 329000 BRUNO DE MELO REIS ANALISTA DO MP PATROCÍNIO - COMARCA; PATROCINIO-PJ-02PJ 22.191,68 8.876,67 0,00 0,00 0,00 0,00 0,00 4.005,00 35.073,35 4.751,88 6.247,79 0,00 0,00 10.999,67 24.073,68 31/07/2023
399 697800 BRUNO GAZZOLA BEZERRA FALCAO ASSESSOR PROCURADOR JUSTICA BELO HORIZONTE - COMARCA; PROCURADOR-GERAL ADJUNTO JURIDICO- GABINETE 0,00 0,00 8.810,89 0,00 0,00 0,00 0,00 2.105,00 10.915,89 876,95 1.709,37 0,00 0,00 2.586,32 8.329,57 31/07/2023
400 378300 BRUNO HERDY LOPES DE OLIVEIRA ANALISTA DO MP GOVERNADOR VALADARES - COMARCA; GOVERNADOR VALADARES-PJ-03PJ 18.720,84 5.616,25 0,00 0,00 0,00 0,00 0,00 2.105,00 26.442,09 3.674,88 4.797,15 0,00 0,00 8.472,03 17.970,06 31/07/2023
401 529700 BRUNO JOSE BUENO DIAS OFICIAL DO MP SÃO SEBASTIÃO DO PARAÍSO - COMARCA; SAO SEBASTIAO DO PARAISO-PJ-02PJ 7.506,70 1.501,34 0,00 0,00 0,00 0,00 0,00 2.105,00 11.113,04 1.222,23 1.204,00 0,00 0,00 2.426,23 8.686,81 31/07/2023
402 691600 BRUNO JOSE RIBEIRO ASSESSOR PROMOTOR JUSTICA CLÁUDIO - COMARCA; CLAUDIO-PJ-UNPJ 0,00 0,00 8.810,89 0,00 0,00 0,00 0,00 2.105,00 10.915,89 876,95 1.709,37 0,00 0,00 2.586,32 8.329,57 31/07/2023
403 350100 BRUNO LAUD SERRANO DOS REIS OFICIAL DO MP UBÁ - COMARCA; UBA-PJ-02PJ 12.343,61 4.937,44 0,00 0,00 0,00 0,00 0,00 2.105,00 19.386,05 2.545,92 3.115,06 0,00 0,00 5.660,98 13.725,07 31/07/2023
404 728900 BRUNO LIMA PITANGA ASSESSOR PROMOTOR JUSTICA BELO HORIZONTE - COMARCA; NUCLEO DA EXECUCAO PENAL 0,00 0,00 8.810,89 0,00 0,00 0,00 0,00 2.105,00 10.915,89 876,95 1.709,37 0,00 0,00 2.586,32 8.329,57 31/07/2023
405 745900 BRUNO LUIZ MARQUES ROCHA OFICIAL DO MP BELO HORIZONTE - COMARCA; SUPERINTENDENCIA GESTÃO DE PESSOAS 3.656,20 0,00 0,00 0,00 0,00 0,00 0,00 1.832,27 5.488,47 385,20 98,83 0,00 0,00 484,03 5.004,44 31/07/2023
406 373800 BRUNO MARTINO DE ALBUQUERQUE ANALISTA DO MP PONTE NOVA - COMARCA; PONTE NOVA-PJ-03PJ 18.720,84 5.616,25 0,00 0,00 0,00 0,00 0,00 2.105,00 26.442,09 3.674,88 4.692,87 0,00 0,00 8.367,75 18.074,34 31/07/2023
407 732900 BRUNO NOGUEIRA GUIMARAES ASSESSOR ADMINISTRATIVO I BELO HORIZONTE - COMARCA; COORD DE INCLUSAO E MOBILIZACAO SOCIAIS 0,00 0,00 4.872,71 0,00 0,00 0,00 0,00 2.105,00 6.977,71 718,08 670,06 0,00 0,00 1.388,14 5.589,57 31/07/2023
408 470400 BRUNO NOVAIS CABRAL ANALISTA DO MP MUTUM - COMARCA; MUTUM-PJ-UNPJ 12.343,61 2.468,72 0,00 0,00 0,00 0,00 0,00 2.105,00 16.917,33 2.150,92 2.596,93 0,00 0,00 4.747,85 12.169,48 31/07/2023
409 648600 BRUNO RIBEIRO E MELO COORDENADOR I BELO HORIZONTE - COMARCA; DIR RELACOES INSTITUCIONAIS 0,00 0,00 16.469,17 0,00 0,00 0,00 0,00 2.105,00 18.574,17 876,95 3.815,40 0,00 0,00 4.692,35 13.881,82 31/07/2023
410 369200 BRUNO ROBERTO DIAS DE OLIVEIRA OFICIAL DO MP BELO HORIZONTE - COMARCA; BH-22PJ PES COM DEF E IDOSOS-SECRETARIA 12.343,61 3.703,08 0,00 0,00 0,00 0,00 0,00 2.105,00 18.151,69 982,16 3.081,66 0,00 0,00 4.063,82 14.087,87 31/07/2023
411 547700 BRUNO ROBERTO SOUZA GONCALVES ANALISTA DO MP PARACATU - COMARCA; PARACATU-PJ-03PJ 12.343,61 2.468,72 0,00 0,00 0,00 0,00 0,00 3.055,00 17.867,33 2.150,92 2.596,93 0,00 0,00 4.747,85 13.119,48 31/07/2023
412 546100 BRUNO SA VIEIRA ANALISTA DO MP BARBACENA - COMARCA; BARBACENA-PJ-SECRETARIA 12.343,61 2.468,72 0,00 0,00 0,00 0,00 0,00 3.055,00 17.867,33 2.150,92 2.492,65 0,00 0,00 4.643,57 13.223,76 31/07/2023
413 438200 BRUNO SALES PEREIRA ANALISTA DO MP BELO HORIZONTE - COMARCA; CENTRAL DE APOIO TECNICO-SETOR CONTABIL 15.949,86 3.189,97 0,00 0,00 0,00 0,00 0,00 2.105,00 21.244,83 2.843,32 3.544,44 0,00 0,00 6.387,76 14.857,07 31/07/2023
414 537400 BRUNO SANT'ANA CESAR ANALISTA DO MP BELO HORIZONTE - COMARCA; BH-12PJ JUIZO CRIMINAL-GAB 105PJ 12.343,61 2.468,72 0,00 0,00 0,00 0,00 0,00 2.105,00 16.917,33 2.150,92 2.596,93 0,00 0,00 4.747,85 12.169,48 31/07/2023
415 727700 BYANKA DA SILVA MORAIS ASSESSOR PROCURADOR JUSTICA BELO HORIZONTE - COMARCA; GABINETE DE PROCURADOR DE JUSTIÇA - SALA 805 0,00 0,00 8.810,89 0,00 2.936,96 0,00 0,00 2.105,00 13.852,85 876,95 2.517,04 0,00 0,00 3.393,99 10.458,86 31/07/2023
416 405800 CAIO FERNANDO RODRIGUES DE OLIVEIRA ANALISTA DO MP BELO HORIZONTE - COMARCA; ASSESSORIA JURIDICO-ADMINISTRATIVA 18.130,77 3.626,15 0,00 0,00 0,00 0,00 0,00 2.105,00 23.861,92 982,16 4.690,95 0,00 0,00 5.673,11 18.188,81 31/07/2023
417 530000 CAIO GUEDES DE OLIVEIRA ANALISTA DO MP DIAMANTINA - COMARCA; DIAMANTINA-PJ-02PJ 12.343,61 2.468,72 0,00 0,00 0,00 0,00 0,00 2.105,00 16.917,33 2.150,92 2.544,79 0,00 0,00 4.695,71 12.221,62 31/07/2023
418 491400 CAIO MIRANDA JUNQUEIRA ANALISTA DO MP BUENO BRANDAO - COMARCA; BUENO BRANDAO-PJ-UNPJ 12.343,61 2.468,72 0,00 0,00 0,00 0,00 0,00 2.105,00 16.917,33 2.150,92 2.492,65 0,00 0,00 4.643,57 12.273,76 31/07/2023
419 415800 CAMILA ALVES DA SILVA ANALISTA DO MP CAETÉ - COMARCA; CAETE-PJ-01PJ 18.130,77 3.626,15 0,00 0,00 0,00 0,00 0,00 2.105,00 23.861,92 3.262,06 4.201,13 0,00 0,00 7.463,19 16.398,73 31/07/2023
420 555800 CAMILA CAROLINE ROCHA CHAVES OFICIAL DO MP SALINAS - COMARCA; SALINAS-PJ-01PJ 7.506,70 1.501,34 0,00 0,00 0,00 0,00 0,00 2.105,00 11.113,04 1.222,23 1.256,14 0,00 0,00 2.478,37 8.634,67 31/07/2023
421 445200 CAMILA CONDE ROCHA ANALISTA DO MP CONTAGEM - COMARCA; CONTAGEM-PJ-21PJ 13.588,97 2.717,79 0,00 0,00 0,00 0,00 0,00 2.105,00 18.411,76 2.390,03 2.942,14 0,00 0,00 5.332,17 13.079,59 31/07/2023
422 419900 CAMILA CUNNINGHAM PIMENTA DE PADUA ANALISTA DO MP BELO HORIZONTE - COMARCA; ASSESSORIA PSICOSSOCIAL 18.130,77 3.626,15 0,00 0,00 0,00 0,00 0,00 2.105,00 23.861,92 3.262,06 4.201,13 0,00 0,00 7.463,19 16.398,73 31/07/2023
423 742700 CAMILA DA SILVA GONCALVES ANALISTA DO MP BELO HORIZONTE - COMARCA; SUPERINTENDENCIA GESTÃO DE PESSOAS 5.632,62 0,00 0,00 0,00 0,00 0,00 0,00 1.832,27 7.464,89 691,54 473,84 0,00 0,00 1.165,38 6.299,51 31/07/2023
424 714200 CAMILA DE SOUSA CUNHA ASSESSOR PROMOTOR JUSTICA PRADOS - COMARCA; PRADOS-PJ-UNPJ 0,00 0,00 8.810,89 0,00 0,00 0,00 0,00 2.105,00 10.915,89 876,95 1.709,37 0,00 0,00 2.586,32 8.329,57 31/07/2023
425 507700 CAMILA ELIZABETH RODRIGUES ANALISTA DO MP BELO HORIZONTE - COMARCA; BH-02PJ FAMILIA-SECRETARIA 14.960,00 2.992,00 0,00 0,00 0,00 0,00 0,00 2.105,00 20.057,00 2.653,27 3.322,19 0,00 0,00 5.975,46 14.081,54 31/07/2023
426 372700 CAMILA FONSECA LIMONGE ANALISTA DO MP BETIM - COMARCA; BETIM-PJ-01PJ 18.720,84 5.616,25 0,00 0,00 0,00 0,00 0,00 2.105,00 26.442,09 3.674,88 4.797,15 0,00 0,00 8.472,03 17.970,06 31/07/2023
427 621300 CAMILA GOLFETO DE SOUSA VALENTE OFICIAL DO MP CARANGOLA - COMARCA; CARANGOLA-PJ-SECRETARIA 7.506,70 750,67 0,00 0,00 0,00 0,00 0,00 3.530,00 11.787,37 1.102,13 978,46 0,00 0,00 2.080,59 9.706,78 31/07/2023
428 409800 CAMILA GONCALVES COSTA RIBEIRO ANALISTA DO MP IPATINGA - COMARCA; GAECO REGIONAL DE IPATINGA 12.343,61 2.468,72 0,00 0,00 0,00 0,00 0,00 3.055,00 17.867,33 2.150,92 2.492,65 0,00 0,00 4.643,57 13.223,76 31/07/2023
429 335000 CAMILA GONTIJO DE PAIVA ANALISTA DO MP BELO HORIZONTE - COMARCA; COORD DE CONTROLE CONSTITUCIONALIDADE 23.070,31 6.921,09 0,00 0,00 0,00 0,00 549,84 8.103,28 38.644,52 4.579,57 6.051,16 0,00 0,00 10.630,73 28.013,79 31/07/2023
430 693400 CAMILA HECKSHER MONTEIRO ASSESSOR PROCURADOR JUSTICA BELO HORIZONTE - COMARCA; GABINETE DE PROCURADOR DE JUSTIÇA - SALA 613 0,00 0,00 8.810,89 0,00 0,00 0,00 0,00 2.105,00 10.915,89 876,95 1.709,37 0,00 0,00 2.586,32 8.329,57 31/07/2023
431 696000 CAMILA IMACULADA OLIVEIRA ASSESSOR PROCURADOR JUSTICA BELO HORIZONTE - COMARCA; GABINETE DE PROCURADOR DE JUSTICA - SALA 312 0,00 0,00 8.810,89 0,00 0,00 0,00 258,45 4.924,48 13.993,82 876,95 1.709,37 0,00 0,00 2.586,32 11.407,50 31/07/2023
432 547800 CAMILA MATTARELLI DE ABREU E SILVA ANALISTA DO MP BELO HORIZONTE - COMARCA; CAO-VIOLENCIA DOMESTICA E FAMILIAR 12.343,61 2.468,72 0,00 0,00 0,00 0,00 0,00 2.105,00 16.917,33 2.150,92 2.596,93 0,00 0,00 4.747,85 12.169,48 31/07/2023
433 735800 CAMILA REGINA DE OLIVEIRA ASSESSOR ADMINISTRATIVO II BELO HORIZONTE - COMARCA; CENTRO AUTOCOMPOSICAO DE CONFLITOS 0,00 0,00 7.506,70 0,00 0,00 0,00 0,00 2.105,00 9.611,70 876,95 1.350,72 0,00 0,00 2.227,67 7.384,03 31/07/2023
434 430000 CANDIDA MARINA COSTA ANALISTA DO MP BELO HORIZONTE - COMARCA; DIRET DE INFORMACAO E CONHECIMENTO-DINC/CEAF 18.130,77 3.626,15 0,00 0,00 0,00 0,00 0,00 2.105,00 23.861,92 3.262,06 4.201,13 0,00 0,00 7.463,19 16.398,73 31/07/2023
435 614300 CARINA CORTIELHA OFICIAL DO MP BELO HORIZONTE - COMARCA; BH-23PJ CIVEL-FISC AC POL PUB I 6.818,83 681,88 0,00 0,00 0,00 0,00 5.624,22 2.105,00 15.229,93 981,10 2.454,59 0,00 0,00 3.435,69 11.794,24 31/07/2023
436 380400 CARINA DIAS FACANHA DE SOUZA ANALISTA DO MP SANTA RITA DO SAPUCAÍ - COMARCA; SANTA RITA DO SAPUCAI-PJ-01PJ 18.720,84 5.616,25 0,00 0,00 0,00 0,00 0,00 3.055,00 27.392,09 3.674,88 4.797,15 0,00 0,00 8.472,03 18.920,06 31/07/2023
437 255000 CARLA ADRIANA DE MENEZES OFICIAL DO MP BELO HORIZONTE - COMARCA; CENT DE APOIO TEC-SETOR DEF,IDOSO E INFANC 12.343,61 4.937,44 0,00 0,00 0,00 0,00 0,00 2.105,00 19.386,05 2.545,92 3.167,20 0,00 0,00 5.713,12 13.672,93 31/07/2023
438 425100 CARLA ADRIANA DINIZ AMARAL OFICIAL DO MP CONTAGEM - COMARCA; CONTAGEM-PJ-SECRETARIA 11.212,54 2.242,51 2.918,39 0,00 0,00 0,00 0,00 2.105,00 18.478,44 1.933,76 3.085,95 0,00 0,00 5.019,71 13.458,73 31/07/2023
439 508100 CARLA ALESSANDRA FONSECA ANALISTA DO MP BELO HORIZONTE - COMARCA; CAO-ORDEM ECONOMICA E TRIBUTARIA-SECRETARIA 12.343,61 2.468,72 0,00 0,00 0,00 0,00 0,00 2.105,00 16.917,33 2.150,92 2.596,93 0,00 0,00 4.747,85 12.169,48 31/07/2023
440 607100 CARLA ANGELICA DIAS MIRANDA OFICIAL DO MP SANTA LUZIA - COMARCA; SANTA LUZIA-PJ-SECRETARIA 7.506,70 750,67 0,00 0,00 0,00 0,00 0,00 2.105,00 10.362,37 1.102,13 926,32 0,00 0,00 2.028,45 8.333,92 31/07/2023
441 351500 CARLA APARECIDA MENDES RAMIRIO OFICIAL DO MP PASSOS - COMARCA; PASSOS-PJ-01PJ 12.343,61 3.703,08 0,00 0,00 0,00 0,00 0,00 2.105,00 18.151,69 2.348,42 2.829,93 0,00 0,00 5.178,35 12.973,34 31/07/2023
442 713100 CARLA DOS SANTOS SOUZA ASSESSOR PROMOTOR JUSTICA ESPERA FELIZ - COMARCA; ESPERA FELIZ-PJ-UNPJ 0,00 0,00 8.810,89 0,00 0,00 0,00 0,00 2.105,00 10.915,89 876,95 1.709,37 0,00 0,00 2.586,32 8.329,57 31/07/2023
443 442800 CARLA GONCALVES COSTA SOALHEIRO ANALISTA DO MP GOVERNADOR VALADARES - COMARCA; GOVERNADOR VALADARES-PJ-11PJ 12.743,19 2.632,11 0,00 0,00 0,00 0,00 0,00 3.055,00 18.430,30 2.307,78 2.656,47 0,00 0,00 4.964,25 13.466,05 31/07/2023
444 321500 CARLA GONCALVES MASSOTE OFICIAL DO MP CAMPO BELO - COMARCA; CAMPO BELO-PJ-02PJ 12.343,61 3.703,08 0,00 0,00 0,00 0,00 0,00 2.105,00 18.151,69 2.348,42 2.882,06 0,00 0,00 5.230,48 12.921,21 31/07/2023
445 429200 CARLA HAUTEQUESTT BECHARA ANALISTA DO MP BELO HORIZONTE - COMARCA; DIRETORIA DE INTELIGENCIA 18.130,77 3.626,15 0,00 0,00 0,00 0,00 558,43 8.196,94 30.512,29 3.262,06 4.201,13 0,00 0,00 7.463,19 23.049,10 31/07/2023
446 247500 CARLA MATILDE GUIMARAES DE OLIVEIRA OFICIAL DO MP ITAJUBA - COMARCA; ITAJUBA-PJ-SECRETARIA 12.343,61 4.937,44 0,00 0,00 0,00 0,00 0,00 2.105,00 19.386,05 2.545,92 3.115,06 0,00 0,00 5.660,98 13.725,07 31/07/2023
447 226100 CARLA MERLI DA CONCEICAO ANALISTA DO MP BELO HORIZONTE - COMARCA; CENTRAL DE APOIO TECNICO-SETOR CONTABIL 23.070,31 9.228,12 0,00 0,00 0,00 0,00 0,00 2.105,00 34.403,43 4.948,70 6.584,08 0,00 0,00 11.532,78 22.870,65 31/07/2023
448 181401 CARLO MICHEL GAUDENSI COELHO ANALISTA DO MP BELO HORIZONTE - COMARCA; BH-08PJ JUIZADO ESPECIAL-SECRETARIA 17.559,01 7.023,60 0,00 0,00 0,00 0,00 0,00 2.105,00 26.687,61 3.714,17 4.853,86 0,00 0,00 8.568,03 18.119,58 31/07/2023
449 634000 CARLOS ALBERTO AMORMINO TRIGUEIRO ANALISTA DO MP BELO HORIZONTE - COMARCA; DIRET DE APOIO AS PROCURADORIAS DE JUSTICA 11.212,54 1.121,25 0,00 0,00 0,00 0,00 0,00 3.055,00 15.388,79 982,16 2.085,06 0,00 0,00 3.067,22 12.321,57 31/07/2023
450 637900 CARLOS ALBERTO DE MOURA OFICIAL DO MP SETE LAGOAS - COMARCA; SETE LAGOAS-PJ-07PJ 7.270,07 727,01 0,00 0,00 0,00 0,00 0,00 2.105,00 10.102,08 982,16 992,01 0,00 0,00 1.974,17 8.127,91 31/07/2023
451 638700 CARLOS ALBERTO FERREIRA BRAGA ANALISTA DO MP VESPASIANO - COMARCA; VESPASIANO-PJ-06PJ 11.212,54 1.121,25 0,00 0,00 0,00 0,00 0,00 2.105,00 14.438,79 982,16 2.132,46 0,00 0,00 3.114,62 11.324,17 31/07/2023
452 375801 CARLOS ALBERTO ROCHA ANALISTA DO MP VARGINHA - COMARCA; GAECO REGIONAL DE VARGINHA 12.343,61 3.209,34 0,00 0,00 0,00 0,00 0,00 4.543,33 20.096,28 2.269,42 2.663,74 0,00 0,00 4.933,16 15.163,12 31/07/2023
453 462800 CARLOS ANDREI SOARES FAGUNDES ANALISTA DO MP MONTES CLAROS - COMARCA; MONTES CLAROS-PJ-09PJ 12.343,61 2.468,72 0,00 0,00 0,00 0,00 0,00 2.105,00 16.917,33 2.150,92 2.544,79 0,00 0,00 4.695,71 12.221,62 31/07/2023
454 370300 CARLOS AUGUSTO BUENO DIAS ASSESSOR ADMINISTRATIVO IV BELO HORIZONTE - COMARCA; SUPERINTENDÊNCIA DE ENGENHARIA E ARQUITETURA 0,00 0,00 14.488,22 0,00 0,00 0,00 0,00 2.105,00 16.593,22 876,95 2.827,07 0,00 0,00 3.704,02 12.889,20 31/07/2023
455 505100 CARLOS CEZAR CARVALHO ANALISTA DO MP CONTAGEM - COMARCA; CONTAGEM-PJ-02PJ 12.343,61 6.171,81 0,00 0,00 0,00 0,00 0,00 2.105,00 20.620,42 2.743,42 3.348,07 0,00 0,00 6.091,49 14.528,93 31/07/2023
456 196800 CARLOS EDUARDO DE OLIVEIRA MARINHO OFICIAL DO MP ALPINÓPOLIS - COMARCA; ALPINOPOLIS-PJ-UNPJ 21.346,53 14.942,57 0,00 0,00 0,00 0,00 133,06 3.556,56 39.978,72 5.587,20 7.505,93 0,00 0,00 13.093,13 26.885,59 31/07/2023
457 650800 CARLOS EDUARDO NIZA DA SILVA OFICIAL DO MP IGARAPÉ - COMARCA; IGARAPE-PJ-01PJ 6.603,76 660,38 0,00 0,00 0,00 0,00 0,00 3.055,00 10.319,14 944,43 748,69 0,00 0,00 1.693,12 8.626,02 31/07/2023
458 491800 CARLOS EDUARDO ROMAN OFICIAL DO MP BARBACENA - COMARCA; BARBACENA-PJ-09PJ 10.516,49 3.154,95 0,00 0,00 0,00 0,00 0,00 2.105,00 15.776,44 1.968,38 2.333,38 0,00 0,00 4.301,76 11.474,68 31/07/2023
459 299300 CARLOS HENRIQUE BICALHO ANALISTA DO MP BELO HORIZONTE - COMARCA; BH-17PJ PATRIMONIO PUBLICO-SECRETARIA 23.070,31 11.535,16 0,00 0,00 0,00 0,00 0,00 3.055,00 37.660,47 5.317,82 7.169,14 0,00 0,00 12.486,96 25.173,51 31/07/2023
460 205100 CARLOS HENRIQUE ESTEVES OFICIAL DO MP ITAMBACURI - COMARCA; ITAMBACURI-PJ-01PJ 21.346,53 8.538,61 0,00 0,00 0,00 0,00 0,00 2.105,00 31.990,14 4.562,57 6.026,61 0,00 0,00 10.589,18 21.400,96 31/07/2023
461 351600 CARLOS HENRIQUE FELICIO DA FONSECA OFICIAL DO MP JUIZ DE FORA - COMARCA; JUIZ DE FORA-PJ-21PJ 12.343,61 4.937,44 0,00 0,00 0,00 0,00 0,00 2.105,00 19.386,05 2.545,92 3.115,06 0,00 0,00 5.660,98 13.725,07 31/07/2023
462 729100 CARLOS HENRIQUE TEIXEIRA BRAGA ASSESSOR ADMINISTRATIVO II BELO HORIZONTE - COMARCA; DIRETORIA DE SUPORTE E MANUTENCAO 0,00 0,00 7.506,70 0,00 0,00 0,00 0,00 2.105,00 9.611,70 876,95 1.350,72 0,00 0,00 2.227,67 7.384,03 31/07/2023
463 85400 CARLOS JOSE VIEIRA OFICIAL DO MP BELO HORIZONTE - COMARCA; DIRETORIA DO COLEGIO E DA CAMARA DE PJ 29.122,38 23.297,91 0,00 0,00 0,00 5.795,34 477,24 7.311,23 66.004,10 5.795,34 9.452,28 14.830,33 0,00 30.077,95 35.926,15 31/07/2023
464 229100 CARLOS MERCES DE OLIVEIRA ANALISTA DO MP BELO HORIZONTE - COMARCA; CENTRAL DE APOIO TECN-SETOR DE MEIO AMBIENTE 23.070,31 9.228,12 0,00 0,00 0,00 0,00 0,00 2.105,00 34.403,43 4.948,70 5.246,34 0,00 0,00 10.195,04 24.208,39 31/07/2023
465 538300 CARLOS RANGEL SILVA DE MELO ANALISTA DO MP BELO HORIZONTE - COMARCA; DIVISAO DE CONTROLE IMOBILIARIO 12.343,61 4.937,44 0,00 0,00 0,00 0,00 0,00 4.005,00 21.286,05 2.545,92 3.167,20 0,00 0,00 5.713,12 15.572,93 31/07/2023
466 265100 CARLOS REIFF MIRANDA ANALISTA DO MP BELO HORIZONTE - COMARCA; BH-19PJ SAUDE-SECRETARIA 150PJ 23.070,31 9.228,12 0,00 0,00 0,00 0,00 2.307,03 2.105,00 36.710,46 5.317,82 7.169,14 0,00 0,00 12.486,96 24.223,50 31/07/2023
467 305400 CARLOS ROCHA DE SOUZA OFICIAL DO MP MONTALVÂNIA - COMARCA; MONTALVANIA-PJ-SECRETARIA 7.506,70 2.252,01 0,00 0,00 0,00 0,00 0,00 2.105,00 11.863,71 1.342,34 1.220,99 0,00 0,00 2.563,33 9.300,38 31/07/2023
468 744500 CARLOS THIAGO COSTA FIGUEREDO OFICIAL DO MP BELO HORIZONTE - COMARCA; SUPER DE GESTAO DE PESSOAS-LOTACAO TEMPORARIA 3.656,20 0,00 0,00 0,00 0,00 0,00 0,00 1.832,27 5.488,47 385,20 98,83 0,00 0,00 484,03 5.004,44 31/07/2023
469 399900 CARMELITA EVANGELISTA DE SOUZA OFICIAL DO MP JOÃO PINHEIRO - COMARCA; JOAO PINHEIRO-PJ-01PJ 10.858,90 2.171,78 0,00 0,00 0,00 0,00 0,00 2.105,00 15.135,68 1.865,86 2.185,37 0,00 0,00 4.051,23 11.084,45 31/07/2023
470 202000 CARMEN LUCIA MARIZ DE MACEDO OFICIAL DO MP BELO HORIZONTE - COMARCA; DIRETORIA GESTAO COMPRAS LICITACOES 20.533,67 14.373,58 5.434,83 0,00 0,00 0,00 551,32 8.119,39 49.012,79 5.366,11 7.872,32 2.752,12 0,00 15.990,55 33.022,24 31/07/2023
471 701900 CAROLINA CARVALHO COSTA ASSESSOR PROCURADOR JUSTICA BELO HORIZONTE - COMARCA; GABINETE DE PROCURADOR DE JUSTIÇA - SALA 811 0,00 0,00 8.810,89 0,00 0,00 0,00 0,00 2.105,00 10.915,89 876,95 1.709,37 0,00 0,00 2.586,32 8.329,57 31/07/2023
472 228500 CAROLINA CHIARELLA DOS SANTOS RIBEIRO COORDENADOR I BELO HORIZONTE - COMARCA; DIVISAO TRANSPORTES 16.469,17 6.587,67 0,00 0,00 0,00 0,00 0,00 2.105,00 25.161,84 2.545,92 4.651,27 0,00 0,00 7.197,19 17.964,65 31/07/2023
473 446500 CAROLINA COSTA VAL RODRIGUES ANALISTA DO MP BELO HORIZONTE - COMARCA; DIVISAO DE MATERIAIS 17.559,01 5.267,70 4.940,75 0,00 0,00 0,00 0,00 2.105,00 29.872,46 3.433,22 5.806,96 0,00 0,00 9.240,18 20.632,28 31/07/2023
474 603501 CAROLINA DOMINGOS BRANDAO RABELLO ANALISTA DO MP BARROSO - COMARCA; BARROSO-PJ-01PJ 12.343,61 1.234,36 0,00 0,00 0,00 0,00 0,00 4.005,00 17.582,97 1.953,42 2.311,79 0,00 0,00 4.265,21 13.317,76 31/07/2023
475 404300 CAROLINA DOS SANTOS VIEIRA ANALISTA DO MP BELO HORIZONTE - COMARCA; BH-08PJ JUIZADO ESPECIAL-SECRETARIA 18.720,84 3.744,17 0,00 0,00 0,00 0,00 0,00 2.105,00 24.570,01 3.375,35 4.260,42 0,00 0,00 7.635,77 16.934,24 31/07/2023
476 551200 CAROLINA LOPES ARANTES MASCARENHAS ANALISTA DO MP BELO HORIZONTE - COMARCA; CAO-VIOLENCIA DOMESTICA E FAMILIAR 12.343,61 2.468,72 0,00 0,00 0,00 0,00 0,00 2.105,00 16.917,33 2.150,92 2.492,65 0,00 0,00 4.643,57 12.273,76 31/07/2023
477 622600 CAROLINA LOREDO LOPES CATIZANI OFICIAL DO MP RIBEIRÃO DAS NEVES - COMARCA; RIBEIRAO DAS NEVES-PJ-12PJ 6.818,83 681,88 0,00 0,00 0,00 0,00 0,00 2.105,00 9.605,71 981,10 907,93 0,00 0,00 1.889,03 7.716,68 31/07/2023
478 382200 CAROLINA MENDES CHAVES LIN ANALISTA DO MP BELO HORIZONTE - COMARCA; BH-12PJ JUIZO CRIMINAL-GAB 088PJ 12.343,61 3.703,08 0,00 0,00 0,00 0,00 0,00 3.055,00 19.101,69 2.348,42 2.829,93 0,00 0,00 5.178,35 13.923,34 31/07/2023
479 461900 CAROLINA MURTA TEIXEIRA DIAS ANALISTA DO MP BELO HORIZONTE - COMARCA; CENTRO AUTOCOMPOSICAO DE CONFLITOS 12.343,61 2.468,72 0,00 0,00 0,00 0,00 0,00 2.105,00 16.917,33 2.150,92 2.596,93 0,00 0,00 4.747,85 12.169,48 31/07/2023
480 509600 CAROLINA PINTO DE OLIVEIRA SOUZA ANALISTA DO MP MURIAÉ - COMARCA; MURIAE-PJ-01PJ 12.343,61 2.468,72 0,00 0,00 0,00 0,00 0,00 3.055,00 17.867,33 2.150,92 2.492,65 0,00 0,00 4.643,57 13.223,76 31/07/2023
481 629100 CAROLINA RODRIGUES AMARAL ANALISTA DO MP BELO HORIZONTE - COMARCA; PROC. JUSTICA DIR. DIFUSOS E COLETIVOS-SEC 11.577,56 1.157,76 0,00 0,00 0,00 0,00 0,00 2.105,00 14.840,32 1.818,60 2.117,14 0,00 0,00 3.935,74 10.904,58 31/07/2023
482 502600 CAROLINA RODRIGUES RUBEN ANALISTA DO MP BELO HORIZONTE - COMARCA; BH-18PJ VIOLENCIA DOMESTICA-GAB 007PJ 12.343,61 2.468,72 0,00 0,00 0,00 0,00 0,00 4.005,00 18.817,33 2.150,92 2.492,65 0,00 0,00 4.643,57 14.173,76 31/07/2023
483 529600 CAROLINA VAZ DE MELO MAMBRINI ANALISTA DO MP BELO HORIZONTE - COMARCA; BH-14PJ DEFESA CONSUMIDOR-GAB 005PJ 12.343,61 2.468,72 0,00 0,00 0,00 0,00 0,00 2.105,00 16.917,33 2.150,92 2.596,93 0,00 0,00 4.747,85 12.169,48 31/07/2023
484 619100 CAROLINA ZAKHIA NARDELLI RODRIGUES ANALISTA DO MP NEPOMUCENO - COMARCA; NEPOMUCENO-PJ-UNPJ 11.577,56 1.157,76 0,00 0,00 0,00 0,00 0,00 3.055,00 15.790,32 1.818,60 2.065,00 0,00 0,00 3.883,60 11.906,72 31/07/2023
485 517600 CAROLINE ALVES DE OLIVEIRA MULLER ANALISTA DO MP VISCONDE DO RIO BRANCO - COMARCA; VISCONDE DO RIO BRANCO-PJ-01PJ 12.343,61 3.703,08 0,00 0,00 0,00 0,00 0,00 2.105,00 18.151,69 2.348,42 2.829,93 0,00 0,00 5.178,35 12.973,34 31/07/2023
486 373200 CAROLINE ANTUNES RIBEIRO OFICIAL DO MP JACUI - COMARCA; JACUI-PJ-UNPJ 12.343,61 3.703,08 0,00 0,00 0,00 0,00 0,00 2.105,00 18.151,69 2.348,42 2.829,93 0,00 0,00 5.178,35 12.973,34 31/07/2023
487 723500 CAROLINE CORDEIRO FERNANDES MACHADO ASSESSOR PROMOTOR JUSTICA BELO HORIZONTE - COMARCA; COORD DE INCLUSAO E MOBILIZACAO SOCIAIS 0,00 0,00 8.810,89 0,00 0,00 0,00 0,00 2.105,00 10.915,89 876,95 1.709,37 0,00 0,00 2.586,32 8.329,57 31/07/2023
488 556800 CAROLINE DE SOUZA CARDOSO DOMINGUES OFICIAL DO MP BRASÍLIA DE MINAS - COMARCA; BRASILIA DE MINAS-PJ-02PJ 7.506,70 1.501,34 0,00 0,00 0,00 0,00 750,67 2.105,00 11.863,71 1.342,34 1.429,54 0,00 0,00 2.771,88 9.091,83 31/07/2023
489 499400 CAROLINE MARQUES DE LOURDES MARZULLO OFICIAL DO MP JUIZ DE FORA - COMARCA; JUIZ DE FORA-PJ-08PJ 10.516,49 2.103,30 0,00 0,00 0,00 0,00 0,00 3.530,00 16.149,79 982,16 2.209,95 0,00 0,00 3.192,11 12.957,68 31/07/2023
490 616800 CAROLINE MONTEIRO DE BARROS ANALISTA DO MP CONTAGEM - COMARCA; CONTAGEM-PJ-11PJ 11.577,56 1.157,76 0,00 0,00 0,00 0,00 0,00 3.055,00 15.790,32 982,16 2.239,33 0,00 0,00 3.221,49 12.568,83 31/07/2023
491 618100 CAROLINE VASCONCELOS COSTA LANZA ANALISTA DO MP PARAOPEBA - COMARCA; PARAOPEBA-PJ-UNPJ 11.577,56 1.157,76 0,00 0,00 0,00 0,00 0,00 4.005,00 16.740,32 1.818,60 2.117,14 0,00 0,00 3.935,74 12.804,58 31/07/2023
492 699000 CAROLLINA RODRIGUES SOUTO AMARAL ASSESSOR PROCURADOR JUSTICA BELO HORIZONTE - COMARCA; GABINETE DE PROCURADOR DE JUSTIÇA - SALA 405 0,00 0,00 8.810,89 0,00 0,00 0,00 0,00 2.105,00 10.915,89 876,95 1.709,37 0,00 0,00 2.586,32 8.329,57 31/07/2023
493 604000 CASSIA APARECIDA DA SILVA OFICIAL DO MP PARACATU - COMARCA; PARACATU-PJ-01PJ 7.506,70 750,67 0,00 0,00 0,00 0,00 0,00 2.105,00 10.362,37 1.102,13 1.082,73 0,00 0,00 2.184,86 8.177,51 31/07/2023
494 268800 CASSIA BEATRIZ TEIXEIRA OFICIAL DO MP BELO HORIZONTE - COMARCA; PROC. JUSTICA DE HABEAS CORPUS 17.559,01 5.267,70 4.346,47 0,00 0,00 0,00 0,00 2.105,00 29.278,18 3.433,22 5.643,53 0,00 0,00 9.076,75 20.201,43 31/07/2023
495 500000 CASSIA DE OLIVEIRA COSTA VIANA ANALISTA DO MP SETE LAGOAS - COMARCA; SETE LAGOAS-PJ-09PJ 12.343,61 8.640,53 0,00 504,04 92,92 22.651,79 0,00 2.105,00 46.337,89 3.138,41 9.841,07 0,00 0,00 12.979,48 33.358,41 31/07/2023
496 368800 CASSIA LUISA BATISTA MENDONCA WEBER COORDENADOR II BELO HORIZONTE - COMARCA; DIVISÃO DE EDUCAÇÃO PARA O CONSUMO 20.533,67 6.160,10 0,00 0,00 0,00 0,00 0,00 2.105,00 28.798,77 1.932,03 5.924,52 0,00 0,00 7.856,55 20.942,22 31/07/2023
497 622200 CASSIA VAZ DE AZEVEDO LISBOA MARZANO ASSESSOR ADMINISTRATIVO III BELO HORIZONTE - COMARCA; CGMP-DIR ESTAGIO PROBATORIO E ORIENT 0,00 0,00 10.858,90 0,00 0,00 0,00 0,00 2.105,00 12.963,90 876,95 2.116,16 0,00 0,00 2.993,11 9.970,79 31/07/2023
498 121000 CASSIO HENRIQUE AFONSO DA SILVA OFICIAL DO MP BELO HORIZONTE - COMARCA; CGMP-ASSESSORIA TECNICA 23.070,31 18.456,25 0,00 0,00 0,00 0,00 275,66 5.112,19 46.914,41 5.795,34 7.754,29 3.936,60 0,00 17.486,23 29.428,18 31/07/2023
499 512001 CATARINA NATALINO CALIXTO COORDENADOR II BELO HORIZONTE - COMARCA; DIRETORIA GESTAO TRANSPORTES 20.533,67 3.285,39 0,00 0,00 7.939,69 0,00 524,02 8.771,57 41.054,34 1.929,74 7.318,02 0,00 0,00 9.247,76 31.806,58 31/07/2023
500 606200 CATARINE DE SIQUEIRA DE QUADROS ANALISTA DO MP CONTAGEM - COMARCA; CONTAGEM-PJ-08PJ 12.343,61 1.234,36 0,00 0,00 0,00 0,00 0,00 3.055,00 16.632,97 1.953,42 2.207,52 0,00 0,00 4.160,94 12.472,03 31/07/2023
501 622300 CECILIA APARECIDA PEREIRA ASSUNCAO OFICIAL DO MP TRÊS PONTAS - COMARCA; TRES PONTAS-PJ-SECRETARIA 8.003,54 800,35 0,00 0,00 0,00 0,00 0,00 3.055,00 11.858,89 1.189,57 1.156,84 0,00 0,00 2.346,41 9.512,48 31/07/2023
502 538000 CECILIA FONTES DE MATOS PIMENTEL ANALISTA DO MP PALMA - COMARCA; PALMA-PJ-UNPJ 12.343,61 2.468,72 0,00 0,00 0,00 0,00 0,00 3.055,00 17.867,33 2.150,92 2.596,93 0,00 0,00 4.747,85 13.119,48 31/07/2023
503 261300 CECILIO ANTONIO CAMPOS DOS REIS ANALISTA DO MP BELO HORIZONTE - COMARCA; AUDITORIA INTERNA 23.070,31 9.228,12 0,00 0,00 0,00 0,00 0,00 2.105,00 34.403,43 4.948,70 6.636,22 0,00 0,00 11.584,92 22.818,51 31/07/2023
504 386400 CEFAS AMORELI DE FIGUEIREDO OFICIAL DO MP CABO VERDE - COMARCA; CABO VERDE-PJ-SECRETARIA 7.506,70 2.252,01 0,00 0,00 0,00 0,00 0,00 2.105,00 11.863,71 1.342,34 1.429,54 0,00 0,00 2.771,88 9.091,83 31/07/2023
505 421000 CELINA BENEDITA DE SOUZA ALMEIDA OFICIAL DO MP CAMBUÍ - COMARCA; CAMBUI-PJ-01PJ 11.212,54 7.848,77 0,00 0,00 0,00 0,00 0,00 2.105,00 21.166,31 2.830,76 3.526,30 0,00 0,00 6.357,06 14.809,25 31/07/2023
506 252900 CELIO DE MELO CASTOR ANALISTA DO MP BELO HORIZONTE - COMARCA; DIVISAO FROTA 23.070,31 9.228,12 0,00 0,00 0,00 0,00 0,00 2.105,00 34.403,43 4.948,70 6.636,22 0,00 0,00 11.584,92 22.818,51 31/07/2023
507 395700 CELIO FERREIRA LIMA OFICIAL DO MP CONTAGEM - COMARCA; CONTAGEM-PJ-SECRETARIA 11.954,43 3.586,33 0,00 0,00 0,00 0,00 0,00 2.105,00 17.645,76 2.267,47 2.713,06 0,00 0,00 4.980,53 12.665,23 31/07/2023
508 281300 CELMA REGINA PEREIRA SANTOS ANALISTA DO MP BELO HORIZONTE - COMARCA; PROMOT ESTADUAL DE DEF PATRI CULT E TUR DE MG 23.070,31 6.921,09 0,00 0,00 0,00 0,00 0,00 2.105,00 32.096,40 4.579,57 6.103,29 0,00 0,00 10.682,86 21.413,54 31/07/2023
509 535600 CELSO MEDEIROS DE PAIVA OFICIAL DO MP RIO PRETO - COMARCA; RIO PRETO-PJ-SECRETARIA 7.506,70 1.501,34 0,00 0,00 0,00 0,00 0,00 2.105,00 11.113,04 1.222,23 1.204,00 0,00 0,00 2.426,23 8.686,81 31/07/2023
510 367000 CESAR NARVAES DE AVELAR OFICIAL DO MP BELO HORIZONTE - COMARCA; DIRET DE INFORMACAO E CONHECIMENTO-DINC/CEAF 12.343,61 3.703,08 0,00 0,00 0,00 0,00 0,00 2.105,00 18.151,69 2.348,42 2.882,06 0,00 0,00 5.230,48 12.921,21 31/07/2023
511 226500 CESAR SILVEIRA BARROUIN OFICIAL DO MP BELO HORIZONTE - COMARCA; DIRETORIA DE ADMINISTRACAO FINANCEIRA 17.559,01 8.779,51 0,00 0,00 0,00 0,00 0,00 2.105,00 28.443,52 3.995,11 5.259,48 0,00 0,00 9.254,59 19.188,93 31/07/2023
512 121400 CEZAR MORENO CONCEICAO TAVARES OFICIAL DO MP BELO HORIZONTE - COMARCA; COORD DE INCLUSAO E MOBILIZACAO SOCIAIS 22.191,68 17.753,35 0,00 0,00 0,00 5.795,34 477,24 8.261,23 54.478,84 5.795,34 9.348,00 2.355,07 0,00 17.498,41 36.980,43 31/07/2023
513 243800 CHARLES MARTINS MUNIZ OFICIAL DO MP BELO HORIZONTE - COMARCA; LAB TECNOLOGIA CONTRA LAVAGEM DINHEIRO 17.559,01 7.023,60 0,00 0,00 0,00 0,00 0,00 1.500,00 26.082,61 3.714,17 4.853,86 0,00 0,00 8.568,03 17.514,58 31/07/2023
514 193500 CHARLIN CESAR KOURLY OFICIAL DO MP ARAGUARI - COMARCA; ARAGUARI-PJ-07PJ 21.346,53 8.538,61 0,00 0,00 0,00 0,00 0,00 2.105,00 31.990,14 4.562,57 6.078,75 0,00 0,00 10.641,32 21.348,82 31/07/2023
515 385500 CHILLEN PEIXOTO DE MOURA OFICIAL DO MP BELO HORIZONTE - COMARCA; DIVISAO DE MATERIAIS 11.954,43 3.586,33 0,00 0,00 0,00 0,00 0,00 4.005,00 19.545,76 2.267,47 2.765,19 0,00 0,00 5.032,66 14.513,10 31/07/2023
516 534500 CHRISTIAN DOUGLAS BRITO RUAS OFICIAL DO MP SÃO JOÃO DA PONTE - COMARCA; SAO JOAO DA PONTE-PJ-SECRETARIA 7.506,70 1.501,34 0,00 0,00 0,00 0,00 0,00 2.105,00 11.113,04 1.222,23 1.256,14 0,00 0,00 2.478,37 8.634,67 31/07/2023
517 370600 CHRISTIAN KARINE FELIX PRATES ASSESSOR ADMINISTRATIVO IV BELO HORIZONTE - COMARCA; SUPRIN DE PLANEJAMENTO E COORDENACAO 0,00 0,00 14.488,22 0,00 0,00 0,00 0,00 2.105,00 16.593,22 876,95 3.270,64 0,00 0,00 4.147,59 12.445,63 31/07/2023
518 435800 CHRISTIANA BAHIA ANDRADE PINA ANALISTA DO MP BELO HORIZONTE - COMARCA; LABORATORIO TECNOLOGIA INTELIGENCIA 18.130,77 3.626,15 0,00 0,00 0,00 0,00 0,00 2.105,00 23.861,92 3.262,06 4.201,13 0,00 0,00 7.463,19 16.398,73 31/07/2023
519 516800 CHRISTIANE FERREIRA DO NASCIMENTO ANALISTA DO MP POUSO ALEGRE - COMARCA; POUSO ALEGRE-PJ-04PJ 12.343,61 2.468,72 0,00 0,00 0,00 0,00 0,00 2.105,00 16.917,33 2.150,92 2.596,93 0,00 0,00 4.747,85 12.169,48 31/07/2023
520 176000 CHRISTIANE JUNQUEIRA PULITI ANDRADE DE BARROS ASSESSOR ADM. ESPECIAL BELO HORIZONTE - COMARCA; PROCURADORIA-GERAL ADJUNTA INSTITUCIONAL 0,00 22.410,72 28.013,39 0,00 0,00 5.795,34 477,23 7.311,23 64.007,91 5.795,34 9.452,28 12.834,15 0,00 28.081,77 35.926,14 31/07/2023
521 319200 CHRISTIANE MARIA DE ASSIS RUSSO OFICIAL DO MP BELO HORIZONTE - COMARCA; CAO-ORDEM ECONOMICA E TRIBUTARIA-SECRETARIA 15.447,01 4.634,10 0,00 0,00 0,00 0,00 0,00 3.055,00 23.136,11 2.993,93 3.761,88 0,00 0,00 6.755,81 16.380,30 31/07/2023
522 510300 CHRISTIANE MARY DE CARVALHO FERREIRA ANALISTA DO MP BELO HORIZONTE - COMARCA; DIRETORIA DE SISTEMAS DE INFORMACAO 12.343,61 2.468,72 0,00 0,00 0,00 0,00 0,00 2.105,00 16.917,33 2.150,92 2.544,79 0,00 0,00 4.695,71 12.221,62 31/07/2023
523 424900 CHRISTIANE PEREIRA TURNER DE ARAUJO OFICIAL DO MP BELO HORIZONTE - COMARCA; CAO-PATRIMONIO PUBLICO 11.212,54 2.242,51 0,00 0,00 0,00 0,00 0,00 3.055,00 16.510,05 1.933,76 2.179,12 0,00 0,00 4.112,88 12.397,17 31/07/2023
524 731000 CHRISTIANE TEIXEIRA ANTUNA ASSESSOR ADMINISTRATIVO III BELO HORIZONTE - COMARCA; DIR CONTEUDO JORNALISTICO 0,00 0,00 10.858,90 0,00 0,00 0,00 0,00 2.105,00 12.963,90 876,95 2.272,58 0,00 0,00 3.149,53 9.814,37 31/07/2023
525 513700 CHRISTIANE VIEIRA SOARES PEDERSOLI COORDENADOR II BELO HORIZONTE - COMARCA; ASSESSORIA JURIDICA DO PROCON-MG 20.533,67 4.106,73 0,00 0,00 0,00 0,00 0,00 3.055,00 27.695,40 2.150,92 5.299,65 0,00 0,00 7.450,57 20.244,83 31/07/2023
526 412300 CHRYSTIAN MACHADO RIBEIRO ANALISTA DO MP VARGINHA - COMARCA; VARGINHA-PJ-04PJ 18.130,77 3.626,15 0,00 0,00 0,00 0,00 0,00 2.105,00 23.861,92 3.262,06 4.201,13 0,00 0,00 7.463,19 16.398,73 31/07/2023
527 513800 CHRYSTIANE DO NASCIMENTO DE MAGALHAES OFICIAL DO MP UBERLÂNDIA - COMARCA; UBERLANDIA-PJ-10PJ 9.699,77 1.939,95 0,00 0,00 0,00 0,00 0,00 2.105,00 13.744,72 1.643,30 1.759,78 0,00 0,00 3.403,08 10.341,64 31/07/2023
528 497900 CIBELE DE FREITAS SANCHES DIAS ANALISTA DO MP SABARÁ - COMARCA; SABARA-PJ-03PJ 12.343,61 2.468,72 0,00 0,00 0,00 0,00 0,00 2.105,00 16.917,33 982,16 2.715,54 0,00 0,00 3.697,70 13.219,63 31/07/2023
529 500900 CIBELLE SILVA PRADO ALVARENGA ANALISTA DO MP ITANHANDU - COMARCA; ITANHANDU-PJ-UNPJ 12.343,61 2.468,72 0,00 0,00 0,00 0,00 0,00 3.055,00 17.867,33 2.150,92 2.596,93 0,00 0,00 4.747,85 13.119,48 31/07/2023
530 296400 CINTIA APARECIDA MOREIRA NAVES E RODRIGUES ANALISTA DO MP CAMPO BELO - COMARCA; CAMPO BELO-PJ-01PJ 23.070,31 6.921,09 0,00 0,00 0,00 0,00 0,00 2.105,00 32.096,40 4.579,57 6.103,29 0,00 0,00 10.682,86 21.413,54 31/07/2023
531 407900 CINTIA NETO COMELLI ANALISTA DO MP BELO HORIZONTE - COMARCA; CENTRAL DE APOIO TECNICO-SETOR CONTABIL 18.130,77 3.626,15 0,00 0,00 0,00 0,00 0,00 2.105,00 23.861,92 3.262,06 4.148,99 0,00 0,00 7.411,05 16.450,87 31/07/2023
532 304700 CINTIA QUEIROZ OFICIAL DO MP BELO HORIZONTE - COMARCA; OUVIDORIA DO MPMG 12.343,61 3.703,08 0,00 0,00 0,00 0,00 0,00 2.105,00 18.151,69 2.348,42 2.882,06 0,00 0,00 5.230,48 12.921,21 31/07/2023
533 286100 CIRO CANGUSSU CORDEIRO OFICIAL DO MP IPATINGA - COMARCA; IPATINGA-PJ-09PJ 10.516,49 3.154,95 0,00 0,00 0,00 0,00 0,00 3.055,00 16.726,44 1.968,38 2.229,11 0,00 0,00 4.197,49 12.528,95 31/07/2023
534 689900 CISSA NOGUEIRA COLEN ASSESSOR PROCURADOR JUSTICA BELO HORIZONTE - COMARCA; GABINETE DE PROCURADOR DE JUSTIÇA - SALA 608 0,00 0,00 8.810,89 0,00 0,00 0,00 0,00 2.105,00 10.915,89 876,95 1.709,37 0,00 0,00 2.586,32 8.329,57 31/07/2023
535 681700 CLARA FERREIRA ALKIMIM ASSESSOR PROMOTOR JUSTICA PEDRA AZUL - COMARCA; PEDRA AZUL-PJ-02PJ 0,00 0,00 8.810,89 0,00 0,00 0,00 0,00 2.105,00 10.915,89 876,95 1.709,37 0,00 0,00 2.586,32 8.329,57 31/07/2023
536 715500 CLARA ISABELLE SOUSA FARIA ASSESSOR PROCURADOR JUSTICA BELO HORIZONTE - COMARCA; GABINETE DE PROCURADOR DE JUSTIÇA - SALA 712 0,00 0,00 8.810,89 0,00 0,00 0,00 0,00 2.105,00 10.915,89 876,95 1.709,37 0,00 0,00 2.586,32 8.329,57 31/07/2023
537 723100 CLARA PRADO CAMPOS ASSESSOR PROCURADOR JUSTICA BELO HORIZONTE - COMARCA; GABINETE DE PROCURADOR DE JUSTIÇA - SALA 1006 0,00 0,00 8.810,89 0,00 0,00 0,00 0,00 2.105,00 10.915,89 876,95 1.709,37 0,00 0,00 2.586,32 8.329,57 31/07/2023
538 695500 CLARA RODRIGUES BLACH ASSESSOR PROCURADOR JUSTICA BELO HORIZONTE - COMARCA; GABINETE DE PROCURADOR DE JUSTIÇA - SALA 1003 0,00 0,00 8.810,89 0,00 0,00 0,00 0,00 2.105,00 10.915,89 876,95 1.709,37 0,00 0,00 2.586,32 8.329,57 31/07/2023
539 412500 CLARICE GOMES MAROTTA ANALISTA DO MP BELO HORIZONTE - COMARCA; COORD ESTADUAL DE DEFESA DOS ANIMAIS 18.130,77 7.252,31 0,00 0,00 0,00 0,00 186,14 4.135,65 29.704,87 3.842,24 5.038,77 0,00 0,00 8.881,01 20.823,86 31/07/2023
540 605300 CLARISSA AZEVEDO ROCHA OFICIAL DO MP BELO HORIZONTE - COMARCA; BH-16PJ HABITACAO URBANISMO-GAB 117PJ 7.506,70 750,67 0,00 0,00 0,00 0,00 0,00 2.105,00 10.362,37 1.102,13 1.082,73 0,00 0,00 2.184,86 8.177,51 31/07/2023
541 308100 CLARISSA DUARTE BELLONI DIRETOR-GERAL BELO HORIZONTE - COMARCA; DIRETORIA-GERAL 34.667,33 10.400,20 0,00 0,00 0,00 0,00 275,66 7.962,19 53.305,38 4.579,57 8.088,62 7.477,57 0,00 20.145,76 33.159,62 31/07/2023
542 730500 CLARISSA FERNANDES ABREU ASSESSOR PROMOTOR JUSTICA SANTOS DUMONT - COMARCA; SANTOS DUMONT-PJ-02PJ 0,00 0,00 8.810,89 0,00 0,00 0,00 0,00 2.105,00 10.915,89 876,95 1.709,37 0,00 0,00 2.586,32 8.329,57 31/07/2023
543 743200 CLARISSA GODINHO PRATES ASSESSOR ADMINISTRATIVO I GOVERNADOR VALADARES - COMARCA; COOR REG APOIO COM INC MOB VALE DO RIO DOCE 0,00 0,00 4.872,71 0,00 0,00 0,00 1.949,08 3.391,82 10.213,61 876,95 1.349,87 0,00 0,00 2.226,82 7.986,79 31/07/2023
544 497100 CLARISSA ROCHA GUIDI ANALISTA DO MP BELO HORIZONTE - COMARCA; BH-02PJ FAMILIA-SECRETARIA 14.960,00 2.992,00 0,00 0,00 0,00 0,00 0,00 4.005,00 21.957,00 2.653,27 3.270,05 0,00 0,00 5.923,32 16.033,68 31/07/2023
545 641800 CLARISSE TAVARES GONCALVES OFICIAL DO MP BELO HORIZONTE - COMARCA; BH-07PJ 01 TRIBUNAL JURI-SECRETARIA 7.270,07 727,01 0,00 0,00 0,00 0,00 0,00 2.105,00 10.102,08 982,16 1.044,14 0,00 0,00 2.026,30 8.075,78 31/07/2023
546 463700 CLAUDIA ADRIANA FERRAO DIAS ANALISTA DO MP SETE LAGOAS - COMARCA; SETE LAGOAS-PJ-06PJ 12.343,61 2.468,72 0,00 0,00 0,00 0,00 0,00 2.105,00 16.917,33 2.150,92 2.596,93 0,00 0,00 4.747,85 12.169,48 31/07/2023
547 415400 CLAUDIA ALMEIDA DE VASCONCELLOS BARROS OFICIAL DO MP BELO HORIZONTE - COMARCA; DIVISAO DE SERVICOS 10.858,90 2.171,78 4.020,58 0,00 0,00 0,00 0,00 2.105,00 19.156,26 1.865,86 3.291,03 0,00 0,00 5.156,89 13.999,37 31/07/2023
548 207000 CLAUDIA APARECIDA VILELA MACHADO ANALISTA DO MP BELO HORIZONTE - COMARCA; CENTRAL DE APOIO TECNICO-SETOR CONTABIL 23.070,31 11.535,16 0,00 0,00 0,00 0,00 507,55 7.641,88 42.754,90 5.317,82 7.012,73 0,00 0,00 12.330,55 30.424,35 31/07/2023
549 365700 CLAUDIA BREGUEZ CUNHA ANALISTA DO MP VARGINHA - COMARCA; VARGINHA-PJ-07PJ 20.533,67 6.160,10 0,00 0,00 0,00 0,00 0,00 3.055,00 29.748,77 4.051,95 5.341,54 0,00 0,00 9.393,49 20.355,28 31/07/2023
550 430500 CLAUDIA CECILIA SANTANA VENCESLAU OFICIAL DO MP BELO HORIZONTE - COMARCA; LAB TECNOLOGIA CONTRA LAVAGEM DINHEIRO 11.212,54 2.242,51 0,00 0,00 0,00 0,00 0,00 2.105,00 15.560,05 1.933,76 2.231,26 0,00 0,00 4.165,02 11.395,03 31/07/2023
551 213601 CLAUDIA GONCALVES CALIXTO ASSESSOR PROCURADOR JUSTICA BELO HORIZONTE - COMARCA; PROC. JUSTICA DIR. DIFUSOS E COLETIVOS-SEC 0,00 0,00 8.810,89 0,00 0,00 0,00 0,00 2.105,00 10.915,89 876,95 1.709,37 0,00 0,00 2.586,32 8.329,57 31/07/2023
552 480400 CLAUDIA GOULART DE SOUZA OFICIAL DO MP PASSOS - COMARCA; PASSOS-PJ-06PJ 10.516,49 3.154,95 0,00 0,00 0,00 0,00 0,00 2.105,00 15.776,44 1.968,38 2.333,38 0,00 0,00 4.301,76 11.474,68 31/07/2023
553 519800 CLAUDIA HELENA CORREA DE ALMEIDA ANALISTA DO MP BELO HORIZONTE - COMARCA; BH-12PJ JUIZO CRIMINAL-GAB 096PJ 12.343,61 2.468,72 0,00 0,00 0,00 0,00 0,00 2.105,00 16.917,33 2.150,92 2.596,93 0,00 0,00 4.747,85 12.169,48 31/07/2023
554 422100 CLAUDIA IACOMINI CABRAL ANALISTA DO MP BELO HORIZONTE - COMARCA; CENT DE APOIO TEC-SETOR DEF,IDOSO E INFANC 18.130,77 12.691,55 0,00 0,00 0,00 0,00 0,00 2.105,00 32.927,32 4.712,52 6.295,24 0,00 0,00 11.007,76 21.919,56 31/07/2023
555 258200 CLAUDIA LAGE MICHALAROS ANALISTA DO MP BELO HORIZONTE - COMARCA; CENTRAL DE APOIO TECN-SETOR DE MEIO AMBIENTE 23.070,31 18.456,25 0,00 0,00 0,00 5.795,34 0,00 2.105,00 49.426,90 5.795,34 9.452,28 3.936,60 0,00 19.184,22 30.242,68 31/07/2023
556 284600 CLAUDIA LENI DE FREITAS OFICIAL DO MP CONTAGEM - COMARCA; CONTAGEM-PJ-SECRETARIA 7.506,70 3.753,35 0,00 0,00 0,00 1.582,56 0,00 2.105,00 14.947,61 1.582,56 2.211,55 0,00 0,00 3.794,11 11.153,50 31/07/2023
557 433600 CLAUDIA LUIZA SANTIAGO FELICIO ANALISTA DO MP BELO HORIZONTE - COMARCA; CENT DE APOIO TEC-SETOR DEF,IDOSO E INFANC 18.130,77 3.626,15 0,00 0,00 0,00 0,00 558,43 8.196,94 30.512,29 3.262,06 4.096,85 0,00 0,00 7.358,91 23.153,38 31/07/2023
558 317000 CLAUDIA MACHADO ALVES OFICIAL DO MP BELO HORIZONTE - COMARCA; DIR GOVERNANCA TECNOLOGIA INFORMACAO 12.343,61 3.703,08 4.020,58 0,00 0,00 0,00 0,00 2.105,00 22.172,27 2.348,42 3.987,72 0,00 0,00 6.336,14 15.836,13 31/07/2023
559 155300 CLAUDIA MACIEL MIRANDA OFICIAL DO MP CONGONHAS - COMARCA; CONGONHAS-PJ-02PJ 22.191,68 15.534,18 0,00 0,00 0,00 0,00 551,32 8.119,40 46.396,58 5.795,34 7.754,29 135,90 0,00 13.685,53 32.711,05 31/07/2023
560 746300 CLAUDIA MAGDA SANTANA ANALISTA DO MP BELO HORIZONTE - COMARCA; SUPERINTENDENCIA GESTÃO DE PESSOAS 5.632,62 0,00 0,00 0,00 0,00 0,00 0,00 1.832,27 7.464,89 691,54 473,84 0,00 0,00 1.165,38 6.299,51 31/07/2023
561 242200 CLAUDIA MICHELLE DIAS MUNIZ BALEEIRO OFICIAL DO MP MONTE AZUL - COMARCA; MONTE AZUL-PJ-SECRETARIA 17.559,01 8.779,51 0,00 0,00 0,00 0,00 0,00 2.105,00 28.443,52 3.995,11 5.207,34 0,00 0,00 9.202,45 19.241,07 31/07/2023
562 623000 CLAUDIA PATRICIA SILVA RODRIGUES RAPOSEIRAS OFICIAL DO MP BELO HORIZONTE - COMARCA; DIVISÃO DE EDUCAÇÃO PARA O CONSUMO 7.506,70 750,67 0,00 0,00 0,00 0,00 0,00 2.105,00 10.362,37 1.102,13 1.030,59 0,00 0,00 2.132,72 8.229,65 31/07/2023
563 418400 CLAUDIA REGINA MARTINS BONIFACIO OFICIAL DO MP ITUIUTABA - COMARCA; ITUIUTABA-PJ-06PJ 11.212,54 2.242,51 0,00 0,00 0,00 0,00 0,00 2.105,00 15.560,05 1.933,76 2.179,12 0,00 0,00 4.112,88 11.447,17 31/07/2023
564 498300 CLAUDIA SOUTO FARIAS BRAUN OFICIAL DO MP TEÓFILO OTONI - COMARCA; TEOFILO OTONI-PJ-SECRETARIA 7.506,70 1.501,34 0,00 0,00 0,00 0,00 0,00 2.105,00 11.113,04 1.222,23 1.151,86 0,00 0,00 2.374,09 8.738,95 31/07/2023
565 206500 CLAUDIA VALERIA FONSECA ANDRADE ANALISTA DO MP BELO HORIZONTE - COMARCA; BH-23PJ INF-FISC MED SOC FEC 23.070,31 16.149,22 0,00 0,00 0,00 5.795,34 477,23 7.311,23 52.803,33 5.795,34 9.452,28 1.629,57 0,00 16.877,19 35.926,14 31/07/2023
566 277500 CLAUDIO ANTONIO BORGES BRUNSWICK ALVARES OFICIAL DO MP BELO HORIZONTE - COMARCA; BH-15PJ M AMB PAT HIST CULT-GAB 116PJ 12.343,61 3.703,08 0,00 0,00 0,00 0,00 0,00 2.105,00 18.151,69 2.348,42 2.882,06 0,00 0,00 5.230,48 12.921,21 31/07/2023
567 444800 CLAUDIO ARESIO DO CARMO ANALISTA DO MP SETE LAGOAS - COMARCA; SETE LAGOAS-PJ-01PJ 14.960,00 5.984,00 0,00 0,00 0,00 0,00 0,00 2.105,00 23.049,00 3.131,99 3.961,21 0,00 0,00 7.093,20 15.955,80 31/07/2023
568 545100 CLAUDIO HENRIQUE MACEDO DE SOUZA FRANSOZO ANALISTA DO MP OURO PRETO - COMARCA; OURO PRETO-PJ-03PJ 12.343,61 2.468,72 0,00 0,00 0,00 0,00 0,00 3.055,00 17.867,33 982,16 2.767,68 0,00 0,00 3.749,84 14.117,49 31/07/2023
569 353500 CLAUDIO HENRIQUE PEDRO DA ROCHA OFICIAL DO MP BELO HORIZONTE - COMARCA; DIVISAO TRANSPORTES 12.343,61 3.703,08 0,00 0,00 0,00 0,00 0,00 2.105,00 18.151,69 2.348,42 2.777,79 0,00 0,00 5.126,21 13.025,48 31/07/2023
570 265800 CLAUDIO KUPIDLOWSKY FERNANDES OFICIAL DO MP BELO HORIZONTE - COMARCA; SECRETARIA DO PROCON-MG 12.343,61 4.937,44 0,00 0,00 0,00 0,00 0,00 2.105,00 19.386,05 2.545,92 2.212,85 0,00 0,00 4.758,77 14.627,28 31/07/2023
571 193600 CLAUDIO LEITE FONTES OFICIAL DO MP ITUIUTABA - COMARCA; ITUIUTABA-PJ-02PJ 12.343,61 6.171,81 0,00 0,00 0,00 0,00 0,00 2.105,00 20.620,42 2.743,42 3.089,34 0,00 0,00 5.832,76 14.787,66 31/07/2023
572 329400 CLAUDIO MARCIO BERNARDES OFICIAL DO MP ITAÚNA - COMARCA; ITAUNA-PJ-03PJ 12.343,61 9.874,89 0,00 0,00 0,00 0,00 0,00 3.055,00 25.273,50 3.335,91 4.255,62 0,00 0,00 7.591,53 17.681,97 31/07/2023
573 270200 CLAUDIO RABELO ALVES OFICIAL DO MP FORMIGA - COMARCA; FORMIGA-PJ-03PJ 14.960,00 5.984,00 0,00 0,00 0,00 0,00 0,00 2.105,00 23.049,00 3.131,99 3.856,93 0,00 0,00 6.988,92 16.060,08 31/07/2023
574 264700 CLAUDIO ROBERTO KFURI DE ARAUJO ANALISTA DO MP BELO HORIZONTE - COMARCA; CENTRAL DE APOIO TECNICO-SETOR DE INFORMATICA 23.070,31 6.921,09 0,00 0,00 0,00 0,00 0,00 2.105,00 32.096,40 4.579,57 5.999,02 0,00 0,00 10.578,59 21.517,81 31/07/2023
575 543300 CLAUDIO SILVA DE CARVALHO ANALISTA DO MP CAMPO BELO - COMARCA; CAMPO BELO-PJ-03PJ 11.577,56 1.157,76 0,00 0,00 0,00 0,00 0,00 2.105,00 14.840,32 1.818,60 2.065,00 0,00 0,00 3.883,60 10.956,72 31/07/2023
576 160700 CLAUDIO VICENTE HESS ASSESSOR DE GABINETE I BELO HORIZONTE - COMARCA; CENTRAL DE APOIO TECNICO-SETOR DE INFORMATICA 0,00 9.065,39 18.130,77 0,00 0,00 0,00 398,88 6.456,39 34.051,43 876,95 6.661,05 0,00 0,00 7.538,00 26.513,43 31/07/2023
577 312900 CLAUDIO VIEIRA FIRPE OFICIAL DO MP BELO HORIZONTE - COMARCA; DIR RELACOES INSTITUCIONAIS 12.343,61 3.703,08 0,00 0,00 0,00 0,00 0,00 2.105,00 18.151,69 2.348,42 2.882,06 0,00 0,00 5.230,48 12.921,21 31/07/2023
578 634100 CLEA CRISTINA GUERRA DE FREITAS COSTA OFICIAL DO MP BELO HORIZONTE - COMARCA; BH-18PJ VIOLENCIA DOMESTICA-SECRETARIA 7.270,07 727,01 0,00 0,00 2.665,69 0,00 557,13 8.182,78 19.402,68 1.060,48 1.703,53 0,00 0,00 2.764,01 16.638,67 31/07/2023
579 459200 CLEIA ZILLE PEREIRA ANALISTA DO MP BELO HORIZONTE - COMARCA; BH-07PJ 01 TRIBUNAL DO JURI-GAB 059PJ 12.343,61 2.468,72 0,00 0,00 0,00 0,00 0,00 3.530,00 18.342,33 2.150,92 2.596,93 0,00 0,00 4.747,85 13.594,48 31/07/2023
580 481800 CLEIDE CARDOSO DA SILVA ANALISTA DO MP MANHUAÇU - COMARCA; MANHUACU-PJ-04PJ 12.343,61 2.468,72 0,00 0,00 0,00 0,00 0,00 2.105,00 16.917,33 2.150,92 2.492,65 0,00 0,00 4.643,57 12.273,76 31/07/2023
581 347600 CLEIDIMAR DE OLIVEIRA SILVA OFICIAL DO MP PATOS DE MINAS - COMARCA; PATOS DE MINAS-PJ-03PJ 12.343,61 4.937,44 0,00 0,00 0,00 0,00 0,00 2.105,00 19.386,05 2.545,92 2.958,65 0,00 0,00 5.504,57 13.881,48 31/07/2023
582 396500 CLEIDISON BATISTA DE ANDRADE OFICIAL DO MP RESPLENDOR - COMARCA; RESPLENDOR-PJ-UNPJ 11.212,54 3.363,76 0,00 0,00 0,00 0,00 0,00 2.105,00 16.681,30 2.113,16 2.438,13 0,00 0,00 4.551,29 12.130,01 31/07/2023
583 535100 CLEISON ALVES DA SILVA ANALISTA DO MP BOA ESPERANÇA - COMARCA; BOA ESPERANCA-PJ-01PJ 12.343,61 3.703,08 0,00 0,00 0,00 0,00 0,00 2.105,00 18.151,69 2.348,42 2.777,79 0,00 0,00 5.126,21 13.025,48 31/07/2023
584 298100 CLEONICE AUGUSTA BARROS DE OLIVEIRA ANALISTA DO MP JUIZ DE FORA - COMARCA; JUIZ DE FORA-PJ-08PJ 23.070,31 6.921,09 0,00 0,00 0,00 0,00 0,00 2.105,00 32.096,40 4.579,57 6.103,29 0,00 0,00 10.682,86 21.413,54 31/07/2023
585 114301 CLERES PEREIRA DA SILVA JUNIOR ASSESSOR ADMINISTRATIVO I BELO HORIZONTE - COMARCA; GAECO - SECRETARIA 0,00 2.436,35 4.872,71 0,00 0,00 0,00 0,00 2.105,00 9.414,06 876,95 836,98 0,00 0,00 1.713,93 7.700,13 31/07/2023
586 264100 CLETO HENRIQUE ANDRADE SILVA ANALISTA DO MP BELO HORIZONTE - COMARCA; DIRETORIA DE SISTEMAS DE INFORMACAO 23.070,31 9.228,12 0,00 0,00 0,00 0,00 2.307,03 2.105,00 36.710,46 5.317,82 7.064,87 0,00 0,00 12.382,69 24.327,77 31/07/2023
587 334400 CLEUBA DE OLIVEIRA BARCELOS GONCALVES OFICIAL DO MP DIVINÓPOLIS - COMARCA; COORD REG SAUDE MACRORREGIAO SANITARIA OESTE 12.343,61 3.703,08 0,00 0,00 0,00 0,00 0,00 2.105,00 18.151,69 2.348,42 2.829,93 0,00 0,00 5.178,35 12.973,34 31/07/2023
588 347500 CLEUSA CORDEIRO DA MATA PIMENTA OFICIAL DO MP CAMPO BELO - COMARCA; CAMPO BELO-PJ-01PJ 12.343,61 11.109,25 0,00 0,00 0,00 3.533,41 0,00 2.105,00 29.091,27 3.533,41 5.512,44 0,00 0,00 9.045,85 20.045,42 31/07/2023
589 510200 CLEZIO SALES SILVA OFICIAL DO MP BRASÓPOLIS - COMARCA; BRASOPOLIS-PJ-UNPJ 7.506,70 1.501,34 0,00 0,00 0,00 0,00 0,00 3.617,32 12.625,36 1.222,23 1.256,14 0,00 0,00 2.478,37 10.146,99 31/07/2023
590 323000 CLOTILDE DE PADUA VIEIRA OFICIAL DO MP BELO HORIZONTE - COMARCA; BH-19PJ SAUDE-SECRETARIA 129PJ 12.343,61 3.703,08 0,00 0,00 0,00 0,00 0,00 2.105,00 18.151,69 2.348,42 2.882,06 0,00 0,00 5.230,48 12.921,21 31/07/2023
591 285200 CLOVIS ANDRE LUDTKE OFICIAL DO MP BELO HORIZONTE - COMARCA; DIVISAO DE MANUTENCAO PREDIAL 13.160,57 3.948,17 0,00 0,00 0,00 0,00 0,00 2.105,00 19.213,74 2.518,35 3.127,40 0,00 0,00 5.645,75 13.567,99 31/07/2023
592 381100 CONCEICAO APARECIDA TEIXEIRA ARANTES ANALISTA DO MP BELO HORIZONTE - COMARCA; BH-23PJ INFRACIONAL-ASS JURIDICA 18.999,41 5.699,82 0,00 0,00 0,00 0,00 4.354,12 8.982,82 38.036,17 4.342,54 5.708,95 0,00 0,00 10.051,49 27.984,68 31/07/2023
593 249900 CONSTANTINO CEZAR GOMES MOTA OFICIAL DO MP MONTES CLAROS - COMARCA; COORD REG BACIA RIOS VERDE GRANDE E PARDO 12.343,61 4.937,44 0,00 0,00 0,00 0,00 443,55 8.843,69 26.568,29 2.545,92 3.062,93 0,00 0,00 5.608,85 20.959,44 31/07/2023
594 481000 CRISHMA ANALIA LOMBELLO ANALISTA DO MP JUIZ DE FORA - COMARCA; JUIZ DE FORA-PJ-13PJ 12.343,61 2.468,72 0,00 0,00 0,00 0,00 0,00 2.105,00 16.917,33 2.150,92 2.544,79 0,00 0,00 4.695,71 12.221,62 31/07/2023
595 523900 CRISTHYANE BAZOLI COSTA GUEDES COUTO OFICIAL DO MP BELO HORIZONTE - COMARCA; BH-04PJ JUIZO REG PÚBLICOS-SECRETARIA 9.699,77 1.939,95 0,00 0,00 0,00 0,00 0,00 2.105,00 13.744,72 1.643,30 1.864,06 0,00 0,00 3.507,36 10.237,36 31/07/2023
596 187000 CRISTIAN DAYVSON EVANGELISTA OFICIAL DO MP JUIZ DE FORA - COMARCA; JUIZ DE FORA-PJ-13PJ 20.533,67 8.213,47 0,00 0,00 0,00 0,00 10.694,92 2.813,66 42.255,72 4.380,49 8.686,97 0,00 0,00 13.067,46 29.188,26 31/07/2023
597 682100 CRISTIAN TRISTAO DE ANDRADE ASSESSOR PROMOTOR JUSTICA TRÊS CORACOES - COMARCA; TRES CORACOES-PJ-04PJ 0,00 0,00 8.810,89 0,00 0,00 0,00 0,00 2.105,00 10.915,89 876,95 1.709,37 0,00 0,00 2.586,32 8.329,57 31/07/2023
598 319800 CRISTIANA GONCALVES DOS SANTOS GUSMAO OFICIAL DO MP PARAOPEBA - COMARCA; PARAOPEBA-PJ-UNPJ 12.343,61 3.703,08 0,00 0,00 0,00 0,00 529,54 7.881,81 24.458,04 2.348,42 2.882,06 0,00 0,00 5.230,48 19.227,56 31/07/2023
599 520600 CRISTIANA JANAINA BARBOZA JUVENCIO DOS SANTOS ANALISTA DO MP BELO HORIZONTE - COMARCA; BH-02PJ FAMILIA-SECRETARIA 12.343,61 2.468,72 0,00 0,00 0,00 0,00 0,00 2.105,00 16.917,33 2.150,92 2.596,93 0,00 0,00 4.747,85 12.169,48 31/07/2023
600 195600 CRISTIANA SOARES HALABI OFICIAL DO MP UBERABA - COMARCA; UBERABA-PJ-01PJ 20.533,67 8.213,47 0,00 0,00 0,00 0,00 0,00 2.105,00 30.852,14 4.380,49 5.815,87 0,00 0,00 10.196,36 20.655,78 31/07/2023
601 218900 CRISTIANE ALVES BELLES OFICIAL DO MP JUIZ DE FORA - COMARCA; JUIZ DE FORA-PJ-10PJ 7.506,70 3.002,68 0,00 0,00 0,00 0,00 0,00 3.530,00 14.039,38 1.462,45 1.498,67 0,00 0,00 2.961,12 11.078,26 31/07/2023
602 263600 CRISTIANE CARVALHO COUTINHO OFICIAL DO MP BELO HORIZONTE - COMARCA; BH-23PJ INFRACIONAL-SEC EXP 13.588,97 5.435,59 0,00 0,00 0,00 0,00 0,00 2.105,00 21.129,56 2.824,88 3.517,81 0,00 0,00 6.342,69 14.786,87 31/07/2023
603 541000 CRISTIANE COELHO ALVES OFICIAL DO MP ITABIRA - COMARCA; ITABIRA-PJ-03PJ 7.506,70 1.501,34 0,00 0,00 0,00 0,00 0,00 2.105,00 11.113,04 1.222,23 1.204,00 0,00 0,00 2.426,23 8.686,81 31/07/2023
604 441700 CRISTIANE CORRADO DE ANDRADE ANALISTA DO MP BELO HORIZONTE - COMARCA; DIRETORIA DE SISTEMAS DE INFORMACAO 18.130,77 3.626,15 4.020,58 0,00 0,00 0,00 0,00 2.105,00 27.882,50 3.262,06 5.306,79 0,00 0,00 8.568,85 19.313,65 31/07/2023
605 375100 CRISTIANE DAS DORES ERCIO DE LIMA OFICIAL DO MP GOVERNADOR VALADARES - COMARCA; GOVERNADOR VALADARES-PJ-12PJ 11.577,56 3.473,27 0,00 0,00 0,00 0,00 0,00 2.105,00 17.155,83 2.189,08 2.652,02 0,00 0,00 4.841,10 12.314,73 31/07/2023
606 178800 CRISTIANE DE LIMA HOSKEN OFICIAL DO MP BELO HORIZONTE - COMARCA; BH-14PJ DEFESA CONSUMIDOR-GAB 110PJ 21.346,53 8.538,61 0,00 0,00 0,00 0,00 0,00 2.105,00 31.990,14 4.562,57 6.026,61 0,00 0,00 10.589,18 21.400,96 31/07/2023
607 494000 CRISTIANE DE MELO MARQUEZ OLIVEIRA ANALISTA DO MP UBERLÂNDIA - COMARCA; UBERLANDIA-PJ-06PJ 15.447,01 4.016,22 0,00 0,00 0,00 0,00 0,00 3.055,00 22.518,23 2.895,07 3.671,28 0,00 0,00 6.566,35 15.951,88 31/07/2023
608 266100 CRISTIANE DE OLIVEIRA CASTRO OFICIAL DO MP BELO HORIZONTE - COMARCA; BH-14PJ DEFESA CONSUMIDOR-SECRETARIA 17.559,01 7.023,60 0,00 0,00 0,00 0,00 1.771,66 2.105,00 28.459,27 3.714,17 5.236,79 0,00 0,00 8.950,96 19.508,31 31/07/2023
609 329500 CRISTIANE DOS REIS SILVA OFICIAL DO MP ARAXÁ - COMARCA; ARAXA-PJ-04PJ 12.343,61 3.703,08 0,00 0,00 0,00 0,00 0,00 2.105,00 18.151,69 2.348,42 2.777,79 0,00 0,00 5.126,21 13.025,48 31/07/2023
610 301600 CRISTIANE GODINHO PIRES ANALISTA DO MP BETIM - COMARCA; BETIM-PJ-06PJ 23.070,31 6.921,09 0,00 0,00 0,00 0,00 0,00 2.105,00 32.096,40 4.579,57 6.103,29 0,00 0,00 10.682,86 21.413,54 31/07/2023
611 406100 CRISTIANE GONCALVES CHAVES ANALISTA DO MP BELO HORIZONTE - COMARCA; BH-06PJ JUIZO CIVEL-SECRETARIA 18.720,84 7.488,34 0,00 0,00 0,00 0,00 0,00 2.105,00 28.314,18 3.974,42 5.229,60 0,00 0,00 9.204,02 19.110,16 31/07/2023
612 487600 CRISTIANE LOPES DE OLIVEIRA OFICIAL DO MP DIVINÓPOLIS - COMARCA; DIVINOPOLIS-PJ-03PJ 8.810,89 1.762,18 0,00 0,00 0,00 0,00 0,00 2.105,00 12.678,07 1.472,64 1.617,66 0,00 0,00 3.090,30 9.587,77 31/07/2023
613 502500 CRISTIANE MACIEL DE OLIVEIRA GOMES ANALISTA DO MP JUIZ DE FORA - COMARCA; JUIZ DE FORA-PJ-02PJ 12.343,61 2.468,72 0,00 0,00 0,00 0,00 0,00 3.055,00 17.867,33 2.150,92 2.596,93 0,00 0,00 4.747,85 13.119,48 31/07/2023
614 285500 CRISTIANE MAGALHAES LOURENCO ANALISTA DO MP BELO HORIZONTE - COMARCA; CENTRAL DE APOIO TECNICO-SETOR CONTABIL 23.070,31 6.921,09 0,00 0,00 0,00 0,00 0,00 2.105,00 32.096,40 4.579,57 6.051,16 0,00 0,00 10.630,73 21.465,67 31/07/2023
615 536500 CRISTIANE MICHELE DE SOUZA ANALISTA DO MP BARÃO DE COCAIS - COMARCA; BARAO DE COCAIS-PJ-UNPJ 12.343,61 2.468,72 0,00 0,00 0,00 0,00 0,00 2.105,00 16.917,33 2.150,92 2.492,65 0,00 0,00 4.643,57 12.273,76 31/07/2023
616 346600 CRISTIANE NOGUEIRA ANDRADE ANALISTA DO MP BELO HORIZONTE - COMARCA; CENTRAL DE APOIO TECNICO-SETOR CONTABIL 21.346,53 6.403,96 0,00 0,00 0,00 0,00 0,00 2.105,00 29.855,49 4.221,03 5.585,64 0,00 0,00 9.806,67 20.048,82 31/07/2023
617 234000 CRISTIANE OLIVEIRA TOSTES OFICIAL DO MP JUIZ DE FORA - COMARCA; JUIZ DE FORA-PJ-08PJ 18.720,84 7.488,34 0,00 0,00 0,00 0,00 0,00 2.105,00 28.314,18 3.974,42 5.229,60 0,00 0,00 9.204,02 19.110,16 31/07/2023
618 445800 CRISTIANE ORZIL COSTA OFICIAL DO MP SANTA LUZIA - COMARCA; SANTA LUZIA-PJ-05PJ 9.097,81 1.819,56 0,00 0,00 0,00 0,00 0,00 2.105,00 13.022,37 1.527,73 1.697,19 0,00 0,00 3.224,92 9.797,45 31/07/2023
619 616100 CRISTIANE PAES RODRIGUES MARCICANO ANALISTA DO MP CATAGUASES - COMARCA; CATAGUASES-PJ-05PJ 10.516,49 1.051,65 0,00 0,00 0,00 0,00 0,00 3.055,00 14.623,14 1.631,85 1.847,52 0,00 0,00 3.479,37 11.143,77 31/07/2023
620 612300 CRISTIANE RIBEIRO DOS REIS ARCANJO OFICIAL DO MP BELO HORIZONTE - COMARCA; DIRETORIA DE PAGAMENTO DE PESSOAL-DPAG 7.506,70 750,67 0,00 0,00 0,00 0,00 0,00 0,00 8.257,37 1.717,06 809,35 0,00 0,00 2.526,41 5.730,96 31/07/2023
621 257700 CRISTIANE RODRIGUES PAES NUNES ANALISTA DO MP BELO HORIZONTE - COMARCA; BH-22PJ PES COM DEF E IDOSOS-ORIENTACAO PSIC 23.070,31 9.228,12 0,00 0,00 0,00 0,00 0,00 3.055,00 35.353,43 4.948,70 6.584,08 0,00 0,00 11.532,78 23.820,65 31/07/2023
622 510800 CRISTIANE SANTOS FERNANDES ORNELES ANALISTA DO MP BELO HORIZONTE - COMARCA; BH-03PJ EMPRESARIAL-SECRETARIA 12.343,61 2.468,72 0,00 0,00 0,00 0,00 0,00 2.105,00 16.917,33 2.150,92 2.596,93 0,00 0,00 4.747,85 12.169,48 31/07/2023
623 535701 CRISTIANE SANTOS MIRANDA ANALISTA DO MP CONTAGEM - COMARCA; CONTAGEM-PJ-03PJ 10.341,72 1.654,67 0,00 0,00 0,00 0,00 0,00 2.105,00 14.101,39 1.700,37 1.946,45 0,00 0,00 3.646,82 10.454,57 31/07/2023
624 536200 CRISTIANO DE OLIVEIRA ANALISTA DO MP CONCEIÇÃO DO MATO DENTRO - COMARCA; CONCEICAO DO MATO DENTRO-PJ-UNPJ 12.343,61 2.468,72 0,00 0,00 0,00 0,00 0,00 4.005,00 18.817,33 2.150,92 2.492,65 0,00 0,00 4.643,57 14.173,76 31/07/2023
625 477400 CRISTIANO SOARES ELEUTERIO ANALISTA DO MP BELO HORIZONTE - COMARCA; GABINETE DE PROCURADOR DE JUSTIÇA - SALA 812 15.447,01 3.089,40 0,00 0,00 0,00 0,00 0,00 2.105,00 20.641,41 2.746,77 3.457,19 0,00 0,00 6.203,96 14.437,45 31/07/2023
626 449400 CRISTIANO TEIXEIRA RODRIGUES LANA ANALISTA DO MP BELO HORIZONTE - COMARCA; BH-18PJ VIOLENCIA DOMESTICA-SECRETARIA 13.588,97 3.533,13 0,00 0,00 0,00 0,00 0,00 2.105,00 19.227,10 2.520,48 3.130,49 0,00 0,00 5.650,97 13.576,13 31/07/2023
627 239400 CRISTINA DE FATIMA CRUZ E SILVA OFICIAL DO MP MONTE SANTO DE MINAS - COMARCA; MONTE SANTO DE MINAS-PJ-SECRETARIA 17.559,01 7.023,60 0,00 0,00 0,00 0,00 0,00 2.105,00 26.687,61 3.714,17 4.853,86 0,00 0,00 8.568,03 18.119,58 31/07/2023
628 544000 CRISTINA DE OLIVEIRA TERRA ANALISTA DO MP BELO HORIZONTE - COMARCA; BH-18PJ VIOLENCIA DOMESTICA-SECRETARIA 12.343,61 2.468,72 0,00 0,00 0,00 0,00 543,12 8.029,93 23.385,38 2.150,92 2.596,93 0,00 0,00 4.747,85 18.637,53 31/07/2023
629 356800 CRISTINA DE PINHO BARROSO OFICIAL DO MP SABINÓPOLIS - COMARCA; SABINOPOLIS-PJ-UNPJ 10.439,37 4.206,60 0,00 0,00 0,00 0,00 0,00 3.055,00 17.700,97 2.136,64 2.450,83 0,00 0,00 4.587,47 13.113,50 31/07/2023
630 649500 CRISTINA DO DIVINO ESPIRITO SANTOS OFICIAL DO MP DIVINÓPOLIS - COMARCA; DIVINOPOLIS-PJ-12PJ 6.603,76 660,38 0,00 0,00 0,00 0,00 0,00 2.105,00 9.369,14 944,43 852,96 0,00 0,00 1.797,39 7.571,75 31/07/2023
631 727100 CRISTINA DORNELLES CLARET ASSESSOR ADMINISTRATIVO III BELO HORIZONTE - COMARCA; CAO-MEIO AMBIENTE 0,00 0,00 10.858,90 0,00 3.619,63 0,00 0,00 2.105,00 16.583,53 876,95 3.267,97 0,00 0,00 4.144,92 12.438,61 31/07/2023
632 348201 CRISTINA MARIA DA SILVA ANALISTA DO MP BELO HORIZONTE - COMARCA; CENT ESTAD COOPERACAO TECNICO-JURIDICA 12.343,61 2.468,72 0,00 0,00 0,00 0,00 0,00 3.530,00 18.342,33 2.150,92 2.596,93 0,00 0,00 4.747,85 13.594,48 31/07/2023
633 434900 CRISTINA MELO DE MADUREIRA ANALISTA DO MP BELO HORIZONTE - COMARCA; BH-07PJ 01 TRIBUNAL JURI-SECRETARIA 18.130,77 3.626,15 0,00 0,00 0,00 0,00 0,00 2.105,00 23.861,92 3.262,06 4.201,13 0,00 0,00 7.463,19 16.398,73 31/07/2023
634 307700 CRISTINA TEIXEIRA MARQUES OFICIAL DO MP BELO HORIZONTE - COMARCA; CENTRAL DE APOIO TECNICO-SETOR CONTABIL 12.343,61 3.703,08 0,00 0,00 0,00 0,00 0,00 2.105,00 18.151,69 2.348,42 2.882,06 0,00 0,00 5.230,48 12.921,21 31/07/2023
635 743100 CRISTOVAO JOSE DOS SANTOS JUNIOR ANALISTA DO MP BELO HORIZONTE - COMARCA; SUPERINTENDENCIA GESTÃO DE PESSOAS 5.632,62 0,00 0,00 0,00 0,00 0,00 0,00 1.832,27 7.464,89 691,54 473,84 0,00 0,00 1.165,38 6.299,51 31/07/2023
636 265300 CRISTOVAO SANCHES DE MEDEIROS ANALISTA DO MP BELO HORIZONTE - COMARCA; DIRETORIA DE CONTABILIDADE 22.191,68 8.876,67 0,00 0,00 0,00 0,00 2.219,17 2.105,00 35.392,52 5.106,95 6.864,70 0,00 0,00 11.971,65 23.420,87 31/07/2023
637 349800 CROZEIR LUIZ DA SILVA OFICIAL DO MP UNAÍ - COMARCA; UNAI-PJ-SECRETARIA 12.343,61 3.703,08 0,00 0,00 0,00 0,00 0,00 5.544,95 21.591,64 2.348,42 2.829,93 0,00 0,00 5.178,35 16.413,29 31/07/2023
638 490500 CYNTHIA CRISTINA DE SOUZA OLIVEIRA VALENTE ANALISTA DO MP BELO HORIZONTE - COMARCA; BH-09PJ AUDITORIA MILITAR-SECRETARIA 12.343,61 2.468,72 0,00 0,00 0,00 0,00 0,00 2.105,00 16.917,33 2.150,92 2.596,93 0,00 0,00 4.747,85 12.169,48 31/07/2023
639 389800 CYNTHIA GARIGLIO DOS SANTOS OFICIAL DO MP PERDIZES - COMARCA; PERDIZES-PJ-SECRETARIA 10.858,90 3.257,67 0,00 0,00 0,00 0,00 0,00 2.105,00 16.221,57 2.039,60 2.279,80 0,00 0,00 4.319,40 11.902,17 31/07/2023
640 335101 CYNTHIA GONTIJO D ASSUNCAO ANALISTA DO MP BELO HORIZONTE - COMARCA; FEPDC-SECRETARIA EXECUTIVA 12.343,61 3.703,08 4.020,58 0,00 0,00 0,00 0,00 3.055,00 23.122,27 2.348,42 3.987,72 0,00 0,00 6.336,14 16.786,13 31/07/2023
641 269700 CYNTIA ROCHA CAVALCANTI OFICIAL DO MP UBERLÂNDIA - COMARCA; UBERLANDIA-PJ-06PJ 17.559,01 5.267,70 0,00 0,00 0,00 0,00 0,00 3.055,00 25.881,71 3.433,22 4.448,25 0,00 0,00 7.881,47 18.000,24 31/07/2023
642 278000 DAIRTON LOPES MARTINS FILHO COORDENADOR II BELO HORIZONTE - COMARCA; DIRETORIA DE SISTEMAS DE INFORMACAO 20.533,67 6.160,10 0,00 0,00 0,00 0,00 0,00 2.105,00 28.798,77 2.348,42 5.810,01 0,00 0,00 8.158,43 20.640,34 31/07/2023
643 392700 DALIANA CHAVES IBRAIM MARINHO OFICIAL DO MP ITAÚNA - COMARCA; ITAUNA-PJ-04PJ 9.393,95 1.878,79 0,00 0,00 0,00 0,00 0,00 2.105,00 13.377,74 1.584,59 1.779,28 0,00 0,00 3.363,87 10.013,87 31/07/2023
644 558101 DALLEY TASSIA SILVA ANALISTA DO MP MORADA NOVA DE MINAS - COMARCA; MORADA NOVA DE MINAS-PJ-UNPJ 11.577,56 1.157,76 0,00 0,00 0,00 0,00 0,00 3.055,00 15.790,32 1.818,60 2.012,86 0,00 0,00 3.831,46 11.958,86 31/07/2023
645 476700 DALTON DAUD ANALISTA DO MP ARAGUARI - COMARCA; ARAGUARI-PJ-05PJ 12.343,61 2.468,72 0,00 0,00 0,00 0,00 0,00 2.105,00 16.917,33 2.150,92 2.492,65 0,00 0,00 4.643,57 12.273,76 31/07/2023
646 426900 DANIEL ALVES DA SILVA OFICIAL DO MP BELO HORIZONTE - COMARCA; DIVISÃO DE FISCALIZAÇÃO DAS RELAÇÕES DE CONSU 7.506,70 1.501,34 0,00 0,00 0,00 0,00 0,00 2.105,00 11.113,04 1.222,23 1.151,86 0,00 0,00 2.374,09 8.738,95 31/07/2023
647 536302 DANIEL BATISTA MARIANO OFICIAL DO MP BELO HORIZONTE - COMARCA; SUPERINTENDENCIA GESTÃO DE PESSOAS 3.656,20 0,00 0,00 0,00 0,00 0,00 0,00 1.832,27 5.488,47 385,20 98,83 0,00 0,00 484,03 5.004,44 31/07/2023
648 714000 DANIEL FERREIRA CAMARA ASSESSOR PROMOTOR JUSTICA RIBEIRÃO DAS NEVES - COMARCA; RIBEIRAO DAS NEVES-PJ-12PJ 0,00 0,00 8.810,89 0,00 0,00 0,00 0,00 2.105,00 10.915,89 876,95 1.709,37 0,00 0,00 2.586,32 8.329,57 31/07/2023
649 411000 DANIEL FERREIRA DA SILVA ANALISTA DO MP GOVERNADOR VALADARES - COMARCA; GOVERNADOR VALADARES-PJ-15PJ 17.559,01 7.023,60 0,00 0,00 0,00 0,00 540,82 10.379,83 35.503,26 3.714,17 4.645,31 0,00 0,00 8.359,48 27.143,78 31/07/2023
650 703500 DANIEL FILIPE DE DEUS SOARES ASSESSOR PROMOTOR JUSTICA ITABIRITO - COMARCA; ITABIRITO-PJ-02PJ 0,00 0,00 8.810,89 0,00 0,00 0,00 0,00 2.105,00 10.915,89 876,95 1.709,37 0,00 0,00 2.586,32 8.329,57 31/07/2023
651 309000 DANIEL GOMES DOS SANTOS ANALISTA DO MP POÇOS DE CALDAS - COMARCA; POCOS DE CALDAS-PJ-05PJ 23.070,31 6.921,09 0,00 0,00 0,00 0,00 0,00 2.105,00 32.096,40 4.579,57 6.103,29 0,00 0,00 10.682,86 21.413,54 31/07/2023
652 554500 DANIEL GOMES PEREIRA OFICIAL DO MP NANUQUE - COMARCA; NANUQUE-PJ-02PJ 7.506,70 1.501,34 0,00 0,00 0,00 0,00 0,00 2.105,00 11.113,04 1.222,23 1.256,14 0,00 0,00 2.478,37 8.634,67 31/07/2023
653 453000 DANIEL GONCALVES PEREIRA ANALISTA DO MP UNAÍ - COMARCA; UNAI-PJ-02PJ 12.343,61 3.209,34 0,00 0,00 0,00 0,00 0,00 4.480,00 20.032,95 2.269,42 2.768,01 0,00 0,00 5.037,43 14.995,52 31/07/2023
654 495500 DANIEL GUIMARAES CABRAL OFICIAL DO MP BELO HORIZONTE - COMARCA; BH-17PJ PATRIMONIO PUBLICO-SECRETARIA 10.015,59 2.003,12 0,00 0,00 0,00 0,00 0,00 3.055,00 15.073,71 1.703,94 1.951,60 0,00 0,00 3.655,54 11.418,17 31/07/2023
655 442900 DANIEL GUIMARAES GONCALVES ANALISTA DO MP UBERLÂNDIA - COMARCA; UBERLANDIA-PJ-03PJ 17.559,01 3.511,80 0,00 0,00 0,00 0,00 0,00 2.105,00 23.175,81 982,16 4.359,68 0,00 0,00 5.341,84 17.833,97 31/07/2023
656 655900 DANIEL LUIZ DA SILVA ASSESSOR ADMINISTRATIVO II BELO HORIZONTE - COMARCA; DIV FISCAL ADM CONT TERCEIRIZACAO 0,00 0,00 7.506,70 0,00 0,00 0,00 0,00 2.105,00 9.611,70 876,95 1.350,72 0,00 0,00 2.227,67 7.384,03 31/07/2023
657 464600 DANIEL PIACENTINI STIVANIN ANALISTA DO MP ANDRADAS - COMARCA; ANDRADAS-PJ-02PJ 12.343,61 2.468,72 0,00 0,00 0,00 0,00 0,00 2.105,00 16.917,33 2.150,92 2.596,93 0,00 0,00 4.747,85 12.169,48 31/07/2023
658 417000 DANIEL QUEIROZ FERREIRA ANALISTA DO MP PASSOS - COMARCA; PASSOS-PJ-06PJ 17.559,01 3.511,80 0,00 0,00 0,00 0,00 0,00 3.055,00 24.125,81 982,16 4.359,68 0,00 0,00 5.341,84 18.783,97 31/07/2023
659 396700 DANIEL SILVA CARNEVALLI SUPERINTENDENTE BELO HORIZONTE - COMARCA; SUPERINTENDENCIA DE TECNOLOGIA DA INFORMACAO 28.013,39 8.404,02 0,00 0,00 0,00 0,00 0,00 3.055,00 39.472,41 3.674,88 8.119,24 0,00 0,00 11.794,12 27.678,29 31/07/2023
660 489300 DANIEL TABOZA ROCHA ANALISTA DO MP IPATINGA - COMARCA; IPATINGA-PJ-08PJ 12.343,61 2.468,72 0,00 0,00 0,00 0,00 0,00 3.055,00 17.867,33 982,16 2.767,68 0,00 0,00 3.749,84 14.117,49 31/07/2023
661 414100 DANIEL TARDELI VALADAO ANALISTA DO MP TRÊS CORACOES - COMARCA; TRES CORACOES-PJ-02PJ 17.559,01 3.511,80 0,00 0,00 0,00 0,00 0,00 2.105,00 23.175,81 982,16 4.151,13 0,00 0,00 5.133,29 18.042,52 31/07/2023
662 731800 DANIEL VASCONCELOS ARAUJO SILVA ASSESSOR ADMINISTRATIVO IV BELO HORIZONTE - COMARCA; DIRETORIA DE REDES E BANCOS DE DADOS 0,00 0,00 14.488,22 0,00 0,00 0,00 0,00 2.105,00 16.593,22 876,95 3.270,64 0,00 0,00 4.147,59 12.445,63 31/07/2023
663 446601 DANIEL VIEIRA BUENO ANALISTA DO MP SÃO DOMINGOS DO PRATA - COMARCA; SAO DOMINGOS DO PRATA-PJ-UNPJ 12.343,61 2.468,72 0,00 0,00 0,00 0,00 0,00 3.055,00 17.867,33 2.150,92 2.544,79 0,00 0,00 4.695,71 13.171,62 31/07/2023
664 253200 DANIELA BATISTA LIMA BARBOSA ASSESSOR ADMINISTRATIVO II BELO HORIZONTE - COMARCA; CENTRAL DE APOIO TECN-SETOR DE MEIO AMBIENTE 0,00 3.002,68 7.506,70 0,00 0,00 0,00 0,00 2.105,00 12.614,38 876,95 2.176,46 0,00 0,00 3.053,41 9.560,97 31/07/2023
665 505800 DANIELA BORGES DE MATTOS RESENDE ANALISTA DO MP JUIZ DE FORA - COMARCA; JUIZ DE FORA-PJ-20PJ 12.343,61 2.468,72 0,00 0,00 0,00 0,00 0,00 2.105,00 16.917,33 2.150,92 2.596,93 0,00 0,00 4.747,85 12.169,48 31/07/2023
666 478000 DANIELA CARVALHO SOARES ANALISTA DO MP SÃO JOÃO DEL REI - COMARCA; SAO JOAO DEL REI-PJ-01PJ 12.343,61 2.468,72 0,00 0,00 0,00 0,00 0,00 2.105,00 16.917,33 2.150,92 2.596,93 0,00 0,00 4.747,85 12.169,48 31/07/2023
667 275900 DANIELA CHAGAS SODRE ANALISTA DO MP BELO HORIZONTE - COMARCA; CENTRAL DE APOIO TECNICO-SETOR CONTABIL 23.070,31 6.921,09 0,00 0,00 0,00 0,00 0,00 2.105,00 32.096,40 4.579,57 6.051,16 0,00 0,00 10.630,73 21.465,67 31/07/2023
668 234301 DANIELA CRUZ SOARES ANALISTA DO MP BELO HORIZONTE - COMARCA; LABORATORIO TECNOLOGIA INTELIGENCIA 23.070,31 9.228,12 0,00 0,00 0,00 0,00 0,00 2.105,00 34.403,43 4.948,70 6.636,22 0,00 0,00 11.584,92 22.818,51 31/07/2023
669 638000 DANIELA DE ALMEIDA BATISTA ANALISTA DO MP ANDRELÂNDIA - COMARCA; ANDRELANDIA-PJ-UNPJ 11.212,54 1.121,25 0,00 0,00 0,00 0,00 0,00 3.055,00 15.388,79 982,16 2.236,74 0,00 0,00 3.218,90 12.169,89 31/07/2023
670 301000 DANIELA DE ALMEIDA E OLIVEIRA ANALISTA DO MP BELO HORIZONTE - COMARCA; DIRETORIA DE SISTEMAS DE INFORMACAO 23.070,31 6.921,09 0,00 0,00 0,00 0,00 0,00 2.105,00 32.096,40 4.579,57 6.103,29 0,00 0,00 10.682,86 21.413,54 31/07/2023
671 296000 DANIELA DE AZEVEDO SILVA ANALISTA DO MP BRASÓPOLIS - COMARCA; BRASOPOLIS-PJ-UNPJ 23.070,31 9.228,12 0,00 0,00 0,00 0,00 0,00 2.105,00 34.403,43 4.948,70 6.636,22 0,00 0,00 11.584,92 22.818,51 31/07/2023
672 453500 DANIELA DE CASTRO SOUSA BARBOSA ANALISTA DO MP BELO HORIZONTE - COMARCA; BH-08PJ JUIZADO ESPECIAL-SECRETARIA 13.588,97 3.533,13 0,00 0,00 0,00 0,00 0,00 2.105,00 19.227,10 2.520,48 3.130,49 0,00 0,00 5.650,97 13.576,13 31/07/2023
673 506000 DANIELA DE OLIVEIRA CAVALIERI ANALISTA DO MP BELO HORIZONTE - COMARCA; BH-14PJ DEFESA CONSUMIDOR-GAB 005PJ 12.343,61 2.468,72 0,00 0,00 0,00 0,00 0,00 2.105,00 16.917,33 2.150,92 2.596,93 0,00 0,00 4.747,85 12.169,48 31/07/2023
674 546200 DANIELA DE VILHENA LEMES GONCALVES OFICIAL DO MP TRÊS CORACOES - COMARCA; TRES CORACOES-PJ-05PJ 7.506,70 750,67 0,00 0,00 0,00 0,00 0,00 2.105,00 10.362,37 1.102,13 978,46 0,00 0,00 2.080,59 8.281,78 31/07/2023
675 356400 DANIELA LEAL FERRAZ ANALISTA DO MP MONTES CLAROS - COMARCA; COORD REG PJ DEF EDUC DIR CRIANCA ADOL NORTE 20.533,67 6.160,10 0,00 0,00 0,00 0,00 0,00 2.105,00 28.798,77 4.051,95 5.341,54 0,00 0,00 9.393,49 19.405,28 31/07/2023
676 501000 DANIELA LOURENCO SANTOS DA SILVA GUIMARAES ANALISTA DO MP BELO HORIZONTE - COMARCA; BH-12PJ JUIZO CRIMINAL-GAB 095PJ 12.343,61 2.468,72 0,00 0,00 0,00 0,00 0,00 2.105,00 16.917,33 2.150,92 2.544,79 0,00 0,00 4.695,71 12.221,62 31/07/2023
677 195801 DANIELA MARIA DE OLIVEIRA QUEIROZ ANALISTA DO MP ARAGUARI - COMARCA; ARAGUARI-PJ-06PJ 18.130,77 7.252,31 0,00 0,00 0,00 0,00 186,14 4.135,65 29.704,87 3.842,24 5.038,77 0,00 0,00 8.881,01 20.823,86 31/07/2023
678 511400 DANIELA MARIA LARA DE OLIVEIRA ANALISTA DO MP BOA ESPERANÇA - COMARCA; BOA ESPERANCA-PJ-02PJ 12.343,61 3.703,08 0,00 0,00 0,00 0,00 0,00 3.055,00 19.101,69 2.348,42 2.829,93 0,00 0,00 5.178,35 13.923,34 31/07/2023
679 252101 DANIELA PAULA ALVES PENA ANALISTA DO MP CONTAGEM - COMARCA; CONTAGEM-PJ-APO TECNICO 18.720,84 7.488,34 0,00 0,00 0,00 0,00 0,00 2.105,00 28.314,18 3.974,42 5.229,60 0,00 0,00 9.204,02 19.110,16 31/07/2023
680 604700 DANIELA PEIXOTO NOGUEIRA COORDENADOR II BELO HORIZONTE - COMARCA; DIRET DE FORMACAO, APERFEIC. E POS-GRADUACAO 20.533,67 2.053,37 0,00 0,00 0,00 0,00 0,00 3.055,00 25.642,04 1.102,13 5.023,39 0,00 0,00 6.125,52 19.516,52 31/07/2023
681 662000 DANIELA RIBAS DE AVILA ASSESSOR ADMINISTRATIVO III BELO HORIZONTE - COMARCA; JUNTA RECURSAL DO PROCON ESTADUAL 0,00 0,00 10.858,90 0,00 0,00 0,00 0,00 2.105,00 12.963,90 876,95 2.272,58 0,00 0,00 3.149,53 9.814,37 31/07/2023
682 462000 DANIELA SOUSA GOMES DO AMARAL ANALISTA DO MP BETIM - COMARCA; BETIM-PJ-04PJ 14.960,00 2.992,00 0,00 0,00 0,00 0,00 0,00 2.105,00 20.057,00 2.653,27 3.322,19 0,00 0,00 5.975,46 14.081,54 31/07/2023
683 427000 DANIELA TEIXEIRA DINIZ ANDRADE ANALISTA DO MP BELO HORIZONTE - COMARCA; DIRETORIA DE PROJETOS DE EDIFICACOES 13.160,57 2.632,11 4.020,58 0,00 0,00 0,00 0,00 2.105,00 21.918,26 2.307,78 3.876,91 0,00 0,00 6.184,69 15.733,57 31/07/2023
684 337200 DANIELA TOLEDO SENIUK ANALISTA DO MP BELO HORIZONTE - COMARCA; GABINETE DE PROCURADOR DE JUSTIÇA - SALA 412 23.070,31 6.921,09 0,00 0,00 0,00 0,00 0,00 2.105,00 32.096,40 4.579,57 6.103,29 0,00 0,00 10.682,86 21.413,54 31/07/2023
685 605600 DANIELE ALZIRA SILVA CABRAL MOREIRA OFICIAL DO MP BELO HORIZONTE - COMARCA; BH-10PJ EXECUÇÃO PENAL-SECRETARIA 7.506,70 750,67 0,00 0,00 0,00 0,00 0,00 2.105,00 10.362,37 1.102,13 1.082,73 0,00 0,00 2.184,86 8.177,51 31/07/2023
686 195500 DANIELE CHAVES FONSECA OFICIAL DO MP BELO HORIZONTE - COMARCA; CGMP-DIR INSP CORR PROCED PROC DISC 20.533,67 8.213,47 0,00 0,00 0,00 0,00 0,00 2.105,00 30.852,14 4.380,49 5.815,87 0,00 0,00 10.196,36 20.655,78 31/07/2023
687 323400 DANIELE MEGALE SANTINI OFICIAL DO MP BELO HORIZONTE - COMARCA; CGMP-DIR INSP CORR PROCED PROC DISC 13.588,97 4.076,69 0,00 0,00 0,00 0,00 0,00 2.105,00 19.770,66 2.607,45 3.203,91 0,00 0,00 5.811,36 13.959,30 31/07/2023
688 357900 DANIELE REJANE PINTO VERSIEUX OFICIAL DO MP PEDRO LEOPOLDO - COMARCA; PEDRO LEOPOLDO-PJ-03PJ 12.343,61 3.703,08 0,00 0,00 0,00 0,00 0,00 2.105,00 18.151,69 2.348,42 2.882,06 0,00 0,00 5.230,48 12.921,21 31/07/2023
689 389500 DANIELE VASCONCELOS AMORIM OFICIAL DO MP SÃO SEBASTIÃO DO PARAÍSO - COMARCA; SAO SEBASTIAO DO PARAISO-PJ-04PJ 12.343,61 3.703,08 0,00 0,00 0,00 0,00 0,00 2.105,00 18.151,69 2.348,42 2.882,06 0,00 0,00 5.230,48 12.921,21 31/07/2023
690 629700 DANIELLA BASTOS MARTINS BICALHO OFICIAL DO MP GOVERNADOR VALADARES - COMARCA; GOVERNADOR VALADARES-PJ-16PJ 7.506,70 750,67 0,00 0,00 0,00 0,00 0,00 2.105,00 10.362,37 1.102,13 1.082,73 0,00 0,00 2.184,86 8.177,51 31/07/2023
691 725500 DANIELLE CAMILE OLIVEIRA FONSECA ASSESSOR PROCURADOR JUSTICA BELO HORIZONTE - COMARCA; GABINETE DE PROCURADOR DE JUSTIÇA - SALA 501 0,00 0,00 8.810,89 0,00 0,00 0,00 0,00 2.105,00 10.915,89 876,95 1.709,37 0,00 0,00 2.586,32 8.329,57 31/07/2023
692 265000 DANIELLE CASTANHEIRA SCALABRINI OFICIAL DO MP BELO HORIZONTE - COMARCA; JUNTA RECURSAL DO PROCON ESTADUAL 12.343,61 4.937,44 0,00 0,00 0,00 0,00 1.234,36 2.105,00 20.620,41 2.743,41 3.400,20 0,00 0,00 6.143,61 14.476,80 31/07/2023
693 490100 DANIELLE DE AVILA SILVA LOPES ANALISTA DO MP BELO HORIZONTE - COMARCA; PROC. JUSTICA DIR. DIFUSOS E COLETIVOS-SEC 12.343,61 3.703,08 0,00 0,00 0,00 0,00 0,00 2.105,00 18.151,69 2.348,42 2.882,06 0,00 0,00 5.230,48 12.921,21 31/07/2023
694 549600 DANIELLE GOMES LOPES RODRIGUES OFICIAL DO MP BELO HORIZONTE - COMARCA; COORD DE GABINETE DO PGJ 7.506,70 1.501,34 0,00 0,00 0,00 0,00 0,00 2.105,00 11.113,04 1.222,23 1.256,14 0,00 0,00 2.478,37 8.634,67 31/07/2023
695 613000 DANIELLE SILVA OLIVEIRA FRANKLIN COORDENADOR II BELO HORIZONTE - COMARCA; DIRETORIA DE ADMINISTRACAO FINANCEIRA 20.533,67 2.053,37 0,00 0,00 0,00 0,00 0,00 3.055,00 25.642,04 1.189,57 4.999,34 0,00 0,00 6.188,91 19.453,13 31/07/2023
696 722800 DANIELLE VALENTIM SOUZA ASSESSOR PROCURADOR JUSTICA BELO HORIZONTE - COMARCA; GABINETE DE PROCURADOR DE JUSTIÇA - SALA 606 0,00 0,00 8.810,89 0,00 0,00 0,00 0,00 2.105,00 10.915,89 876,95 1.709,37 0,00 0,00 2.586,32 8.329,57 31/07/2023
697 736400 DANIELLY VITORIA MARIA RUELA ASSESSOR PROMOTOR JUSTICA PARACATU - COMARCA; COORD REG PP NOROESTE MINAS GERAIS PARACATU 0,00 0,00 8.810,89 0,00 0,00 0,00 0,00 2.105,00 10.915,89 876,95 1.709,37 0,00 0,00 2.586,32 8.329,57 31/07/2023
698 380800 DANILLO RIBEIRO ANTUNES ANALISTA DO MP MONTES CLAROS - COMARCA; MONTES CLAROS-PJ-SECRETARIA 18.720,84 5.616,25 0,00 0,00 0,00 0,00 1.771,66 2.105,00 28.213,75 3.674,88 5.232,22 0,00 0,00 8.907,10 19.306,65 31/07/2023
699 453700 DANILO BOTELHO DE CARVALHO SUPERINTENDENTE BELO HORIZONTE - COMARCA; SUPERINTENDENCIA DE FINANCAS 28.013,39 5.602,68 0,00 0,00 0,00 0,00 0,00 2.105,00 35.721,07 3.152,28 7.492,58 0,00 0,00 10.644,86 25.076,21 31/07/2023
700 391200 DANILO D'AVILA MENDES ANALISTA DO MP MONTES CLAROS - COMARCA; GAECO REGIONAL DE MONTES CLAROS 18.720,84 5.616,25 0,00 0,00 0,00 0,00 0,00 3.055,00 27.392,09 3.674,88 4.797,15 0,00 0,00 8.472,03 18.920,06 31/07/2023
701 710900 DANILO DE SOUZA RODRIGUES ASSESSOR PROMOTOR JUSTICA IPANEMA - COMARCA; IPANEMA-PJ-01PJ 0,00 0,00 8.780,30 0,00 0,00 0,00 0,00 2.105,00 10.885,30 876,95 1.700,96 0,00 0,00 2.577,91 8.307,39 31/07/2023
702 494900 DANILO GAVIAO AVELINO DE MELLO ANALISTA DO MP POUSO ALEGRE - COMARCA; GAECO REGIONAL DE POUSO ALEGRE 12.343,61 2.468,72 0,00 0,00 0,00 0,00 0,00 2.105,00 16.917,33 2.150,92 2.596,93 0,00 0,00 4.747,85 12.169,48 31/07/2023
703 604300 DANILO NASCIMENTO SALGADO ANALISTA DO MP JANAÚBA - COMARCA; JANAUBA-PJ-01PJ 12.343,61 1.234,36 0,00 0,00 0,00 0,00 0,00 2.105,00 15.682,97 1.953,42 2.311,79 0,00 0,00 4.265,21 11.417,76 31/07/2023
704 298300 DANUZA MONICA DE SOUZA DINIZ ANALISTA DO MP BELO HORIZONTE - COMARCA; CAO-FUNDACOES-ASSESSORIA JURIDICA 22.191,68 6.657,50 0,00 0,00 0,00 0,00 0,00 2.105,00 30.954,18 4.396,82 5.787,30 0,00 0,00 10.184,12 20.770,06 31/07/2023
705 398700 DARCY LUIZ MILEO GREGATTI OFICIAL DO MP LAMBARI - COMARCA; LAMBARI-PJ-SECRETARIA 11.954,43 3.586,33 0,00 0,00 0,00 0,00 0,00 2.105,00 17.645,76 2.267,47 2.765,19 0,00 0,00 5.032,66 12.613,10 31/07/2023
706 406200 DARIANA AUGUSTA DE TOLEDO PATROCINIO RUIZ COORDENADOR II BELO HORIZONTE - COMARCA; DIRETORIA GESTAO COMPRAS LICITACOES 20.533,67 4.106,73 0,00 0,00 0,00 0,00 0,00 3.055,00 27.695,40 2.150,92 5.299,65 0,00 0,00 7.450,57 20.244,83 31/07/2023
707 586901 DARIO VITORINO DE CARVALHO SILVA ASSESSOR ADM. ESPECIAL BELO HORIZONTE - COMARCA; DIRETORIA DE SEGURANCA 0,00 0,00 28.013,39 0,00 0,00 0,00 0,00 2.105,00 30.118,39 876,95 6.937,92 0,00 0,00 7.814,87 22.303,52 31/07/2023
708 305000 DARLI LEITE DE OLIVEIRA OFICIAL DO MP ARAÇUAÍ - COMARCA; ARACUAI-PJ-01PJ 7.506,70 2.252,01 0,00 0,00 0,00 0,00 0,00 2.105,00 11.863,71 1.342,34 1.273,13 0,00 0,00 2.615,47 9.248,24 31/07/2023
709 729400 DAVI PIMENTA ASSESSOR PROMOTOR JUSTICA CANDEIAS - COMARCA; CANDEIAS-PJ-UNPJ 0,00 0,00 8.810,89 0,00 0,00 0,00 0,00 2.105,00 10.915,89 876,95 1.709,37 0,00 0,00 2.586,32 8.329,57 31/07/2023
710 122200 DAVID RIBEIRO DOS SANTOS ANALISTA DO MP BORDA DA MATA - COMARCA; BORDA DA MATA-PJ-UNPJ 23.070,31 23.070,31 0,00 0,00 0,00 5.795,34 477,24 7.311,23 59.724,43 5.795,34 9.452,28 8.550,66 0,00 23.798,28 35.926,15 31/07/2023
711 389400 DAWSON CANEDO MARQUES OFICIAL DO MP POUSO ALEGRE - COMARCA; POUSO ALEGRE-PJ-08PJ 12.343,61 3.703,08 0,00 0,00 0,00 0,00 0,00 3.055,00 19.101,69 2.348,42 2.010,86 0,00 0,00 4.359,28 14.742,41 31/07/2023
712 537200 DAYANE TEIXEIRA DE OLIVEIRA CASELLI ANALISTA DO MP BELO HORIZONTE - COMARCA; ASSESS TECNICO-JUR JUNTO AS PROC. DE JUST 10.341,72 1.034,17 0,00 0,00 0,00 0,00 0,00 2.105,00 13.480,89 1.601,09 1.803,11 0,00 0,00 3.404,20 10.076,69 31/07/2023
713 256100 DAYSE ROSALY PEREIRA BATISTA OFICIAL DO MP BELO HORIZONTE - COMARCA; BH-08PJ JUIZADO ESPECIAL-SECRETARIA 12.343,61 4.937,44 0,00 0,00 0,00 0,00 0,00 2.105,00 19.386,05 2.545,92 3.167,20 0,00 0,00 5.713,12 13.672,93 31/07/2023
714 311901 DEBORA APARECIDA DA SILVA ASSESSOR ADMINISTRATIVO I BELO HORIZONTE - COMARCA; BH-23PJ CIVEL-SETOR JURIDICO 0,00 0,00 4.872,71 0,00 0,00 0,00 0,00 2.105,00 6.977,71 718,08 670,06 0,00 0,00 1.388,14 5.589,57 31/07/2023
715 194301 DEBORA APARECIDA DOS SANTOS ANALISTA DO MP UBERLÂNDIA - COMARCA; UBERLANDIA-PJ-SEC FAMILIA 23.070,31 9.228,12 0,00 0,00 0,00 0,00 355,28 5.980,81 38.634,52 4.948,70 6.636,22 0,00 0,00 11.584,92 27.049,60 31/07/2023
716 518800 DEBORA CARVALHO FIORATTO COORDENADOR II BELO HORIZONTE - COMARCA; DIRETORIA MATERIAIS E SERVICOS 20.533,67 4.106,73 0,00 0,00 0,00 0,00 0,00 2.105,00 26.745,40 1.643,30 5.439,24 0,00 0,00 7.082,54 19.662,86 31/07/2023
717 444900 DEBORA CLAUDIA PEREIRA ALVES ANALISTA DO MP BELO HORIZONTE - COMARCA; BH-08PJ JUIZADO ESPECIAL-SECRETARIA 13.588,97 2.717,79 0,00 0,00 0,00 0,00 0,00 2.105,00 18.411,76 2.390,03 2.942,14 0,00 0,00 5.332,17 13.079,59 31/07/2023
718 617700 DEBORA COMANDUCI SCHREIDER ANALISTA DO MP BICAS - COMARCA; BICAS-PJ-UNPJ 11.577,56 1.157,76 0,00 0,00 0,00 0,00 0,00 2.105,00 14.840,32 1.818,60 2.065,00 0,00 0,00 3.883,60 10.956,72 31/07/2023
719 555700 DEBORA CRISTINA BUITRAGO PEREIRA ANALISTA DO MP BELO HORIZONTE - COMARCA; DIRETORIA GESTAO CONTRATOS CONVENIOS 12.343,61 2.468,72 4.020,58 0,00 0,00 0,00 0,00 3.055,00 21.887,91 2.150,92 3.702,59 0,00 0,00 5.853,51 16.034,40 31/07/2023
720 513100 DEBORA CRISTINA PEREIRA DE OLIVEIRA ANALISTA DO MP BELO HORIZONTE - COMARCA; BH-23PJ CIVEL-SETOR JURIDICO 13.588,97 2.717,79 0,00 0,00 0,00 0,00 0,00 3.530,00 19.836,76 2.390,03 2.942,14 0,00 0,00 5.332,17 14.504,59 31/07/2023
721 612100 DEBORA DUARTE SILVA DE SOUZA OFICIAL DO MP RIBEIRÃO DAS NEVES - COMARCA; RIBEIRAO DAS NEVES-PJ-06PJ 7.506,70 3.002,68 0,00 0,00 0,00 0,00 0,00 2.105,00 12.614,38 1.462,45 1.498,67 0,00 0,00 2.961,12 9.653,26 31/07/2023
722 717500 DEBORA ENDREFFY ORSI PARENZI ASSESSOR PROMOTOR JUSTICA MATEUS LEME - COMARCA; MATEUS LEME-PJ-01PJ 0,00 0,00 8.810,89 0,00 0,00 0,00 0,00 2.105,00 10.915,89 876,95 1.709,37 0,00 0,00 2.586,32 8.329,57 31/07/2023
723 539700 DEBORA SALES CARVALHO ANALISTA DO MP PATOS DE MINAS - COMARCA; COORD REG PJ DEF EDU DIR CRI ADO AL PAR NOROE 12.343,61 2.468,72 0,00 0,00 0,00 0,00 0,00 2.105,00 16.917,33 982,16 2.767,68 0,00 0,00 3.749,84 13.167,49 31/07/2023
724 424100 DEBORA SANTOS E ALVES ANALISTA DO MP JANUÁRIA - COMARCA; JANUARIA-PJ-01PJ 18.130,77 3.626,15 0,00 0,00 0,00 0,00 0,00 3.055,00 24.811,92 3.262,06 4.201,13 0,00 0,00 7.463,19 17.348,73 31/07/2023
725 426301 DEBORA SCUCATO MACHADO SOARES OFICIAL DO MP ITABIRA - COMARCA; ITABIRA-PJ-SECRETARIA 7.506,70 1.501,34 0,00 0,00 0,00 0,00 0,00 3.055,00 12.063,04 1.222,23 1.256,14 0,00 0,00 2.478,37 9.584,67 31/07/2023
726 678100 DEBORA SOUZA COSTA ASSESSOR PROMOTOR JUSTICA BOTELHOS - COMARCA; BOTELHOS-PJ-UNPJ 0,00 0,00 8.810,89 0,00 0,00 0,00 0,00 2.105,00 10.915,89 876,95 1.657,24 0,00 0,00 2.534,19 8.381,70 31/07/2023
727 550200 DEBORA TRINDADE LEITE ANALISTA DO MP MANHUAÇU - COMARCA; MANHUACU-PJ-05PJ 12.343,61 2.468,72 0,00 0,00 0,00 0,00 0,00 2.105,00 16.917,33 2.150,92 2.492,65 0,00 0,00 4.643,57 12.273,76 31/07/2023
728 438000 DEBORAH COSTA LAGE ANALISTA DO MP BELO HORIZONTE - COMARCA; PROC JUST ATUACAO TRIBUNAIS SUPERIORES-GAB006 18.130,77 3.626,15 0,00 0,00 0,00 0,00 0,00 2.105,00 23.861,92 3.262,06 4.201,13 0,00 0,00 7.463,19 16.398,73 31/07/2023
729 613700 DEISER MARIA FERREIRA ROSCOE OFICIAL DO MP BELO HORIZONTE - COMARCA; DIVISÃO DE EDUCAÇÃO PARA O CONSUMO 7.506,70 750,67 0,00 0,00 0,00 0,00 0,00 2.105,00 10.362,37 1.102,13 1.082,73 0,00 0,00 2.184,86 8.177,51 31/07/2023
730 551900 DEISY ROCHA DA SILVA ANALISTA DO MP CARMO DO PARANAÍBA - COMARCA; CARMO DO PARANAIBA-PJ-01PJ 12.343,61 2.468,72 0,00 0,00 0,00 0,00 0,00 2.105,00 16.917,33 2.150,92 2.544,79 0,00 0,00 4.695,71 12.221,62 31/07/2023
731 736800 DELANZIA APARECIDA JUNHO ASSESSOR DE CAO BELO HORIZONTE - COMARCA; CAO-FUNDACOES 0,00 0,00 7.506,70 0,00 0,00 0,00 0,00 2.105,00 9.611,70 876,95 1.350,72 0,00 0,00 2.227,67 7.384,03 31/07/2023
732 501900 DELI RAQUEL RODRIGUES ANALISTA DO MP ITUIUTABA - COMARCA; ITUIUTABA-PJ-04PJ 12.343,61 2.468,72 0,00 0,00 0,00 0,00 0,00 2.105,00 16.917,33 2.150,92 2.596,93 0,00 0,00 4.747,85 12.169,48 31/07/2023
733 378600 DELIANE LOPES VIEIRA BREIJAO ANALISTA DO MP JUIZ DE FORA - COMARCA; JUIZ DE FORA-PJ-14PJ 18.720,84 5.616,25 0,00 0,00 0,00 0,00 0,00 2.105,00 26.442,09 3.674,88 4.745,01 0,00 0,00 8.419,89 18.022,20 31/07/2023
734 730100 DELIENE FRACETE GUTIERREZ ASSESSOR ADMINISTRATIVO I TEÓFILO OTONI - COMARCA; COORD REG APOIO COM INC MOB SOC VALE MUCURI 0,00 0,00 4.872,71 0,00 0,00 0,00 0,00 2.105,00 6.977,71 718,08 670,06 0,00 0,00 1.388,14 5.589,57 31/07/2023
735 487700 DENIA FERREIRA MAIA SILVA OFICIAL DO MP TRÊS CORACOES - COMARCA; TRES CORACOES-PJ-04PJ 8.003,54 1.600,71 0,00 0,00 0,00 0,00 0,00 2.105,00 11.709,25 1.317,63 1.289,59 0,00 0,00 2.607,22 9.102,03 31/07/2023
736 726300 DENILZA RODRIGUES MORAES ASSESSOR ADMINISTRATIVO I BELO HORIZONTE - COMARCA; CENT DE ATENDIMENTO AS PROMOTORIAS DE JUSTICA 0,00 0,00 4.872,71 0,00 0,00 0,00 0,00 2.105,00 6.977,71 876,95 626,37 0,00 0,00 1.503,32 5.474,39 31/07/2023
737 424800 DENIS APARECIDO CAMPOS DELFINO ANALISTA DO MP LUZ - COMARCA; LUZ-PJ-UNPJ 17.559,01 3.511,80 0,00 0,00 0,00 0,00 0,00 2.105,00 23.175,81 3.152,28 3.834,09 0,00 0,00 6.986,37 16.189,44 31/07/2023
738 381400 DENISE ANGELICA MELLO DE PAULA OFICIAL DO MP BELO HORIZONTE - COMARCA; BH-18PJ DIREITOS HUMANOS-SECRETARIA 12.343,61 3.703,08 4.346,47 0,00 6.797,72 0,00 523,42 8.765,08 36.479,38 2.348,42 5.946,72 0,00 0,00 8.295,14 28.184,24 31/07/2023
739 702100 DENISE CANDIDO LIMA MACEDO KATOPODIS ASSESSOR PROCURADOR JUSTICA BELO HORIZONTE - COMARCA; GABINETE DE PROCURADOR DE JUSTIÇA - SALA 306 0,00 0,00 8.810,89 0,00 0,00 0,00 0,00 2.105,00 10.915,89 876,95 1.709,37 0,00 0,00 2.586,32 8.329,57 31/07/2023
740 196300 DENISE DE ALMEIDA VILELA FURTADO OFICIAL DO MP BELO HORIZONTE - COMARCA; CENTRAL DE APOIO TECNICO-SECRETARIA 20.533,67 8.213,47 0,00 0,00 0,00 0,00 527,03 9.279,43 38.553,60 4.380,49 5.815,87 0,00 0,00 10.196,36 28.357,24 31/07/2023
741 271100 DENISE ELOY PEIXOTO OFICIAL DO MP BELO HORIZONTE - COMARCA; DIRETORIA DE INTELIGENCIA 17.559,01 5.267,70 0,00 0,00 0,00 0,00 0,00 2.105,00 24.931,71 3.433,22 4.448,25 0,00 0,00 7.881,47 17.050,24 31/07/2023
742 385400 DENISE FREITAS DE ASSIS OFICIAL DO MP CARATINGA - COMARCA; CARATINGA-PJ-SECRETARIA 11.212,54 3.363,76 3.004,68 0,00 0,00 0,00 0,00 2.105,00 19.685,98 2.113,16 3.368,69 0,00 0,00 5.481,85 14.204,13 31/07/2023
743 437100 DENISE NOGUEIRA MAGRI MENDES ANALISTA DO MP BELO HORIZONTE - COMARCA; LAB TECNOLOGIA CONTRA LAVAGEM DINHEIRO 18.130,77 7.252,31 0,00 0,00 0,00 0,00 0,00 2.105,00 27.488,08 3.842,24 4.934,50 0,00 0,00 8.776,74 18.711,34 31/07/2023
744 524700 DENISE RAMOS GUIMARAES OFICIAL DO MP BELO HORIZONTE - COMARCA; BH-07PJ 01 TRIBUNAL JURI-SECRETARIA 7.506,70 1.501,34 0,00 0,00 0,00 0,00 0,00 2.105,00 11.113,04 1.222,23 1.256,14 0,00 0,00 2.478,37 8.634,67 31/07/2023
745 239100 DENISE RIBEIRO DOS SANTOS CAETANO OFICIAL DO MP ITANHANDU - COMARCA; ITANHANDU-PJ-SECRETARIA 17.559,01 7.023,60 0,00 0,00 0,00 0,00 0,00 2.105,00 26.687,61 3.714,17 4.801,72 0,00 0,00 8.515,89 18.171,72 31/07/2023
746 325500 DENISE ROSA TORRES OFICIAL DO MP BELO HORIZONTE - COMARCA; DIRETORIA DE PESSOAL ADMINISTRATIVO - DPAD 13.588,97 4.076,69 0,00 0,00 0,00 0,00 0,00 2.105,00 19.770,66 2.607,45 3.256,05 0,00 0,00 5.863,50 13.907,16 31/07/2023
747 437200 DENISE VIVIANE DOS SANTOS ANALISTA DO MP BELO HORIZONTE - COMARCA; CGMP-DIR ESTAGIO PROBATORIO E ORIENT 15.447,01 3.089,40 0,00 0,00 0,00 0,00 0,00 3.530,00 22.066,41 2.746,77 3.405,05 0,00 0,00 6.151,82 15.914,59 31/07/2023
748 267900 DENISIA ALMEIDA SALES OFICIAL DO MP BELO HORIZONTE - COMARCA; BH-18PJ DIREITOS HUMANOS-SECRETARIA 12.343,61 4.937,44 0,00 0,00 0,00 0,00 1.234,36 2.105,00 20.620,41 2.743,41 3.400,20 0,00 0,00 6.143,61 14.476,80 31/07/2023
749 355300 DEYSE CRISTINA MORAIS OFICIAL DO MP PASSOS - COMARCA; PASSOS-PJ-02PJ 12.343,61 3.703,08 0,00 0,00 0,00 0,00 0,00 2.105,00 18.151,69 2.348,42 2.882,06 0,00 0,00 5.230,48 12.921,21 31/07/2023
750 523700 DIANA CAMPOS RESENDE OFICIAL DO MP SÃO JOÃO DEL REI - COMARCA; SAO JOAO DEL REI-PJ-04PJ 9.699,77 6.789,84 0,00 0,00 0,00 0,00 0,00 2.105,00 18.594,61 2.419,29 2.932,24 0,00 0,00 5.351,53 13.243,08 31/07/2023
751 241900 DIANA CARDOSO MARTINS OFICIAL DO MP BELO HORIZONTE - COMARCA; CAO-DH CONT EXT ATIV POLIC E AP COMUNIT 12.343,61 4.937,44 0,00 0,00 0,00 0,00 0,00 2.105,00 19.386,05 2.545,92 3.167,20 0,00 0,00 5.713,12 13.672,93 31/07/2023
752 410100 DIANA GORDILHO SILVEIRA SENA ANALISTA DO MP BELO HORIZONTE - COMARCA; BH-14PJ DEFESA CONSUMIDOR-GAB 112PJ 18.130,77 3.626,15 0,00 0,00 0,00 0,00 0,00 2.105,00 23.861,92 3.262,06 4.201,13 0,00 0,00 7.463,19 16.398,73 31/07/2023
753 553000 DIANA MARIA MARQUES ANALISTA DO MP BETIM - COMARCA; BETIM-PJ-07PJ 12.343,61 2.468,72 0,00 0,00 0,00 0,00 0,00 2.105,00 16.917,33 2.150,92 2.544,79 0,00 0,00 4.695,71 12.221,62 31/07/2023
754 520000 DIARLE TOSTE DOS SANTOS ANALISTA DO MP RIO POMBA - COMARCA; RIO POMBA-PJ-UNPJ 12.343,61 2.468,72 0,00 0,00 0,00 0,00 0,00 2.105,00 16.917,33 2.150,92 1.870,93 0,00 0,00 4.021,85 12.895,48 31/07/2023
755 539800 DIEGO CAMARGOS RODRIGUES OFICIAL DO MP CONTAGEM - COMARCA; CONTAGEM-PJ-05PJ 7.506,70 1.501,34 0,00 0,00 0,00 0,00 0,00 2.105,00 11.113,04 1.222,23 1.256,14 0,00 0,00 2.478,37 8.634,67 31/07/2023
756 607300 DIEGO CERVEIRA DE SOUZA ANALISTA DO MP PATOS DE MINAS - COMARCA; COORD REG BACIAS PARACATU,URUCUIA E ABAETE 12.343,61 1.234,36 0,00 0,00 0,00 0,00 0,00 2.105,00 15.682,97 982,16 2.453,68 0,00 0,00 3.435,84 12.247,13 31/07/2023
757 446900 DIEGO DE FREITAS OFICIAL DO MP UBERABA - COMARCA; UBERABA-PJ-06PJ 10.516,49 2.103,30 0,00 0,00 0,00 0,00 0,00 2.105,00 14.724,79 1.800,11 2.090,45 0,00 0,00 3.890,56 10.834,23 31/07/2023
758 288800 DILENE NEPOMUCENO ALVES OFICIAL DO MP BELO HORIZONTE - COMARCA; DIRETORIA DE PESSOAL ADMINISTRATIVO - DPAD 12.343,61 3.703,08 0,00 0,00 0,00 0,00 0,00 2.105,00 18.151,69 2.348,42 2.882,06 0,00 0,00 5.230,48 12.921,21 31/07/2023
759 681200 DILLIANY PAULA LOPES SERRANO ASSESSOR PROMOTOR JUSTICA RESPLENDOR - COMARCA; RESPLENDOR-PJ-UNPJ 0,00 0,00 8.810,89 0,00 0,00 0,00 0,00 3.055,00 11.865,89 876,95 1.709,37 0,00 0,00 2.586,32 9.279,57 31/07/2023
760 270101 DILSON DO AMARAL ANALISTA DO MP RIO CASCA - COMARCA; RIO CASCA-PJ-UNPJ 12.343,61 3.703,08 0,00 0,00 0,00 0,00 0,00 2.105,00 18.151,69 2.348,42 2.882,06 0,00 0,00 5.230,48 12.921,21 31/07/2023
761 466000 DIMITRI GUDE MARCIAL ANALISTA DO MP NANUQUE - COMARCA; NANUQUE-PJ-02PJ 12.343,61 2.468,72 0,00 0,00 0,00 0,00 0,00 4.005,00 18.817,33 2.150,92 2.440,52 0,00 0,00 4.591,44 14.225,89 31/07/2023
762 516300 DINORA APARECIDA MACEDO BRANDAO ANALISTA DO MP BELO HORIZONTE - COMARCA; BH-19PJ SAUDE-SECRETARIA 150PJ 12.343,61 2.468,72 0,00 0,00 0,00 0,00 0,00 2.105,00 16.917,33 2.150,92 2.596,93 0,00 0,00 4.747,85 12.169,48 31/07/2023
763 511700 DIOGENES HENRIQUES PEREIRA LOURENCO ANALISTA DO MP BELO HORIZONTE - COMARCA; BH-03PJ EMPRESARIAL-SECRETARIA 12.343,61 2.468,72 0,00 0,00 0,00 0,00 0,00 3.055,00 17.867,33 982,16 2.767,68 0,00 0,00 3.749,84 14.117,49 31/07/2023
764 604100 DIOGO CESAR DE OLIVEIRA HONORIO ASSESSOR ADMINISTRATIVO III PIUMHI - COMARCA; PIUMHI-PJ-02PJ 0,00 0,00 10.858,90 0,00 0,00 0,00 0,00 2.105,00 12.963,90 876,95 2.272,58 0,00 0,00 3.149,53 9.814,37 31/07/2023
765 259600 DIOGO MESQUITA MAIA ANALISTA DO MP BELO HORIZONTE - COMARCA; DIRET DE APOIO AS PROCURADORIAS DE JUSTICA 22.191,68 19.972,51 0,00 0,00 0,00 5.795,34 477,24 7.311,23 55.748,00 5.795,34 9.400,14 4.574,23 0,00 19.769,71 35.978,29 31/07/2023
766 386700 DIRCIMAR FERNANDES CARNEIRO OFICIAL DO MP VISCONDE DO RIO BRANCO - COMARCA; VISCONDE DO RIO BRANCO-PJ-03PJ 12.343,61 8.640,53 0,00 0,00 0,00 0,00 0,00 2.105,00 23.089,14 3.138,41 4.022,62 0,00 0,00 7.161,03 15.928,11 31/07/2023
767 216700 DOMICIO VALDETE PEREIRA OFICIAL DO MP TEÓFILO OTONI - COMARCA; COORD REG PJ DEF EDU DIR CRIAN ADOL JEQUI MUC 20.533,67 8.213,47 0,00 0,00 0,00 0,00 0,00 2.105,00 30.852,14 4.380,49 5.711,59 0,00 0,00 10.092,08 20.760,06 31/07/2023
768 192701 DONIZETTI APARECIDO AMORIM ANALISTA DO MP PRATÁPOLIS - COMARCA; PRATAPOLIS-PJ-UNPJ 12.266,81 4.937,44 0,00 0,00 0,00 0,00 0,00 2.105,00 19.309,25 2.545,92 3.093,94 0,00 0,00 5.639,86 13.669,39 31/07/2023
769 558700 DORCILIA FATIMA DE OLIVEIRA OFICIAL DO MP DIVINÓPOLIS - COMARCA; DIVINOPOLIS-PJ-02PJ 7.506,70 750,67 0,00 0,00 0,00 1.102,13 0,00 2.105,00 11.464,50 1.102,13 1.333,68 0,00 0,00 2.435,81 9.028,69 31/07/2023
770 555300 DOUGLAS CUNHA DE SOUZA ANALISTA DO MP VARZEA DA PALMA - COMARCA; VARZEA DA PALMA-PJ-01PJ 12.343,61 2.468,72 0,00 0,00 0,00 0,00 1.234,36 3.055,00 19.101,69 982,16 3.081,66 0,00 0,00 4.063,82 15.037,87 31/07/2023
771 265900 DOUGLAS GOMES MOREIRA ANALISTA DO MP BELO HORIZONTE - COMARCA; CENTRAL DE APOIO TECNICO-SETOR DE ENGENHARIA 23.070,31 9.228,12 0,00 0,00 0,00 0,00 2.307,03 2.105,00 36.710,46 5.317,82 7.169,14 0,00 0,00 12.486,96 24.223,50 31/07/2023
772 241000 DOUGLAS MEIRELLES DE CASTRO OFICIAL DO MP CONCEIÇÃO DO RIO VERDE - COMARCA; CONCEICAO DO RIO VERDE-PJ-UNPJ 17.559,01 8.779,51 0,00 0,00 0,00 0,00 1.755,90 2.105,00 30.199,42 4.276,06 5.612,95 0,00 0,00 9.889,01 20.310,41 31/07/2023
773 534900 DOUGLAS SILVA E SOUZA ANALISTA DO MP CAMPOS GERAIS - COMARCA; CAMPOS GERAIS-PJ-01PJ 12.343,61 2.468,72 0,00 0,00 0,00 0,00 0,00 2.105,00 16.917,33 982,16 2.715,54 0,00 0,00 3.697,70 13.219,63 31/07/2023
774 638900 DOUGLAS WALLAS CONCEICAO NEVES OFICIAL DO MP RIBEIRÃO DAS NEVES - COMARCA; RIBEIRAO DAS NEVES-PJ-SEC CIVEL 6.603,76 660,38 0,00 0,00 0,00 0,00 0,00 2.105,00 9.369,14 944,43 852,96 0,00 0,00 1.797,39 7.571,75 31/07/2023
775 146800 DUCINALVA AMARAL LOPES REIS OFICIAL DO MP PARAISÓPOLIS - COMARCA; PARAISOPOLIS-PJ-UNPJ 23.070,31 18.456,25 0,00 0,00 0,00 5.795,34 477,24 7.311,24 55.110,38 5.795,34 9.348,00 3.936,60 0,00 19.079,94 36.030,44 31/07/2023
776 122500 DUILIO CARLOS FERREIRA UTSCH OFICIAL DO MP CONCEIÇÃO DO MATO DENTRO - COMARCA; CONCEICAO DO MATO DENTRO-PJ-UNPJ 20.533,67 18.480,31 0,00 0,00 0,00 5.795,34 477,24 7.311,24 52.597,80 5.795,34 9.452,28 1.424,02 0,00 16.671,64 35.926,16 31/07/2023
777 201800 DULCINEIA ANDRE DE SOUZA OFICIAL DO MP JEQUITINHONHA - COMARCA; JEQUITINHONHA-PJ-SECRETARIA 20.533,67 8.213,47 0,00 0,00 0,00 0,00 0,00 2.105,00 30.852,14 4.380,49 5.659,46 0,00 0,00 10.039,95 20.812,19 31/07/2023
778 395800 DUVIDIER MEDIRCIO JUNIOR ANALISTA DO MP BELO HORIZONTE - COMARCA; CAO-PATRIMONIO PUBLICO 19.751,60 5.925,48 0,00 0,00 0,00 0,00 0,00 2.105,00 27.782,08 3.889,28 5.106,69 0,00 0,00 8.995,97 18.786,11 31/07/2023
779 604800 ECIA RAMILIS ISSA DE ABREU ANALISTA DO MP BRASÍLIA DE MINAS - COMARCA; BRASILIA DE MINAS-PJ-01PJ 12.343,61 1.234,36 0,00 0,00 0,00 0,00 0,00 3.055,00 16.632,97 1.953,42 2.311,79 0,00 0,00 4.265,21 12.367,76 31/07/2023
780 273000 EDELFINA APARECIDA GUIMARAES OFICIAL DO MP CACHOEIRA DE MINAS - COMARCA; CACHOEIRA DE MINAS-PJ-UNPJ 13.588,97 10.871,18 0,00 0,00 0,00 0,00 0,00 2.105,00 26.565,15 3.694,57 4.773,44 0,00 0,00 8.468,01 18.097,14 31/07/2023
781 523300 EDER DOS SANTOS PATRICIO ANALISTA DO MP NOVA SERRANA - COMARCA; NOVA SERRANA-PJ-03PJ 12.343,61 2.468,72 0,00 0,00 0,00 0,00 0,00 3.055,00 17.867,33 982,16 2.715,54 0,00 0,00 3.697,70 14.169,63 31/07/2023
782 356700 EDER JOSE PACHECO OFICIAL DO MP CAMPO BELO - COMARCA; CAMPO BELO-PJ-04PJ 12.343,61 3.703,08 0,00 0,00 0,00 0,00 1.771,66 2.105,00 19.923,35 2.348,42 3.317,13 0,00 0,00 5.665,55 14.257,80 31/07/2023
783 507900 EDERSON SILVA LOPES OFICIAL DO MP BELO HORIZONTE - COMARCA; LABORATORIO TECNOLOGIA INTELIGENCIA 9.097,81 1.819,56 0,00 0,00 0,00 0,00 0,00 2.105,00 13.022,37 1.527,73 1.592,92 0,00 0,00 3.120,65 9.901,72 31/07/2023
784 296200 EDGARD GOULART MATOSINHO DE LAET JR ANALISTA DO MP GOVERNADOR VALADARES - COMARCA; GOVERNADOR VALADARES-PJ-12PJ 22.191,68 6.657,50 0,00 0,00 0,00 0,00 0,00 2.105,00 30.954,18 4.396,82 5.735,16 0,00 0,00 10.131,98 20.822,20 31/07/2023
785 295000 EDILA MARIA DA SILVEIRA OFICIAL DO MP FORMIGA - COMARCA; FORMIGA-PJ-01PJ 12.343,61 3.703,08 0,00 0,00 0,00 0,00 0,00 2.105,00 18.151,69 2.348,42 2.882,06 0,00 0,00 5.230,48 12.921,21 31/07/2023
786 332300 EDILA MARILAC MIRANDA PRADO OFICIAL DO MP DIAMANTINA - COMARCA; DIAMANTINA-PJ-01PJ 12.343,61 6.171,81 0,00 0,00 0,00 0,00 0,00 2.105,00 20.620,42 2.743,42 3.348,07 0,00 0,00 6.091,49 14.528,93 31/07/2023
787 376600 EDILANE CONSOLACAO ROSA NAZARETH ANALISTA DO MP BETIM - COMARCA; BETIM-PJ-10PJ 18.720,84 5.616,25 0,00 0,00 0,00 0,00 0,00 2.105,00 26.442,09 982,16 5.190,54 0,00 0,00 6.172,70 20.269,39 31/07/2023
788 309800 EDILZA DOS REIS OFICIAL DO MP UBERLÂNDIA - COMARCA; UBERLANDIA-PJ-03PJ 12.343,61 3.703,08 0,00 0,00 0,00 0,00 0,00 2.105,00 18.151,69 2.348,42 2.829,93 0,00 0,00 5.178,35 12.973,34 31/07/2023
789 200500 EDINEIA MARIA DE OLIVEIRA ANTUNES OFICIAL DO MP MONTES CLAROS - COMARCA; MONTES CLAROS-PJ-10PJ 20.533,67 10.266,84 0,00 0,00 0,00 0,00 0,00 2.105,00 32.905,51 4.709,03 6.290,20 0,00 0,00 10.999,23 21.906,28 31/07/2023
790 427700 EDISANGELA SOARES LOPES OFICIAL DO MP PIRAPORA - COMARCA; PIRAPORA-PJ-02PJ 7.506,70 1.501,34 0,00 0,00 0,00 0,00 0,00 2.105,00 11.113,04 1.222,23 1.256,14 0,00 0,00 2.478,37 8.634,67 31/07/2023
791 555400 EDISON MONTEIRO SAMPAIO NETO ANALISTA DO MP BELO HORIZONTE - COMARCA; BH-12PJ JUIZO CRIMINAL-GAB 094PJ 12.343,61 2.468,72 0,00 0,00 0,00 0,00 0,00 2.105,00 16.917,33 2.150,92 2.596,93 0,00 0,00 4.747,85 12.169,48 31/07/2023
792 517700 EDMILSON TADEU FERNANDES OFICIAL DO MP POUSO ALEGRE - COMARCA; GAECO REGIONAL DE POUSO ALEGRE 9.393,95 1.878,79 0,00 0,00 0,00 0,00 0,00 2.105,00 13.377,74 1.584,59 1.779,28 0,00 0,00 3.363,87 10.013,87 31/07/2023
793 358400 EDNA APARECIDA SILVA FERREIRA OFICIAL DO MP CORONEL FABRICIANO - COMARCA; CORONEL FABRICIANO-PJ-02PJ 13.588,97 4.076,69 0,00 0,00 0,00 0,00 0,00 2.105,00 19.770,66 2.607,45 3.151,77 0,00 0,00 5.759,22 14.011,44 31/07/2023
794 331800 EDNA MARCIA CAMILO DA SILVA OFICIAL DO MP SETE LAGOAS - COMARCA; SETE LAGOAS-PJ-SEC CRIMINAIS 12.343,61 3.703,08 0,00 0,00 0,00 0,00 0,00 2.105,00 18.151,69 2.348,42 2.829,93 0,00 0,00 5.178,35 12.973,34 31/07/2023
795 327900 EDRIEL SANTANA PEREIRA OFICIAL DO MP TUPACIGUARA - COMARCA; TUPACIGUARA-PJ-02PJ 12.343,61 3.703,08 0,00 0,00 0,00 0,00 0,00 3.231,16 19.277,85 2.348,42 2.882,06 0,00 0,00 5.230,48 14.047,37 31/07/2023
796 482400 EDSON GARCIA OFICIAL DO MP MACHADO - COMARCA; MACHADO-PJ-02PJ 7.506,70 1.501,34 0,00 0,00 0,00 0,00 0,00 2.105,00 11.113,04 1.222,23 1.151,86 0,00 0,00 2.374,09 8.738,95 31/07/2023
797 225601 EDSON LABRE FILHO ANALISTA DO MP VARGINHA - COMARCA; VARGINHA-PJ-01PJ 22.191,68 8.876,67 0,00 0,00 0,00 0,00 0,00 2.105,00 33.173,35 4.751,88 6.299,93 0,00 0,00 11.051,81 22.121,54 31/07/2023
798 602700 EDSON NOGUEIRA BUENO OFICIAL DO MP PITANGUI - COMARCA; PITANGUI-PJ-02PJ 7.506,70 750,67 0,00 0,00 0,00 0,00 0,00 2.105,00 10.362,37 1.102,13 1.082,73 0,00 0,00 2.184,86 8.177,51 31/07/2023
799 716500 EDUARDA CORREA MOREIRA ASSESSOR ADMINISTRATIVO I BELO HORIZONTE - COMARCA; DIRET DE FORMACAO, APERFEIC. E POS-GRADUACAO 0,00 0,00 4.852,07 0,00 0,00 0,00 0,00 3.055,00 7.907,07 715,19 665,18 0,00 0,00 1.380,37 6.526,70 31/07/2023
800 414400 EDUARDO ABRANTES CAMPOS ANALISTA DO MP SÃO JOÃO DEL REI - COMARCA; SAO JOAO DEL REI-PJ-02PJ 18.130,77 3.626,15 0,00 0,00 0,00 0,00 0,00 2.105,00 23.861,92 3.262,06 4.201,13 0,00 0,00 7.463,19 16.398,73 31/07/2023
801 476800 EDUARDO ALVES DE MOURA ANALISTA DO MP UBERLÂNDIA - COMARCA; UBERLANDIA-PJ-02PJ 12.343,61 2.468,72 0,00 0,00 0,00 0,00 0,00 3.055,00 17.867,33 982,16 2.611,26 0,00 0,00 3.593,42 14.273,91 31/07/2023
802 390800 EDUARDO AMORIM PETTERSEN OFICIAL DO MP CARANGOLA - COMARCA; CARANGOLA-PJ-SECRETARIA 11.212,54 3.363,76 0,00 0,00 0,00 0,00 0,00 2.105,00 16.681,30 2.113,16 2.542,40 0,00 0,00 4.655,56 12.025,74 31/07/2023
803 461600 EDUARDO ANTONIO DE ASSIS FARIA ASSESSOR ADMINISTRATIVO III BELO HORIZONTE - COMARCA; ASSESS EXECUTIVA DO CONSELHO SUPERIOR DO MP 0,00 0,00 10.858,90 0,00 0,00 0,00 0,00 2.105,00 12.963,90 876,95 2.220,44 0,00 0,00 3.097,39 9.866,51 31/07/2023
804 248800 EDUARDO DE CASTRO AMORIM ANALISTA DO MP BELO HORIZONTE - COMARCA; SUPER DE GESTAO DE PESSOAS-LOTACAO TEMPORARIA 23.070,31 9.228,12 0,00 0,00 0,00 0,00 0,00 2.105,00 34.403,43 4.948,70 6.636,22 0,00 0,00 11.584,92 22.818,51 31/07/2023
805 209100 EDUARDO DE SOUZA MAIA ANALISTA DO MP BELO HORIZONTE - COMARCA; SUPER DE GESTAO DE PESSOAS-LOTACAO TEMPORARIA 23.070,31 9.228,12 0,00 0,00 0,00 0,00 0,00 2.105,00 34.403,43 4.948,70 6.531,94 0,00 0,00 11.480,64 22.922,79 31/07/2023
806 633900 EDUARDO GONCALVES PIRES OFICIAL DO MP BELO HORIZONTE - COMARCA; DIRETORIA DE PAGAMENTO DE PESSOAL-DPAG 8.264,07 3.305,63 0,00 0,00 0,00 0,00 0,00 2.105,00 13.674,70 1.632,10 1.847,88 0,00 0,00 3.479,98 10.194,72 31/07/2023
807 350500 EDUARDO GONCALVES RIBEIRO OFICIAL DO MP VESPASIANO - COMARCA; VESPASIANO-PJ-SECRETARIA 11.577,56 3.473,27 3.004,68 0,00 0,00 0,00 0,00 2.105,00 20.160,51 2.189,08 3.478,31 0,00 0,00 5.667,39 14.493,12 31/07/2023
808 115800 EDUARDO HENRIQUE DE CAMPOS MAIA OFICIAL DO MP BELO HORIZONTE - COMARCA; DIV FISCAL ADM CONT TERCEIRIZACAO 22.191,68 15.534,18 0,00 0,00 0,00 0,00 551,32 8.119,40 46.396,58 5.795,34 7.702,15 135,90 0,00 13.633,39 32.763,19 31/07/2023
809 392600 EDUARDO HENRIQUE DOS SANTOS COSTA ELIAZAR OFICIAL DO MP MATOZINHOS - COMARCA; MATOZINHOS-PJ-01PJ 10.858,90 3.257,67 0,00 0,00 0,00 0,00 0,00 2.105,00 16.221,57 2.039,60 2.331,93 0,00 0,00 4.371,53 11.850,04 31/07/2023
810 99101 EDUARDO JOSE DE FREITAS NUNES ASSESSOR ADMINISTRATIVO II BELO HORIZONTE - COMARCA; PROC JUST ATUACAO TRIBUNAIS SUPERIORES-GAB007 0,00 3.753,35 7.506,70 0,00 0,00 0,00 0,00 2.105,00 13.365,05 876,95 2.382,89 0,00 0,00 3.259,84 10.105,21 31/07/2023
811 407500 EDUARDO MASCARENHAS CURI AZEVEDO ANALISTA DO MP BELO HORIZONTE - COMARCA; DIR CONTEUDO JORNALISTICO 12.343,61 2.468,72 0,00 0,00 0,00 0,00 0,00 3.055,00 17.867,33 2.150,92 2.596,93 0,00 0,00 4.747,85 13.119,48 31/07/2023
812 601300 EDUARDO TRAD VIEIRA OFICIAL DO MP BELO HORIZONTE - COMARCA; SUPER DE GESTAO DE PESSOAS-LOTACAO TEMPORARIA 7.506,70 750,67 0,00 0,00 0,00 0,00 0,00 2.105,00 10.362,37 1.102,13 1.082,73 0,00 0,00 2.184,86 8.177,51 31/07/2023
813 257600 EDUARDO VALADARES CABRAL ANALISTA DO MP BELO HORIZONTE - COMARCA; COORD DE INCLUSAO E MOBILIZACAO SOCIAIS 23.070,31 9.228,12 0,00 0,00 0,00 0,00 0,00 2.105,00 34.403,43 4.948,70 6.636,22 0,00 0,00 11.584,92 22.818,51 31/07/2023
814 746800 EDUARDO XAVIER ARAUJO OFICIAL DO MP BELO HORIZONTE - COMARCA; SUPER DE GESTAO DE PESSOAS-LOTACAO TEMPORARIA 3.656,20 0,00 0,00 0,00 0,00 0,00 0,00 1.832,27 5.488,47 385,20 98,83 0,00 0,00 484,03 5.004,44 31/07/2023
815 545700 EDVAIR FERREIRA DE CARVALHO OFICIAL DO MP ARAGUARI - COMARCA; ARAGUARI-PJ-06PJ 7.506,70 1.501,34 0,00 0,00 0,00 0,00 0,00 2.105,00 11.113,04 1.222,23 1.204,00 0,00 0,00 2.426,23 8.686,81 31/07/2023
816 401700 EDWANIA AMORIM DO CARMO OFICIAL DO MP RIBEIRÃO DAS NEVES - COMARCA; RIBEIRAO DAS NEVES-PJ-03PJ 12.343,61 2.468,72 0,00 0,00 0,00 0,00 0,00 2.105,00 16.917,33 2.150,92 2.596,93 0,00 0,00 4.747,85 12.169,48 31/07/2023
817 303600 EFIGENIO SARAIVA LOPES ANALISTA DO MP BELO HORIZONTE - COMARCA; DIRETORIA DE PAGAMENTO DE PESSOAL-DPAG 23.070,31 6.921,09 5.538,92 0,00 0,00 0,00 130,28 3.526,21 39.186,81 4.579,57 7.574,36 0,00 0,00 12.153,93 27.032,88 31/07/2023
818 286000 ELAINE APARECIDA SILVA BERZOINI OFICIAL DO MP JUIZ DE FORA - COMARCA; JUIZ DE FORA-PJ-07PJ 12.343,61 3.703,08 0,00 0,00 0,00 0,00 0,00 2.105,00 18.151,69 2.348,42 2.882,06 0,00 0,00 5.230,48 12.921,21 31/07/2023
819 509000 ELAINE CANDIDA PONTES OFICIAL DO MP BELO HORIZONTE - COMARCA; BH-02PJ FAMILIA-SECRETARIA 10.341,72 2.068,34 0,00 0,00 0,00 0,00 0,00 2.105,00 14.515,06 1.766,56 2.042,00 0,00 0,00 3.808,56 10.706,50 31/07/2023
820 283601 ELAINE CRISTINA MEQUELINO DUARTE ANALISTA DO MP ALFENAS - COMARCA; ALFENAS-PJ-02PJ 18.720,84 6.739,50 0,00 0,00 0,00 0,00 0,00 2.105,00 27.565,34 3.854,60 4.952,34 0,00 0,00 8.806,94 18.758,40 31/07/2023
821 535500 ELAINE DE OLIVEIRA CAMPOS REIS OFICIAL DO MP RIBEIRÃO DAS NEVES - COMARCA; RIBEIRAO NEVES-SEC PJ EXECUCAO PENAL 7.506,70 1.501,34 0,00 0,00 0,00 0,00 0,00 2.105,00 11.113,04 1.222,23 1.256,14 0,00 0,00 2.478,37 8.634,67 31/07/2023
822 455700 ELAINE DE OLIVEIRA CASTRO ANALISTA DO MP POMPÉU - COMARCA; POMPEU-PJ-UNPJ 12.343,61 2.468,72 0,00 0,00 0,00 0,00 0,00 3.276,67 18.089,00 2.150,92 2.492,65 0,00 0,00 4.643,57 13.445,43 31/07/2023
823 367200 ELAINE MUNIZ BARBOSA ANALISTA DO MP BELO HORIZONTE - COMARCA; DIRETORIA DE SISTEMAS DE INFORMACAO 20.533,67 6.160,10 0,00 0,00 0,00 0,00 0,00 3.055,00 29.748,77 4.051,95 5.289,40 0,00 0,00 9.341,35 20.407,42 31/07/2023
824 679200 ELAINE RIBEIRO CHAVES ASSESSOR PROCURADOR JUSTICA BELO HORIZONTE - COMARCA; GABINETE DE PROCURADOR DE JUSTIÇA - SALA 614 0,00 0,00 8.810,89 0,00 0,00 0,00 0,00 2.105,00 10.915,89 876,95 1.657,24 0,00 0,00 2.534,19 8.381,70 31/07/2023
825 176900 ELAINE RIBEIRO TAVEIRA OFICIAL DO MP BELO HORIZONTE - COMARCA; DIVISAO FROTA 17.005,40 6.802,16 0,00 0,00 0,00 0,00 0,00 2.105,00 25.912,56 3.590,16 4.674,83 0,00 0,00 8.264,99 17.647,57 31/07/2023
826 496200 ELAINE SABRINA MOREIRA SCHUWARTEN ANALISTA DO MP CORONEL FABRICIANO - COMARCA; CORONEL FABRICIANO-PJ-SECRETARIA 13.588,97 2.717,79 0,00 0,00 0,00 0,00 0,00 2.105,00 18.411,76 2.390,03 2.942,14 0,00 0,00 5.332,17 13.079,59 31/07/2023
827 489200 ELAINE VICENTINO GARCIA ANALISTA DO MP BELO HORIZONTE - COMARCA; CENTRAL DE APOIO TECNICO-SETOR CONTABIL 12.343,61 4.937,44 0,00 0,00 0,00 0,00 0,00 2.105,00 19.386,05 2.545,92 3.062,93 0,00 0,00 5.608,85 13.777,20 31/07/2023
828 731400 ELBERT MENDES PINHEIRO ASSESSOR PROMOTOR JUSTICA BELO HORIZONTE - COMARCA; COORD ESTADUAL DAS PJS DE HAB. E URBANISMO 0,00 0,00 8.810,89 0,00 0,00 0,00 0,00 2.105,00 10.915,89 876,95 1.709,37 0,00 0,00 2.586,32 8.329,57 31/07/2023
829 244500 ELCI ALVES DE SOUZA ASSESSOR ADMINISTRATIVO II BELO HORIZONTE - COMARCA; CAO-CONFLITOS AGRARIOS-SECRETARIA 0,00 3.002,68 7.506,70 0,00 0,00 0,00 0,00 2.105,00 12.614,38 876,95 2.124,32 0,00 0,00 3.001,27 9.613,11 31/07/2023
830 472500 ELCI VAZ DE OLIVEIRA FILHO ANALISTA DO MP PIUMHI - COMARCA; PIUMHI-PJ-02PJ 12.343,61 6.171,81 0,00 0,00 0,00 0,00 0,00 2.105,00 20.620,42 2.743,42 3.452,34 0,00 0,00 6.195,76 14.424,66 31/07/2023
831 385200 ELCI VIANA REIS OFICIAL DO MP RIO PARDO DE MINAS - COMARCA; RIO PARDO DE MINAS-PJ-SECRETARIA 12.343,61 6.171,81 0,00 0,00 0,00 0,00 0,00 2.300,96 20.816,38 2.743,42 3.452,34 0,00 0,00 6.195,76 14.620,62 31/07/2023
832 289801 ELCIO JOSE DOS SANTOS ANALISTA DO MP BELO HORIZONTE - COMARCA; DIVISAO DE SERVICOS 12.343,61 3.703,08 5.538,92 0,00 0,00 0,00 0,00 2.105,00 23.690,61 2.348,42 4.405,27 0,00 0,00 6.753,69 16.936,92 31/07/2023
833 319600 ELEN TULER DE ALBERGARIA ANALISTA DO MP BELO HORIZONTE - COMARCA; BH-19PJ SAUDE-SECRETARIA 130PJ 23.070,31 11.535,16 0,00 0,00 0,00 0,00 0,00 2.105,00 36.710,47 5.317,82 7.169,14 0,00 0,00 12.486,96 24.223,51 31/07/2023
834 205500 ELIANA ALVES DE SOUSA OFICIAL DO MP GOVERNADOR VALADARES - COMARCA; GOVERNADOR VALADARES-PJ-07PJ 12.343,61 4.937,44 0,00 0,00 0,00 0,00 0,00 2.105,00 19.386,05 2.545,92 3.167,20 0,00 0,00 5.713,12 13.672,93 31/07/2023
835 628800 ELIANA APARECIDA PEREIRA ANALISTA DO MP CAMBUÍ - COMARCA; CAMBUI-PJ-02PJ 10.516,49 1.051,65 0,00 0,00 0,00 0,00 0,00 2.105,00 13.673,14 1.631,85 1.795,38 0,00 0,00 3.427,23 10.245,91 31/07/2023
836 301700 ELIANA DA SILVEIRA ANALISTA DO MP BELO HORIZONTE - COMARCA; BH-11PJ COMB CRIME ORGANIZ-GAB 081PJ 21.346,53 6.403,96 0,00 0,00 0,00 0,00 0,00 2.105,00 29.855,49 4.221,03 5.585,64 0,00 0,00 9.806,67 20.048,82 31/07/2023
837 251500 ELIANA DE LIMA MILAGRES FONSECA ANALISTA DO MP CONTAGEM - COMARCA; CONTAGEM-PJ-16PJ 23.070,31 9.228,12 0,00 0,00 0,00 0,00 0,00 2.105,00 34.403,43 4.948,70 6.584,08 0,00 0,00 11.532,78 22.870,65 31/07/2023
838 503900 ELIANA DIAS DUTRA FERREIRA OFICIAL DO MP BELO HORIZONTE - COMARCA; DIRETORIA GESTAO COMPRAS LICITACOES 10.516,49 2.103,30 0,00 0,00 0,00 0,00 0,00 3.114,58 15.734,37 1.800,11 2.038,31 0,00 0,00 3.838,42 11.895,95 31/07/2023
839 413900 ELIANA PINTO DE OLIVEIRA NEVES ANALISTA DO MP CAMPO BELO - COMARCA; CAMPO BELO-PJ-04PJ 17.559,01 3.511,80 0,00 0,00 0,00 0,00 0,00 2.105,00 23.175,81 3.152,28 4.042,64 0,00 0,00 7.194,92 15.980,89 31/07/2023
840 228200 ELIANA RODRIGUES DA CUNHA PINHEIRO OFICIAL DO MP BELO HORIZONTE - COMARCA; DIRETORIA DE PROJETOS DE EDIFICACOES 17.559,01 7.023,60 0,00 0,00 0,00 3.714,17 0,00 2.105,00 30.401,78 3.714,17 5.875,26 0,00 0,00 9.589,43 20.812,35 31/07/2023
841 386600 ELIANA SABINO CHAVES PESSOA ANALISTA DO MP CARATINGA - COMARCA; CARATINGA-PJ-06PJ 18.130,77 12.691,55 0,00 0,00 0,00 4.712,52 0,00 2.105,00 37.639,84 4.712,52 7.539,04 0,00 0,00 12.251,56 25.388,28 31/07/2023
842 677500 ELIANA SILVA ANDRADE ASSESSOR PROMOTOR JUSTICA TRÊS CORACOES - COMARCA; TRES CORACOES-PJ-06PJ 0,00 0,00 8.810,89 0,00 0,00 0,00 0,00 2.105,00 10.915,89 876,95 1.709,37 0,00 0,00 2.586,32 8.329,57 31/07/2023
843 297400 ELIANE AUGUSTA RIBEIRO COSTA ANALISTA DO MP CONSELHEIRO LAFAIETE - COMARCA; CONSELHEIRO LAFAIETE-PJ-05PJ 23.070,31 6.921,09 0,00 0,00 0,00 0,00 549,84 8.103,28 38.644,52 4.579,57 5.999,02 0,00 0,00 10.578,59 28.065,93 31/07/2023
844 510600 ELIANE CAROLINA MAIA ANALISTA DO MP IGARAPÉ - COMARCA; IGARAPE-PJ-03PJ 12.343,61 3.703,08 0,00 0,00 0,00 0,00 0,00 2.105,00 18.151,69 2.348,42 2.725,65 0,00 0,00 5.074,07 13.077,62 31/07/2023
845 262600 ELIANE FERREIRA SOARES ASSESSOR ADMINISTRATIVO II BELO HORIZONTE - COMARCA; BH-18PJ DIREITOS HUMANOS-SECRETARIA 0,00 3.002,68 7.506,70 0,00 0,00 0,00 0,00 2.105,00 12.614,38 876,95 2.176,46 0,00 0,00 3.053,41 9.560,97 31/07/2023
846 204400 ELIANE GLAUCE DE QUEIROS MAIA OFICIAL DO MP GUANHÃES - COMARCA; GUANHAES-PJ-02PJ 20.533,67 8.213,47 0,00 0,00 0,00 0,00 0,00 2.105,00 30.852,14 4.380,49 5.815,87 0,00 0,00 10.196,36 20.655,78 31/07/2023
847 91800 ELIANE KAPLER ALVES OFICIAL DO MP BELO HORIZONTE - COMARCA; DIVISAO DE CONTROLE IMOBILIARIO 23.070,31 16.149,22 0,00 0,00 0,00 5.795,34 477,23 7.311,23 52.803,33 5.795,34 9.348,00 1.629,57 0,00 16.772,91 36.030,42 31/07/2023
848 334200 ELIANE MARCIA DE OLIVEIRA BRITO OFICIAL DO MP BELO HORIZONTE - COMARCA; BH-08PJ JUIZADO ESPECIAL-SECRETARIA 7.506,70 2.252,01 0,00 0,00 0,00 0,00 0,00 2.105,00 11.863,71 1.342,34 1.429,54 0,00 0,00 2.771,88 9.091,83 31/07/2023
849 365900 ELIANE MARIA DE OLIVEIRA FERREIRA OFICIAL DO MP SETE LAGOAS - COMARCA; SETE LAGOAS-PJ-SEC CRIMINAIS 12.343,61 6.171,81 0,00 0,00 0,00 0,00 0,00 2.105,00 20.620,42 2.743,42 3.452,34 0,00 0,00 6.195,76 14.424,66 31/07/2023
850 320600 ELIANE STADLER DE SOUZA OFICIAL DO MP MONTES CLAROS - COMARCA; MONTES CLAROS-PJ-13PJ 11.577,56 3.473,27 0,00 0,00 0,00 0,00 0,00 2.105,00 17.155,83 2.189,08 2.599,88 0,00 0,00 4.788,96 12.366,87 31/07/2023
851 448900 ELIAS PEREIRA OTONI ASSESSOR ADMINISTRATIVO II BELO HORIZONTE - COMARCA; BH-18PJ DIREITOS HUMANOS-SECRETARIA 0,00 0,00 7.506,70 0,00 0,00 0,00 0,00 2.105,00 9.611,70 876,95 1.246,45 0,00 0,00 2.123,40 7.488,30 31/07/2023
852 495400 ELICA SOUZA GASPARONI MATTOS OFICIAL DO MP UBÁ - COMARCA; UBA-PJ-06PJ 10.516,49 2.103,30 0,00 0,00 0,00 0,00 0,00 2.105,00 14.724,79 1.800,11 2.090,45 0,00 0,00 3.890,56 10.834,23 31/07/2023
853 86600 ELIENE FERREIRA DA SILVA OFICIAL DO MP BELO HORIZONTE - COMARCA; BH-22PJ PES COM DEF E IDOSOS-SECRETARIA 25.920,35 20.736,29 0,00 0,00 0,00 5.795,34 477,24 7.311,24 60.240,46 5.795,34 9.295,87 9.066,68 0,00 24.157,89 36.082,57 31/07/2023
854 183800 ELIENE MARIA CUNHA OFICIAL DO MP BELO HORIZONTE - COMARCA; DIRETORIA DE PESSOAL ADMINISTRATIVO - DPAD 21.346,53 8.538,61 0,00 0,00 0,00 0,00 0,00 2.105,00 31.990,14 4.562,57 6.026,61 0,00 0,00 10.589,18 21.400,96 31/07/2023
855 172300 ELINA APARECIDA SILVA ASSESSOR ADMINISTRATIVO I BELO HORIZONTE - COMARCA; BH-19PJ SAUDE-SECRETARIA 130PJ 0,00 1.949,08 4.872,71 0,00 0,00 0,00 0,00 2.105,00 8.926,79 876,95 1.110,23 0,00 0,00 1.987,18 6.939,61 31/07/2023
856 492501 ELINE CAMPOS DA FONSECA CUNHA ANALISTA DO MP PONTE NOVA - COMARCA; PONTE NOVA-PJ-05PJ 12.343,61 2.468,72 0,00 0,00 0,00 0,00 0,00 2.105,00 16.917,33 2.150,92 2.596,93 0,00 0,00 4.747,85 12.169,48 31/07/2023
857 618900 ELISA MOURA VIEIRA MARCATTI OFICIAL DO MP BELO HORIZONTE - COMARCA; GRUPO ESP PROM JUST DEF PROB ADM PAT PUB 7.506,70 750,67 0,00 0,00 0,00 0,00 0,00 3.055,00 11.312,37 1.102,13 1.082,73 0,00 0,00 2.184,86 9.127,51 31/07/2023
858 256500 ELISABETE NOGUEIRA ANALISTA DO MP RIBEIRÃO DAS NEVES - COMARCA; RIBEIRAO NEVES-SEC PJ EXECUCAO PENAL 18.720,84 9.360,42 0,00 0,00 0,00 0,00 0,00 2.105,00 30.186,26 4.273,95 5.453,50 0,00 0,00 9.727,45 20.458,81 31/07/2023
859 355000 ELISANGELA DARLANTONI RIBEIRO OFICIAL DO MP ARAXÁ - COMARCA; ARAXA-PJ-05PJ 11.954,43 3.586,33 0,00 0,00 0,00 0,00 569,83 8.321,30 24.431,89 2.267,47 2.713,06 0,00 0,00 4.980,53 19.451,36 31/07/2023
860 604400 ELISANGELA DEMASI FERREIRA MOREIRA ANALISTA DO MP CABO VERDE - COMARCA; CABO VERDE-PJ-UNPJ 12.343,61 1.234,36 0,00 0,00 0,00 0,00 0,00 2.105,00 15.682,97 982,16 2.453,68 0,00 0,00 3.435,84 12.247,13 31/07/2023
861 323800 ELISANGELA GONCALVES DE JESUS OFICIAL DO MP BELO HORIZONTE - COMARCA; DIRETORIA DE PESSOAL ADMINISTRATIVO - DPAD 12.343,61 3.703,08 0,00 0,00 0,00 0,00 0,00 2.105,00 18.151,69 2.348,42 2.829,93 0,00 0,00 5.178,35 12.973,34 31/07/2023
862 507400 ELISANGELA MIGUEL DA ROCHA SILVA ASSESSOR ADMINISTRATIVO II BELO HORIZONTE - COMARCA; CGMP-DIR INSP CORR PROCED PROC DISC 0,00 0,00 7.506,70 0,00 0,00 0,00 0,00 2.105,00 9.611,70 876,95 1.298,58 0,00 0,00 2.175,53 7.436,17 31/07/2023
863 261400 ELISANGELA REZENDE MENDES OFICIAL DO MP POUSO ALEGRE - COMARCA; POUSO ALEGRE-PJ-05PJ 12.343,61 4.937,44 0,00 0,00 0,00 0,00 0,00 2.105,00 19.386,05 2.545,92 3.167,20 0,00 0,00 5.713,12 13.672,93 31/07/2023
864 534100 ELISANGELA ROSINE SILVA OFICIAL DO MP UBERABA - COMARCA; UBERABA-PJ-06PJ 7.506,70 1.501,34 0,00 0,00 0,00 0,00 0,00 2.105,00 11.113,04 1.222,23 1.256,14 0,00 0,00 2.478,37 8.634,67 31/07/2023
865 634300 ELIUDE GRACA DAMASIO ROSARIO FRANCELINO OFICIAL DO MP BELO HORIZONTE - COMARCA; BH-18PJ VIOLENCIA DOMESTICA-SECRETARIA 6.603,76 660,38 0,00 0,00 0,00 0,00 0,00 4.005,00 11.269,14 944,43 852,96 0,00 0,00 1.797,39 9.471,75 31/07/2023
866 461700 ELIZABETH ALEIXO DA PAZ ANALISTA DO MP JUIZ DE FORA - COMARCA; JUIZ DE FORA-PJ-18PJ 12.343,61 2.468,72 0,00 0,00 0,00 0,00 0,00 2.105,00 16.917,33 2.150,92 2.596,93 0,00 0,00 4.747,85 12.169,48 31/07/2023
867 227300 ELIZABETH COIMBRA FELIX OFICIAL DO MP JABOTICATUBAS - COMARCA; JABOTICATUBAS-PJ-UNPJ 18.130,77 9.065,39 0,00 0,00 0,00 0,00 0,00 2.105,00 29.301,16 4.132,33 5.353,32 0,00 0,00 9.485,65 19.815,51 31/07/2023
868 354800 ELIZABETH DOS REIS OFICIAL DO MP BELO HORIZONTE - COMARCA; DIVISAO DE MATERIAIS 12.343,61 3.703,08 0,00 0,00 0,00 0,00 0,00 2.105,00 18.151,69 2.348,42 2.829,93 0,00 0,00 5.178,35 12.973,34 31/07/2023
869 612000 ELIZABETH MARIA DE QUEIROZ TANIGUCHI OFICIAL DO MP BELO HORIZONTE - COMARCA; SUPERINTENDENCIA GESTÃO DE PESSOAS 6.818,83 681,88 0,00 0,00 0,00 0,00 0,00 2.105,00 9.605,71 981,10 907,93 0,00 0,00 1.889,03 7.716,68 31/07/2023
870 452800 ELIZANGELA MARIA DAVI OFICIAL DO MP ARCOS - COMARCA; ARCOS-PJ-01PJ 7.506,70 1.501,34 0,00 0,00 0,00 0,00 0,00 2.105,00 11.113,04 1.222,23 1.204,00 0,00 0,00 2.426,23 8.686,81 31/07/2023
871 496300 ELIZANGELA MARQUES PINTO COELHO OFICIAL DO MP BELO HORIZONTE - COMARCA; DIRETORIA DE PESSOAL ADMINISTRATIVO - DPAD 10.516,49 2.103,30 0,00 0,00 0,00 0,00 0,00 2.105,00 14.724,79 1.800,11 2.090,45 0,00 0,00 3.890,56 10.834,23 31/07/2023
872 422500 ELIZETE FORTES DA CUNHA ANALISTA DO MP RIBEIRÃO DAS NEVES - COMARCA; RIBEIRAO DAS NEVES-PJ-07PJ 18.130,77 3.626,15 0,00 0,00 0,00 0,00 0,00 2.105,00 23.861,92 3.262,06 4.148,99 0,00 0,00 7.411,05 16.450,87 31/07/2023
873 506100 ELLEM CRISTINA ROCHA FONSECA BOWEN ANALISTA DO MP GOVERNADOR VALADARES - COMARCA; COORD REG PJ DEF EDU DIR CRIANCA ADOL RIODOCE 12.343,61 2.468,72 0,00 0,00 0,00 0,00 0,00 2.105,00 16.917,33 2.150,92 2.596,93 0,00 0,00 4.747,85 12.169,48 31/07/2023
874 468200 ELLEN CRISTINA BERNARDES DARE ANALISTA DO MP TRÊS PONTAS - COMARCA; TRES PONTAS-PJ-02PJ 12.343,61 2.468,72 0,00 0,00 0,00 0,00 0,00 3.055,00 17.867,33 2.150,92 2.544,79 0,00 0,00 4.695,71 13.171,62 31/07/2023
875 418800 ELLEN CRISTINA DE QUEIROZ FERREIRA ANALISTA DO MP BELO HORIZONTE - COMARCA; CENTRAL DE APOIO TECNICO-SETOR CONTABIL 17.559,01 3.511,80 0,00 0,00 0,00 0,00 0,00 3.530,00 24.600,81 982,16 4.359,68 0,00 0,00 5.341,84 19.258,97 31/07/2023
876 328401 ELLEN CRISTINA FERREIRA MORAIS MONTEIRO ANALISTA DO MP CAMANDUCAIA - COMARCA; CAMANDUCAIA-PJ-UNPJ 17.559,01 4.565,34 0,00 0,00 0,00 0,00 0,00 2.105,00 24.229,35 3.320,84 4.181,73 0,00 0,00 7.502,57 16.726,78 31/07/2023
877 556100 ELLEN CRISTINE BIANCHIN DA SILVA OFICIAL DO MP SÃO GONÇALO DO SAPUCAÍ - COMARCA; SAO GONCALO DO SAPUCAI-PJ-02PJ 7.506,70 1.501,34 0,00 0,00 0,00 0,00 0,00 2.105,00 11.113,04 1.222,23 1.204,00 0,00 0,00 2.426,23 8.686,81 31/07/2023
878 714500 ELLEN PROENCA CARVALHO DE ARAUJO ASSESSOR PROMOTOR JUSTICA MARIANA - COMARCA; MARIANA-PJ-02PJ 0,00 0,00 8.810,89 0,00 0,00 0,00 0,00 2.105,00 10.915,89 876,95 1.709,37 0,00 0,00 2.586,32 8.329,57 31/07/2023
879 447100 ELLEN ROSANA DE MACEDO BORGES OFICIAL DO MP UBERLÂNDIA - COMARCA; UBERLANDIA-PJ-17PJ 10.858,90 2.171,78 0,00 0,00 0,00 0,00 0,00 2.105,00 15.135,68 1.865,86 2.185,37 0,00 0,00 4.051,23 11.084,45 31/07/2023
880 477700 ELMA JACOB OFICIAL DO MP BELO HORIZONTE - COMARCA; COORD DE GABINETE DO PGJ 10.516,49 8.413,20 0,00 0,00 0,00 2.809,70 0,00 2.105,00 23.844,39 2.809,70 4.320,70 0,00 0,00 7.130,40 16.713,99 31/07/2023
881 123300 ELMA PAULA DOS SANTOS COELHO OFICIAL DO MP BELO HORIZONTE - COMARCA; BH-19PJ SAUDE-SECRETARIA 130PJ 23.070,31 23.070,31 0,00 0,00 0,00 5.795,34 0,00 2.105,00 54.040,96 5.795,34 9.452,28 8.550,66 0,00 23.798,28 30.242,68 31/07/2023
882 728200 ELMITA XISTO DO VALLE ASSESSOR ADMINISTRATIVO I BELO HORIZONTE - COMARCA; DIRET DE FORMACAO, APERFEIC. E POS-GRADUACAO 0,00 0,00 4.872,71 0,00 1.624,24 0,00 0,00 2.105,00 8.601,95 718,08 1.116,73 0,00 0,00 1.834,81 6.767,14 31/07/2023
883 356500 ELOISA CARDOSO SILVA FRANCA OFICIAL DO MP PEÇANHA - COMARCA; PECANHA-PJ-SECRETARIA 7.506,70 2.252,01 0,00 0,00 0,00 0,00 0,00 2.105,00 11.863,71 1.342,34 1.377,40 0,00 0,00 2.719,74 9.143,97 31/07/2023
884 251901 ELOISA COSTA E SILVA ANALISTA DO MP BELO HORIZONTE - COMARCA; CENT ESTAD COOPERACAO TECNICO-JURIDICA 12.343,61 4.937,44 0,00 0,00 0,00 0,00 0,00 2.105,00 19.386,05 2.545,92 3.115,06 0,00 0,00 5.660,98 13.725,07 31/07/2023
885 400400 ELOIZA MARIA FERRI PIRES DA SILVA OFICIAL DO MP BELO HORIZONTE - COMARCA; ASSESSORIA DE COMUNICACAO INTEGRADA 10.858,90 3.257,67 4.020,58 0,00 0,00 0,00 1.085,89 2.105,00 21.328,04 2.213,34 3.792,71 0,00 0,00 6.006,05 15.321,99 31/07/2023
886 258000 ELSO CECIANO PALMEIRA OFICIAL DO MP BELO HORIZONTE - COMARCA; DIRET DE PESSOAL DO MINISTERIO PUBLICO - DPMP 15.949,86 12.759,89 5.928,90 0,00 0,00 0,00 0,00 2.105,00 36.743,65 4.374,51 7.437,68 0,00 0,00 11.812,19 24.931,46 31/07/2023
887 206900 ELVIRA RITA DOS SANTOS ANALISTA DO MP BELO HORIZONTE - COMARCA; CENTRAL DE APOIO TECNICO-SETOR CONTABIL 23.070,31 9.228,12 0,00 0,00 0,00 4.948,70 546,29 8.064,54 45.857,96 4.948,70 7.997,11 0,00 0,00 12.945,81 32.912,15 31/07/2023
888 506800 ELVIS FERREIRA DA SILVA ANALISTA DO MP BELO HORIZONTE - COMARCA; DIRETORIA DE SISTEMAS DE INFORMACAO 12.343,61 2.468,72 0,00 0,00 0,00 0,00 0,00 3.055,00 17.867,33 2.150,92 2.440,52 0,00 0,00 4.591,44 13.275,89 31/07/2023
889 602400 ELZA MARIA MOREIRA MUNIZ ANALISTA DO MP RIO PARANAÍBA - COMARCA; RIO PARANAIBA-PJ-UNPJ 12.343,61 2.468,72 0,00 0,00 0,00 0,00 0,00 2.105,00 16.917,33 2.150,92 2.492,65 0,00 0,00 4.643,57 12.273,76 31/07/2023
890 368401 ELZIRA SIMOES DOS SANTOS ASSESSOR DE GABINETE I BELO HORIZONTE - COMARCA; ASSESSORIA DE COMUNICACAO INTEGRADA 0,00 7.252,31 18.130,77 0,00 0,00 0,00 558,43 8.196,94 34.138,45 876,95 6.266,73 0,00 0,00 7.143,68 26.994,77 31/07/2023
891 437400 EMANOELLE DA SILVA RODRIGUES OFICIAL DO MP UNAÍ - COMARCA; UNAI-PJ-03PJ 9.944,05 2.003,12 0,00 0,00 0,00 0,00 0,00 3.055,00 15.002,17 1.703,94 1.879,79 0,00 0,00 3.583,73 11.418,44 31/07/2023
892 458900 EMANUELLE CONRAD SILVA FREDERICO NAVES ANALISTA DO MP ALFENAS - COMARCA; ALFENAS-PJ-05PJ 17.559,01 3.511,80 0,00 0,00 0,00 0,00 0,00 3.055,00 24.125,81 3.152,28 3.990,50 0,00 0,00 7.142,78 16.983,03 31/07/2023
893 284100 EMERSON MAGNO ALMEIDA PEDROSA DA FONSECA ANALISTA DO MP BELO HORIZONTE - COMARCA; CENTRAL DE APOIO TECNICO-SETOR CONTABIL 23.070,31 6.921,09 0,00 0,00 0,00 0,00 0,00 3.055,00 33.046,40 4.579,57 4.453,90 0,00 0,00 9.033,47 24.012,93 31/07/2023
894 179900 EMERSON MORAIS DIAS OFICIAL DO MP BELO HORIZONTE - COMARCA; SUPERINTENDÊNCIA DE ENGENHARIA E ARQUITETURA 21.346,53 8.538,61 0,00 0,00 0,00 0,00 0,00 2.105,00 31.990,14 4.562,57 6.078,75 0,00 0,00 10.641,32 21.348,82 31/07/2023
895 488700 EMERSON SIQUEIRA DE SOUSA TEIXEIRA ANALISTA DO MP ITANHOMI - COMARCA; ITANHOMI-PJ-UNPJ 12.343,61 3.209,34 0,00 0,00 0,00 0,00 0,00 2.105,00 17.657,95 2.269,42 2.611,60 0,00 0,00 4.881,02 12.776,93 31/07/2023
896 194200 EMILIA ALVES FERREIRA RAMOS OFICIAL DO MP UBERLÂNDIA - COMARCA; UBERLANDIA-PJ-SEC CIVEIS CRIMINAIS 14.960,00 5.984,00 0,00 0,00 0,00 0,00 0,00 2.105,00 23.049,00 3.131,99 4.013,34 0,00 0,00 7.145,33 15.903,67 31/07/2023
897 679500 EMILY DIAS LEMOS E SILVA ASSESSOR PROCURADOR JUSTICA BELO HORIZONTE - COMARCA; GABINETE DE PROCURADOR DE JUSTIÇA - SALA 307 0,00 0,00 8.810,89 0,00 0,00 0,00 0,00 2.105,00 10.915,89 876,95 1.605,10 0,00 0,00 2.482,05 8.433,84 31/07/2023
898 620700 EMILY FONTANA DE SIQUEIRA ANALISTA DO MP BELO HORIZONTE - COMARCA; BH-18PJ VIOLENCIA DOMESTICA-SECRETARIA 11.577,56 1.157,76 0,00 0,00 0,00 0,00 0,00 2.105,00 14.840,32 1.818,60 2.065,00 0,00 0,00 3.883,60 10.956,72 31/07/2023
899 297000 ENEIDA SOARES COSTA MELO ANALISTA DO MP PIUMHI - COMARCA; PIUMHI-PJ-01PJ 23.070,31 6.921,09 0,00 0,00 0,00 0,00 0,00 2.105,00 32.096,40 4.579,57 6.103,29 0,00 0,00 10.682,86 21.413,54 31/07/2023
900 276000 ENEZIO RODRIGUES DE SOUZA FILHO OFICIAL DO MP UBERLÂNDIA - COMARCA; UBERLANDIA-PJ-10PJ 12.343,61 3.703,08 0,00 0,00 0,00 0,00 0,00 2.105,00 18.151,69 2.348,42 2.882,06 0,00 0,00 5.230,48 12.921,21 31/07/2023
901 387700 ENI MARIA DOS REIS OFICIAL DO MP POUSO ALEGRE - COMARCA; POUSO ALEGRE-PJ-07PJ 12.343,61 3.703,08 0,00 0,00 0,00 0,00 0,00 2.105,00 18.151,69 2.348,42 2.882,06 0,00 0,00 5.230,48 12.921,21 31/07/2023
902 605100 ENIA MAIA ASSESSOR ADMINISTRATIVO IV BELO HORIZONTE - COMARCA; DIRETORIA DE ORCAMENTO-DIOR/SPC 14.488,22 1.448,82 0,00 0,00 0,00 0,00 0,00 2.105,00 18.042,04 1.102,13 3.194,64 0,00 0,00 4.296,77 13.745,27 31/07/2023
903 612200 ENILDO GOMES MEIRA FILHO ANALISTA DO MP BELO HORIZONTE - COMARCA; BH-23PJ INFRACIONAL-ASS JURIDICA 11.577,56 1.157,76 0,00 0,00 0,00 0,00 3.274,80 3.055,00 19.065,12 2.342,57 2.717,20 0,00 0,00 5.059,77 14.005,35 31/07/2023
904 553700 ENIVALDO NOVATO PUBLIO ANALISTA DO MP DIVINÓPOLIS - COMARCA; DIVINOPOLIS-PJ-09PJ 12.343,61 2.468,72 0,00 0,00 0,00 0,00 217,25 4.474,97 19.504,55 2.150,92 2.544,79 0,00 0,00 4.695,71 14.808,84 31/07/2023
905 680600 ENZO JOSE FERES SOUZA JABER ASSESSOR PROMOTOR JUSTICA NOVO CRUZEIRO - COMARCA; NOVO CRUZEIRO-PJ-SECRETARIA 0,00 0,00 8.810,89 0,00 0,00 0,00 0,00 2.105,00 10.915,89 876,95 1.709,37 0,00 0,00 2.586,32 8.329,57 31/07/2023
906 417300 ERIC BARATTI DA SILVA ANALISTA DO MP FRUTAL - COMARCA; FRUTAL-PJ-02PJ 13.588,97 2.717,79 0,00 0,00 0,00 0,00 0,00 3.055,00 19.361,76 2.390,03 2.942,14 0,00 0,00 5.332,17 14.029,59 31/07/2023
907 637600 ERIC DA ROCHA CHEHUEN ANALISTA DO MP LIMA DUARTE - COMARCA; LIMA DUARTE-PJ-UNPJ 11.212,54 1.121,25 0,00 0,00 0,00 0,00 0,00 2.105,00 14.438,79 982,16 2.236,74 0,00 0,00 3.218,90 11.219,89 31/07/2023
908 398900 ERIC TEIXEIRA SILVA OFICIAL DO MP UBERLÂNDIA - COMARCA; UBERLANDIA-PJ-SEC CIVEIS CRIMINAIS 11.954,43 3.586,33 0,00 0,00 0,00 0,00 0,00 2.105,00 17.645,76 2.267,47 2.765,19 0,00 0,00 5.032,66 12.613,10 31/07/2023
909 703600 ERICA CORDEIRO SANTOS ASSESSOR PROMOTOR JUSTICA MINAS NOVAS - COMARCA; MINAS NOVAS-PJ-UNPJ 0,00 0,00 8.810,89 0,00 0,00 0,00 0,00 2.105,00 10.915,89 876,95 1.709,37 0,00 0,00 2.586,32 8.329,57 31/07/2023
910 274200 ERICA DE SOUZA ANDRADE OFICIAL DO MP CURVELO - COMARCA; CURVELO-PJ-03PJ 14.960,00 4.488,00 0,00 0,00 0,00 0,00 0,00 2.105,00 21.553,00 2.892,63 3.615,63 0,00 0,00 6.508,26 15.044,74 31/07/2023
911 225700 ERICA GOMES DO COUTO OFICIAL DO MP BELO HORIZONTE - COMARCA; BH-21PJ TUTELA FUNDACOES-SECRETARIA 18.720,84 7.488,34 0,00 0,00 0,00 0,00 0,00 2.105,00 28.314,18 3.974,42 5.229,60 0,00 0,00 9.204,02 19.110,16 31/07/2023
912 632600 ERICA LEONOR MARTINS OFICIAL DO MP RESENDE COSTA - COMARCA; RESENDE COSTA-PJ-UNPJ 7.270,07 727,01 0,00 0,00 0,00 0,00 0,00 2.105,00 10.102,08 1.060,48 1.022,61 0,00 0,00 2.083,09 8.018,99 31/07/2023
913 524800 ERICA MACHADO DA COSTA E SOUZA ANALISTA DO MP BELO HORIZONTE - COMARCA; ASSESS TECNICO-JUR JUNTO AS PROC. DE JUST 13.588,97 2.717,79 0,00 0,00 0,00 0,00 0,00 2.105,00 18.411,76 2.390,03 2.942,14 0,00 0,00 5.332,17 13.079,59 31/07/2023
914 249500 ERICA RODRIGUES ANDRADE OFICIAL DO MP SÃO FRANCISCO - COMARCA; SAO FRANCISCO-PJ-02PJ 12.343,61 4.937,44 0,00 0,00 0,00 0,00 0,00 2.105,00 19.386,05 2.545,92 3.115,06 0,00 0,00 5.660,98 13.725,07 31/07/2023
915 260800 ERICA VIANA GIARDINI DE OLIVEIRA OFICIAL DO MP BELO HORIZONTE - COMARCA; DIRETORIA GESTAO COMPRAS LICITACOES 13.160,57 5.264,23 4.940,75 0,00 0,00 0,00 0,00 2.105,00 25.470,55 2.728,92 4.790,11 0,00 0,00 7.519,03 17.951,52 31/07/2023
916 299800 ERICH DOUGLAS RIBEIRO GARCIA ANALISTA DO MP BELO HORIZONTE - COMARCA; CENTRAL DE APOIO TECNICO-SETOR CONTABIL 22.191,68 6.657,50 0,00 0,00 0,00 0,00 0,00 2.105,00 30.954,18 4.396,82 5.839,44 0,00 0,00 10.236,26 20.717,92 31/07/2023
917 365000 ERICK EDUARDO JOSE DA SILVA OFICIAL DO MP JUIZ DE FORA - COMARCA; JUIZ DE FORA-PJ-12PJ 7.506,70 2.252,01 0,00 0,00 0,00 0,00 0,00 2.105,00 11.863,71 1.342,34 1.429,54 0,00 0,00 2.771,88 9.091,83 31/07/2023
918 227400 ERIKA DE LAET GOULART BOECHAT OFICIAL DO MP BELO HORIZONTE - COMARCA; BH-17PJ PATRIMONIO PUBLICO-SECRETARIA 18.720,84 7.488,34 0,00 0,00 0,00 0,00 0,00 2.105,00 28.314,18 3.974,42 5.177,46 0,00 0,00 9.151,88 19.162,30 31/07/2023
919 681301 ERIKA FERNANDA ELISEU FERREIRA ASSESSOR PROCURADOR JUSTICA BELO HORIZONTE - COMARCA; GABINETE DE PROCURADOR DE JUSTIÇA - SALA 411 0,00 0,00 8.810,89 0,00 0,00 0,00 0,00 2.105,00 10.915,89 876,95 1.709,37 0,00 0,00 2.586,32 8.329,57 31/07/2023
920 285100 ERIKA FERREIRA DA SILVA OFICIAL DO MP JUIZ DE FORA - COMARCA; JUIZ DE FORA-PJ-11PJ 12.343,61 3.703,08 0,00 0,00 0,00 0,00 0,00 2.105,00 18.151,69 2.348,42 2.882,06 0,00 0,00 5.230,48 12.921,21 31/07/2023
921 420100 ERIKA JEANINE VERSIANI DE CASTRO ANALISTA DO MP BELO HORIZONTE - COMARCA; CAO-EDUCACAO 18.130,77 3.626,15 0,00 0,00 0,00 0,00 0,00 2.105,00 23.861,92 3.262,06 4.201,13 0,00 0,00 7.463,19 16.398,73 31/07/2023
922 677100 ERIKA LAYS CARDOSO FERNANDES ASSESSOR PROMOTOR JUSTICA GRAO MOGOL - COMARCA; GRAO MOGOL-PJ-UNPJ 0,00 0,00 8.810,89 0,00 0,00 0,00 0,00 2.105,00 10.915,89 876,95 1.709,37 0,00 0,00 2.586,32 8.329,57 31/07/2023
923 606900 ERIKA MARIA BARBOSA ANALISTA DO MP BELO HORIZONTE - COMARCA; CAO-SAUDE 11.577,56 1.157,76 0,00 0,00 0,00 0,00 0,00 2.105,00 14.840,32 1.818,60 2.065,00 0,00 0,00 3.883,60 10.956,72 31/07/2023
924 491000 ERIKA ROCHA PEREIRA E SILVA COORDENADOR II BELO HORIZONTE - COMARCA; DIR GOVERNANCA TECNOLOGIA INFORMACAO 20.533,67 4.106,73 0,00 0,00 0,00 0,00 0,00 2.105,00 26.745,40 2.307,78 5.256,51 0,00 0,00 7.564,29 19.181,11 31/07/2023
925 283201 ERIKA STEHLING COORDENADOR I BELO HORIZONTE - COMARCA; CENTRAL DE APOIO TECNICO-SETOR DE ENGENHARIA 16.469,17 4.940,75 0,00 0,00 0,00 0,00 0,00 2.105,00 23.514,92 2.348,42 4.356,95 0,00 0,00 6.705,37 16.809,55 31/07/2023
926 254000 ERLANDIA DA SILVA MENDES OFICIAL DO MP IPATINGA - COMARCA; IPATINGA-PJ-03PJ 17.559,01 8.779,51 0,00 0,00 0,00 4.261,45 0,00 2.105,00 32.704,97 3.995,11 6.274,96 0,00 0,00 10.270,07 22.434,90 31/07/2023
927 348500 ERNILANDIA DE OLIVEIRA DIAS OFICIAL DO MP MONTES CLAROS - COMARCA; MONTES CLAROS-PJ-16PJ 12.343,61 3.703,08 0,00 0,00 0,00 0,00 0,00 2.105,00 18.151,69 2.348,42 2.882,06 0,00 0,00 5.230,48 12.921,21 31/07/2023
928 199300 ERTON PORTINARI DE ANDRADE OFICIAL DO MP SETE LAGOAS - COMARCA; SETE LAGOAS-PJ-05PJ 20.533,67 10.266,84 0,00 0,00 0,00 0,00 0,00 2.105,00 32.905,51 4.709,03 5.854,60 0,00 0,00 10.563,63 22.341,88 31/07/2023
929 618800 ESLY DE CARLA AYALLA BARBOSA MENDES OFICIAL DO MP NOVA LIMA - COMARCA; NOVA LIMA-PJ-SECRETARIA 6.818,83 681,88 0,00 0,00 0,00 0,00 0,00 2.105,00 9.605,71 981,10 907,93 0,00 0,00 1.889,03 7.716,68 31/07/2023
930 537000 ESTANISLAU CORREIA ALMEIDA JUNIOR OFICIAL DO MP UBERLÂNDIA - COMARCA; UBERLANDIA-PJ-25PJ 7.506,70 1.501,34 0,00 0,00 0,00 0,00 0,00 2.105,00 11.113,04 1.222,23 1.256,14 0,00 0,00 2.478,37 8.634,67 31/07/2023
931 692100 ESTEFANIA FARIA FERREIRA ASSESSOR PROCURADOR JUSTICA BELO HORIZONTE - COMARCA; GABINETE DE PROCURADOR DE JUSTIÇA - SALA 814 0,00 0,00 8.810,89 0,00 0,00 0,00 0,00 2.105,00 10.915,89 876,95 1.709,37 0,00 0,00 2.586,32 8.329,57 31/07/2023
932 326900 ESTER ALICE PIMENTA OFICIAL DO MP BELO HORIZONTE - COMARCA; COORD DE INCLUSAO E MOBILIZACAO SOCIAIS 12.343,61 3.703,08 0,00 0,00 0,00 0,00 0,00 2.105,00 18.151,69 2.348,42 2.882,06 0,00 0,00 5.230,48 12.921,21 31/07/2023
933 503700 ESTHER GONCALVES FONSECA ANALISTA DO MP BELO HORIZONTE - COMARCA; DIR CRIACAO E MIDIAS 12.343,61 2.468,72 0,00 0,00 0,00 0,00 0,00 2.105,00 16.917,33 2.150,92 2.596,93 0,00 0,00 4.747,85 12.169,48 31/07/2023
934 475600 ETIENE DE FATIMA OLIVEIRA PEREIRA ANALISTA DO MP PATROCÍNIO - COMARCA; PATROCINIO-PJ-04PJ 12.343,61 2.468,72 0,00 0,00 0,00 0,00 0,00 2.105,00 16.917,33 982,16 2.703,58 0,00 0,00 3.685,74 13.231,59 31/07/2023
935 428800 EUGENIA RODRIGUES TRAJANO BORGES ANALISTA DO MP UBERABA - COMARCA; UBERABA-PJ-10PJ 17.559,01 3.511,80 0,00 0,00 0,00 0,00 0,00 3.055,00 24.125,81 3.152,28 4.042,64 0,00 0,00 7.194,92 16.930,89 31/07/2023
936 272700 EUGENIO DE BARCELOS FILHO OFICIAL DO MP FRUTAL - COMARCA; FRUTAL-PJ-SECRETARIA 12.343,61 3.703,08 0,00 0,00 0,00 0,00 0,00 2.105,00 18.151,69 2.348,42 2.882,06 0,00 0,00 5.230,48 12.921,21 31/07/2023
937 254100 EULALIA ALVES MIRANDA LUCAS OFICIAL DO MP ALMENARA - COMARCA; ALMENARA-PJ-02PJ 15.949,86 7.974,93 0,00 0,00 0,00 0,00 0,00 2.105,00 26.029,79 3.608,91 4.597,63 0,00 0,00 8.206,54 17.823,25 31/07/2023
938 641200 EUNICE ELVIRA DA SILVA MATOS OFICIAL DO MP BELO HORIZONTE - COMARCA; BH-14PJ DEFESA CONSUMIDOR-SECRETARIA 6.603,76 660,38 0,00 0,00 0,00 0,00 0,00 2.105,00 9.369,14 944,43 852,96 0,00 0,00 1.797,39 7.571,75 31/07/2023
939 557900 EURIPEDES JOSUE PERES OFICIAL DO MP IBIÁ - COMARCA; IBIA-PJ-UNPJ 7.506,70 750,67 0,00 0,00 0,00 0,00 0,00 2.105,00 10.362,37 1.102,13 1.082,73 0,00 0,00 2.184,86 8.177,51 31/07/2023
940 225800 EURO CESAR VIEIRA BARBOSA ANALISTA DO MP BELO HORIZONTE - COMARCA; BH-17PJ PATRIMONIO PUBLICO-SECRETARIA 23.070,31 9.228,12 0,00 0,00 0,00 0,00 0,00 2.105,00 34.403,43 4.948,70 6.531,94 0,00 0,00 11.480,64 22.922,79 31/07/2023
941 199400 EUSTAQUIO ADAILTON LIMA E SILVA OFICIAL DO MP MANGA - COMARCA; MANGA-PJ-01PJ 20.533,67 14.373,58 0,00 0,00 0,00 0,00 127,99 3.501,29 38.536,53 5.366,11 7.082,44 0,00 0,00 12.448,55 26.087,98 31/07/2023
942 548000 EVA VILMA LEAO REIS JULIO OFICIAL DO MP BELO HORIZONTE - COMARCA; BH-07PJ 01 TRIBUNAL JURI-SECRETARIA 7.506,70 3.002,68 0,00 0,00 0,00 0,00 0,00 2.105,00 12.614,38 1.462,45 1.602,95 0,00 0,00 3.065,40 9.548,98 31/07/2023
943 517000 EVALDO SENA COSTA FILHO ANALISTA DO MP CONTAGEM - COMARCA; CONTAGEM-PJ-20PJ 12.343,61 4.937,44 0,00 0,00 0,00 0,00 570,27 8.326,18 26.177,50 2.545,92 3.062,93 0,00 0,00 5.608,85 20.568,65 31/07/2023
944 217500 EVELANGE LEAO RABELO ASSESSOR ADMINISTRATIVO II BELO HORIZONTE - COMARCA; CAO-PESSOAS IDOSAS E PESSOAS COM DEFICIENCIA 0,00 3.002,68 7.506,70 0,00 0,00 0,00 0,00 2.105,00 12.614,38 876,95 2.176,46 0,00 0,00 3.053,41 9.560,97 31/07/2023
945 679600 EVERTON BARBOSA DA SILVA ASSESSOR PROCURADOR JUSTICA BELO HORIZONTE - COMARCA; GABINETE DE PROCURADOR DE JUSTIÇA - SALA 510 0,00 0,00 8.810,89 0,00 0,00 0,00 0,00 2.105,00 10.915,89 876,95 1.709,37 0,00 0,00 2.586,32 8.329,57 31/07/2023
946 540400 EVIE SARAMELLA DE RESENDE OFICIAL DO MP BARBACENA - COMARCA; BARBACENA-PJ-08PJ 7.506,70 1.501,34 0,00 0,00 0,00 0,00 0,00 2.105,00 11.113,04 1.222,23 1.256,14 0,00 0,00 2.478,37 8.634,67 31/07/2023
947 469000 EWERTON CARDOSO DE SA RODRIGUES ANALISTA DO MP CAMPO BELO - COMARCA; CAMPO BELO-PJ-02PJ 12.343,61 2.468,72 0,00 0,00 0,00 0,00 0,00 2.105,00 16.917,33 2.150,92 2.492,65 0,00 0,00 4.643,57 12.273,76 31/07/2023
948 368900 FABIANA BARBOSA SIQUEIRA OFICIAL DO MP BELO HORIZONTE - COMARCA; CAO-ORDEM ECONOMICA E TRIBUTARIA-SECRETARIA 13.588,97 4.076,69 0,00 0,00 0,00 0,00 0,00 2.105,00 19.770,66 2.607,45 3.203,91 0,00 0,00 5.811,36 13.959,30 31/07/2023
949 273800 FABIANA CARNEIRO AMORIM OFICIAL DO MP BELO HORIZONTE - COMARCA; BH-23PJ CIVEL-COORD ADM CIVEL 15.447,01 4.634,10 4.346,47 0,00 0,00 0,00 0,00 2.105,00 26.532,58 2.993,93 4.957,16 0,00 0,00 7.951,09 18.581,49 31/07/2023
950 519300 FABIANA DE OLIVEIRA LOUREIRO ANALISTA DO MP BELO HORIZONTE - COMARCA; BH-09PJ AUDITORIA MILITAR-SECRETARIA 12.343,61 2.468,72 0,00 0,00 0,00 0,00 0,00 2.105,00 16.917,33 2.150,92 2.596,93 0,00 0,00 4.747,85 12.169,48 31/07/2023
951 363400 FABIANA DOURADO DUPIN VIEGAS ANALISTA DO MP BELO HORIZONTE - COMARCA; GABINETE DE PROCURADOR DE JUSTIÇA - SALA 705 21.346,53 6.403,96 0,00 0,00 0,00 0,00 0,00 2.105,00 29.855,49 4.221,03 5.533,50 0,00 0,00 9.754,53 20.100,96 31/07/2023
952 410800 FABIANA DUARTE QUITITE ANALISTA DO MP BELO HORIZONTE - COMARCA; BH-15PJ M AMB PAT HIST CULT-GAB 116PJ 18.130,77 3.626,15 0,00 0,00 0,00 0,00 0,00 2.105,00 23.861,92 3.262,06 4.201,13 0,00 0,00 7.463,19 16.398,73 31/07/2023
953 419500 FABIANA EULALIA DOS SANTOS ANALISTA DO MP SÃO JOÃO DEL REI - COMARCA; SAO JOAO DEL REI-PJ-01PJ 18.130,77 3.626,15 0,00 0,00 0,00 0,00 0,00 2.105,00 23.861,92 3.262,06 4.201,13 0,00 0,00 7.463,19 16.398,73 31/07/2023
954 725200 FABIANA LOPES DE JESUS ASSESSOR PROMOTOR JUSTICA CONTAGEM - COMARCA; CONTAGEM-PJ-01PJ 0,00 0,00 8.810,89 0,00 0,00 0,00 0,00 2.105,00 10.915,89 876,95 1.709,37 0,00 0,00 2.586,32 8.329,57 31/07/2023
955 700300 FABIANA MARCIA DE SOUZA ASSESSOR ADMINISTRATIVO II BELO HORIZONTE - COMARCA; DIRET DE CONTROLE E DE MANUTENCAO DE IMOVEIS 0,00 0,00 7.506,70 0,00 0,00 0,00 0,00 2.105,00 9.611,70 876,95 1.350,72 0,00 0,00 2.227,67 7.384,03 31/07/2023
956 331500 FABIANA PACHECO OFICIAL DO MP GUAXUPÉ - COMARCA; GUAXUPE-PJ-01PJ 12.343,61 3.703,08 0,00 0,00 0,00 0,00 0,00 2.105,00 18.151,69 2.348,42 2.777,79 0,00 0,00 5.126,21 13.025,48 31/07/2023
957 510700 FABIANA PEREIRA SANTOS BORGES ANALISTA DO MP BELO HORIZONTE - COMARCA; DIRETORIA DE SISTEMAS DE INFORMACAO 12.343,61 2.468,72 5.538,92 0,00 0,00 0,00 0,00 2.105,00 22.456,25 2.150,92 4.067,99 0,00 0,00 6.218,91 16.237,34 31/07/2023
958 181700 FABIANA SOUZA FERREIRA OFICIAL DO MP BELO HORIZONTE - COMARCA; BH-19PJ SAUDE-SECRETARIA 150PJ 7.506,70 3.002,68 0,00 0,00 0,00 0,00 0,00 2.105,00 12.614,38 1.462,45 1.498,67 0,00 0,00 2.961,12 9.653,26 31/07/2023
959 272900 FABIANA STOCKLER LEITE OFICIAL DO MP LAJINHA - COMARCA; LAJINHA-PJ-SECRETARIA 12.343,61 6.171,81 0,00 0,00 0,00 0,00 0,00 2.105,00 20.620,42 2.743,42 3.400,20 0,00 0,00 6.143,62 14.476,80 31/07/2023
960 225500 FABIANE DE FATIMA PORTELLA ANALISTA DO MP BELO HORIZONTE - COMARCA; BH-18PJ DIREITOS HUMANOS-SECRETARIA 23.070,31 9.228,12 0,00 0,00 0,00 0,00 0,00 2.105,00 34.403,43 4.948,70 6.636,22 0,00 0,00 11.584,92 22.818,51 31/07/2023
961 433800 FABIANE DINIZ MATTOS ANALISTA DO MP BELO HORIZONTE - COMARCA; BH-23PJ INFRACIONAL-ASS JURIDICA 18.130,77 3.626,15 0,00 0,00 0,00 0,00 3.356,78 2.105,00 27.218,70 3.799,14 4.976,54 0,00 0,00 8.775,68 18.443,02 31/07/2023
962 455000 FABIANO CARVALHO DA SILVA ANALISTA DO MP LAVRAS - COMARCA; LAVRAS-PJ-05PJ 12.343,61 2.468,72 0,00 0,00 0,00 0,00 0,00 2.105,00 16.917,33 2.150,92 2.596,93 0,00 0,00 4.747,85 12.169,48 31/07/2023
963 498800 FABIANO FURTADO PESSOA COELHO ANALISTA DO MP BELO HORIZONTE - COMARCA; DIRETORIA DE REDES E BANCOS DE DADOS 12.343,61 2.468,72 0,00 0,00 0,00 0,00 0,00 2.105,00 16.917,33 2.150,92 2.492,65 0,00 0,00 4.643,57 12.273,76 31/07/2023
964 663000 FABIANO MARQUES CORREA ASSESSOR ADMINISTRATIVO II BELO HORIZONTE - COMARCA; DIRETORIA DE SUPORTE E MANUTENCAO 0,00 0,00 7.506,70 0,00 0,00 0,00 0,00 2.105,00 9.611,70 876,95 1.350,72 0,00 0,00 2.227,67 7.384,03 31/07/2023
965 394600 FABIANO PALHARES SILVA ANALISTA DO MP BELO HORIZONTE - COMARCA; CENTRAL DE APOIO TECN-SETOR DE MEIO AMBIENTE 18.720,84 5.616,25 0,00 0,00 0,00 0,00 0,00 2.105,00 26.442,09 3.674,88 4.745,01 0,00 0,00 8.419,89 18.022,20 31/07/2023
966 676600 FABIANO RESENDE VELOSO ASSESSOR PROCURADOR JUSTICA BELO HORIZONTE - COMARCA; GABINETE DE PROCURADOR DE JUSTIÇA - SALA 1002 0,00 0,00 8.810,89 0,00 0,00 0,00 0,00 2.105,00 10.915,89 876,95 1.709,37 0,00 0,00 2.586,32 8.329,57 31/07/2023
967 444400 FABIANO SARAIVA MEDEIROS ANALISTA DO MP BETIM - COMARCA; BETIM-PJ-11PJ 17.559,01 3.511,80 0,00 0,00 0,00 0,00 0,00 2.105,00 23.175,81 3.152,28 3.938,36 0,00 0,00 7.090,64 16.085,17 31/07/2023
968 408700 FABIANO SOARES PORTILHO ANALISTA DO MP JUIZ DE FORA - COMARCA; GAECO REGIONAL DA ZONA DA MATA-JUIZ DE FORA 18.130,77 3.626,15 0,00 0,00 0,00 0,00 0,00 2.105,00 23.861,92 3.262,06 4.201,13 0,00 0,00 7.463,19 16.398,73 31/07/2023
969 442600 FABIO CARVALHO VIEIRA ANALISTA DO MP MONTES CLAROS - COMARCA; MONTES CLAROS-PJ-06PJ 12.343,61 2.468,72 0,00 0,00 0,00 0,00 271,56 5.067,47 20.151,36 2.150,92 2.596,93 0,00 0,00 4.747,85 15.403,51 31/07/2023
970 716600 FABIO DAMASCENA MONTEIRO DE CARVALHO ASSESSOR PROMOTOR JUSTICA JACINTO - COMARCA; JACINTO-PJ-UNPJ 0,00 0,00 8.810,89 0,00 0,00 0,00 0,00 2.105,00 10.915,89 876,95 1.709,37 0,00 0,00 2.586,32 8.329,57 31/07/2023
971 702700 FABIO JUNIOR COSTA BARREIROS ASSESSOR ADMINISTRATIVO II BELO HORIZONTE - COMARCA; DIVISAO DE MANUTENCAO PREDIAL 0,00 0,00 7.506,70 0,00 0,00 0,00 0,00 2.105,00 9.611,70 876,95 903,70 0,00 0,00 1.780,65 7.831,05 31/07/2023
972 240101 FABIO JUNQUEIRA DE ASSIS FONSECA OFICIAL DO MP BELO HORIZONTE - COMARCA; BH-17PJ PATRIMONIO PUBLICO-SECRETARIA 10.341,72 3.102,52 0,00 0,00 0,00 0,00 147,89 3.718,31 17.310,44 1.932,03 2.280,90 0,00 0,00 4.212,93 13.097,51 31/07/2023
973 271500 FABIO LUIZ VIEIRA OFICIAL DO MP SANTA VITÓRIA - COMARCA; SANTA VITORIA-PJ-UNPJ 12.343,61 3.703,08 0,00 0,00 0,00 0,00 0,00 2.149,04 18.195,73 2.348,42 2.829,93 0,00 0,00 5.178,35 13.017,38 31/07/2023
974 213100 FABIO PRATES GONCALVES ASSESSOR ADMINISTRATIVO IV BELO HORIZONTE - COMARCA; DIR RELACOES INSTITUCIONAIS 0,00 5.795,29 14.488,22 0,00 0,00 0,00 0,00 2.105,00 22.388,51 876,95 4.707,93 0,00 0,00 5.584,88 16.803,63 31/07/2023
975 436700 FABIO SANTIAGO DE CARVALHO OFICIAL DO MP POÇO FUNDO - COMARCA; POCO FUNDO-PJ-UNPJ 11.212,54 2.242,51 0,00 0,00 0,00 0,00 0,00 2.105,00 15.560,05 1.933,76 2.283,39 0,00 0,00 4.217,15 11.342,90 31/07/2023
976 208400 FABIOLA DE SOUSA CARDOSO ANALISTA DO MP BELO HORIZONTE - COMARCA; CGMP-DIR ESTAGIO PROBATORIO E ORIENT 23.070,31 9.228,12 6.160,10 0,00 0,00 0,00 275,66 5.112,19 43.846,38 4.948,70 8.091,39 868,57 0,00 13.908,66 29.937,72 31/07/2023
977 392200 FABIOLA LEROY COSTA ANALISTA DO MP ESMERALDAS - COMARCA; ESMERALDAS-PJ-01PJ 12.343,61 3.703,08 0,00 0,00 0,00 0,00 0,00 4.005,00 20.051,69 2.348,42 2.882,06 0,00 0,00 5.230,48 14.821,21 31/07/2023
978 409000 FABIOLA MONTEIRO DE CARVALHO CASTRO ANALISTA DO MP BOM SUCESSO - COMARCA; BOM SUCESSO-PJ-UNPJ 15.447,01 3.089,40 0,00 0,00 0,00 0,00 0,00 2.105,00 20.641,41 2.746,77 3.457,19 0,00 0,00 6.203,96 14.437,45 31/07/2023
979 525800 FABRICIA ALVES DANTAS OFICIAL DO MP MONTES CLAROS - COMARCA; MONTES CLAROS-PJ-01PJ 9.699,77 1.939,95 0,00 0,00 0,00 0,00 0,00 2.105,00 13.744,72 1.643,30 1.811,92 0,00 0,00 3.455,22 10.289,50 31/07/2023
980 263400 FABRICIA PINTO TEIXEIRA SANTIAGO OFICIAL DO MP BELO HORIZONTE - COMARCA; CAO-FUNDACOES-SECRETARIA 17.559,01 7.023,60 0,00 0,00 0,00 0,00 0,00 2.105,00 26.687,61 3.714,17 4.749,59 0,00 0,00 8.463,76 18.223,85 31/07/2023
981 420800 FABRICIO BERNARDES DE OLIVEIRA OFICIAL DO MP ITURAMA - COMARCA; ITURAMA-PJ-02PJ 11.212,54 2.242,51 0,00 0,00 0,00 0,00 0,00 3.195,77 16.650,82 1.933,76 2.231,26 0,00 0,00 4.165,02 12.485,80 31/07/2023
982 474000 FABRICIO DE FREITAS SALES ANALISTA DO MP MONTES CLAROS - COMARCA; COORD REG DEF ORDEM ECON TRIB MONTES CLAROS 12.343,61 2.468,72 0,00 0,00 0,00 0,00 0,00 2.105,00 16.917,33 2.150,92 2.596,93 0,00 0,00 4.747,85 12.169,48 31/07/2023
983 510100 FABRICIO FURTADO ASSIS DO CARMO ANALISTA DO MP BELO HORIZONTE - COMARCA; SERVICO MEDICO-DEPTO PERIC MEDICA SAUDE OCUP 12.343,61 2.468,72 0,00 0,00 0,00 0,00 1.181,10 4.005,00 19.998,43 2.150,92 2.921,73 0,00 0,00 5.072,65 14.925,78 31/07/2023
984 519600 FABRICIO GONTIJO SALVATI ANALISTA DO MP JUIZ DE FORA - COMARCA; JUIZ DE FORA-CAO ESPECIALIZADO-SECRETARIA 12.343,61 2.468,72 0,00 0,00 0,00 0,00 0,00 2.105,00 16.917,33 2.150,92 2.596,93 0,00 0,00 4.747,85 12.169,48 31/07/2023
985 637400 FABRICIO HENRIQUE DA SILVA PASSOS ANALISTA DO MP BELO HORIZONTE - COMARCA; DIR CRIACAO E MIDIAS 12.343,61 1.234,36 4.020,58 0,00 0,00 0,00 3.658,22 2.105,00 23.361,77 1.953,42 4.423,46 0,00 0,00 6.376,88 16.984,89 31/07/2023
986 428200 FABRICIO ORZIL VIANA ANALISTA DO MP SANTA LUZIA - COMARCA; SANTA LUZIA-PJ-04PJ 12.343,61 2.468,72 0,00 0,00 0,00 0,00 0,00 2.105,00 16.917,33 2.150,92 2.596,93 0,00 0,00 4.747,85 12.169,48 31/07/2023
987 455600 FABRICIO PAIVA DA ROCHA ANALISTA DO MP SÃO JOÃO DEL REI - COMARCA; SAO JOAO DEL REI-PJ-06PJ 12.343,61 2.468,72 0,00 0,00 0,00 0,00 0,00 3.055,00 17.867,33 2.150,92 2.544,79 0,00 0,00 4.695,71 13.171,62 31/07/2023
988 511500 FABRICIO RENE CARDOSO DE PADUA ANALISTA DO MP SÃO SEBASTIÃO DO PARAÍSO - COMARCA; SAO SEBASTIAO DO PARAISO-PJ-03PJ 12.343,61 2.468,72 0,00 0,00 0,00 0,00 4.336,50 2.105,00 21.253,83 2.150,92 3.789,47 0,00 0,00 5.940,39 15.313,44 31/07/2023
989 496100 FABRICIO RESENDE GONCALVES OFICIAL DO MP ENTRE-RIOS DE MINAS - COMARCA; ENTRE RIOS DE MINAS-PJ-UNPJ 9.699,77 1.939,95 0,00 0,00 0,00 0,00 0,00 2.105,00 13.744,72 1.643,30 1.864,06 0,00 0,00 3.507,36 10.237,36 31/07/2023
990 650300 FABRICIO ROBERTO AZEVEDO OFICIAL DO MP NOVA SERRANA - COMARCA; NOVA SERRANA-PJ-04PJ 6.097,80 609,78 0,00 0,00 0,00 0,00 0,00 2.105,00 8.812,58 858,46 723,55 0,00 0,00 1.582,01 7.230,57 31/07/2023
991 514900 FADUA MARIA DRUMOND CHEQUER ANALISTA DO MP BETIM - COMARCA; BETIM-PJ-12PJ 12.343,61 2.468,72 0,00 0,00 0,00 0,00 0,00 2.105,00 16.917,33 2.150,92 2.492,65 0,00 0,00 4.643,57 12.273,76 31/07/2023
992 282500 FANNY FERREIRA MELO OFICIAL DO MP ARAXÁ - COMARCA; ARAXA-PJ-03PJ 13.160,57 3.948,17 0,00 0,00 0,00 0,00 0,00 2.105,00 19.213,74 2.518,35 3.127,40 0,00 0,00 5.645,75 13.567,99 31/07/2023
993 692500 FARID JUNIOR NUNES DA SILVA ASSESSOR PROCURADOR JUSTICA BELO HORIZONTE - COMARCA; GABINETE DE PROCURADOR DE JUSTIÇA - SALA 912 0,00 0,00 8.810,89 0,00 0,00 0,00 0,00 2.105,00 10.915,89 876,95 1.605,10 0,00 0,00 2.482,05 8.433,84 31/07/2023
994 744000 FARLEY LOPES DE ALCANTARA OFICIAL DO MP BELO HORIZONTE - COMARCA; SUPERINTENDENCIA GESTÃO DE PESSOAS 3.656,20 0,00 0,00 0,00 0,00 0,00 0,00 2.782,27 6.438,47 385,20 98,83 0,00 0,00 484,03 5.954,44 31/07/2023
995 382800 FATIMA DE OLIVEIRA COELHO E SILVA OFICIAL DO MP BELO HORIZONTE - COMARCA; DIRETORIA DE ADMINISTRACAO FINANCEIRA 11.212,54 4.485,02 4.020,58 0,00 0,00 0,00 506,10 7.626,08 27.850,32 2.292,56 3.854,94 0,00 0,00 6.147,50 21.702,82 31/07/2023
996 398601 FELIPE ANTONIO HORTA DE PAULA ANALISTA DO MP BELO HORIZONTE - COMARCA; PROC. JUSTICA DIR. DIFUSOS E COLETIVOS-SEC 12.343,61 3.209,34 0,00 0,00 0,00 0,00 0,00 2.105,00 17.657,95 2.269,42 2.768,01 0,00 0,00 5.037,43 12.620,52 31/07/2023
997 430900 FELIPE BOY VIEIRA ANALISTA DO MP BELO HORIZONTE - COMARCA; DIRETORIA DE SEGURANCA 15.949,86 3.189,97 6.160,10 0,00 0,00 0,00 0,00 2.105,00 27.404,93 982,16 5.435,46 0,00 0,00 6.417,62 20.987,31 31/07/2023
998 631700 FELIPE DE MORAIS SIMOES COELHO ANALISTA DO MP BELO HORIZONTE - COMARCA; BH-18PJ VIOLENCIA DOMESTICA-SECRETARIA 10.516,49 1.051,65 0,00 0,00 0,00 0,00 0,00 2.105,00 13.673,14 1.631,85 1.847,52 0,00 0,00 3.479,37 10.193,77 31/07/2023
999 549100 FELIPE FERNANDES ALVIM ANALISTA DO MP LAJINHA - COMARCA; LAJINHA-PJ-UNPJ 12.343,61 2.468,72 0,00 0,00 0,00 0,00 0,00 3.055,00 17.867,33 2.150,92 2.596,93 0,00 0,00 4.747,85 13.119,48 31/07/2023
1000 693100 FELIPE FROIS DO AMARAL ASSESSOR PROMOTOR JUSTICA RIBEIRÃO DAS NEVES - COMARCA; RIBEIRAO NEVES-SEC PJ EXECUCAO PENAL 0,00 0,00 8.810,89 0,00 0,00 0,00 0,00 2.105,00 10.915,89 876,95 1.657,24 0,00 0,00 2.534,19 8.381,70 31/07/2023
1001 620100 FELIPE GOMES DE AZEVEDO OFICIAL DO MP BELO HORIZONTE - COMARCA; DIVISAO DE SERVICOS 6.818,83 681,88 4.020,58 0,00 0,00 0,00 0,00 2.105,00 13.626,29 981,10 2.013,59 0,00 0,00 2.994,69 10.631,60 31/07/2023
1002 601600 FELIPE RODRIGUES DE SIQUEIRA ANALISTA DO MP BELO HORIZONTE - COMARCA; BH-02PJ FAMILIA-SECRETARIA 12.343,61 1.234,36 0,00 0,00 0,00 0,00 0,00 2.105,00 15.682,97 982,16 2.018,08 0,00 0,00 3.000,24 12.682,73 31/07/2023
1003 628900 FELIX FERNANDO JUNIO VIEIRA ANALISTA DO MP BELO HORIZONTE - COMARCA; BH-21PJ TUTELA DAS FUNDACOES-ASS CURADORES 11.577,56 1.852,41 0,00 0,00 0,00 0,00 0,00 3.055,00 16.484,97 1.929,74 2.173,33 0,00 0,00 4.103,07 12.381,90 31/07/2023
1004 544500 FELLIPE LEMOS MARCONDES BUENO ANALISTA DO MP SÃO SEBASTIÃO DO PARAÍSO - COMARCA; SAO SEBASTIAO DO PARAISO-PJ-04PJ 12.343,61 2.468,72 0,00 0,00 0,00 0,00 0,00 2.105,00 16.917,33 2.150,92 2.596,93 0,00 0,00 4.747,85 12.169,48 31/07/2023
1005 688500 FELLIPE TADEU DE ANDRADE RAMOS ASSESSOR PROCURADOR JUSTICA BELO HORIZONTE - COMARCA; GABINETE DE PROCURADOR DE JUSTIÇA - SALA 907 0,00 0,00 8.810,89 0,00 0,00 0,00 0,00 2.105,00 10.915,89 876,95 1.709,37 0,00 0,00 2.586,32 8.329,57 31/07/2023
1006 612600 FERNANDA ADRIANA DE PAULA GUIDO ANALISTA DO MP BELO HORIZONTE - COMARCA; CENT ESTAD COOPERACAO TECNICO-JURIDICA 11.577,56 1.157,76 0,00 0,00 0,00 0,00 0,00 3.055,00 15.790,32 1.818,60 2.117,14 0,00 0,00 3.935,74 11.854,58 31/07/2023
1007 508400 FERNANDA AGANETTI MATTOS DE OLIVEIRA ANALISTA DO MP BELO HORIZONTE - COMARCA; CENT ESTAD COOPERACAO TECNICO-JURIDICA 12.343,61 2.468,72 0,00 0,00 0,00 0,00 0,00 4.005,00 18.817,33 982,16 2.918,34 0,00 0,00 3.900,50 14.916,83 31/07/2023
1008 453600 FERNANDA ALBERNAZ RABELO ANALISTA DO MP BELO HORIZONTE - COMARCA; GABINETE DE PROCURADOR DE JUSTIÇA - SALA 616 12.343,61 2.468,72 0,00 0,00 0,00 0,00 0,00 3.055,00 17.867,33 2.150,92 2.596,93 0,00 0,00 4.747,85 13.119,48 31/07/2023
1009 255600 FERNANDA ALINA DE ALMEIDA ANDRADE OFICIAL DO MP BELO HORIZONTE - COMARCA; DIRETORIA DE INTELIGENCIA 12.343,61 4.937,44 0,00 0,00 0,00 0,00 0,00 2.105,00 19.386,05 2.545,92 3.167,20 0,00 0,00 5.713,12 13.672,93 31/07/2023
1010 443200 FERNANDA ALMEIDA LOPES ANALISTA DO MP CONTAGEM - COMARCA; CONTAGEM-PJ-10PJ 17.559,01 3.511,80 0,00 0,00 0,00 0,00 540,82 8.954,83 30.566,46 3.152,28 3.938,36 0,00 0,00 7.090,64 23.475,82 31/07/2023
1011 281100 FERNANDA ANANIAS MEIRA ANALISTA DO MP BELO HORIZONTE - COMARCA; BH-23PJ INFRACIONAL-ASS JURIDICA 22.191,68 6.657,50 0,00 0,00 0,00 0,00 2.967,34 2.105,00 33.921,52 4.871,59 6.524,90 0,00 0,00 11.396,49 22.525,03 31/07/2023
1012 539000 FERNANDA BARBOSA ALVES ANALISTA DO MP UBERLÂNDIA - COMARCA; GAECO REGIONAL DE UBERLANDIA 12.343,61 2.468,72 0,00 0,00 0,00 0,00 0,00 3.055,00 17.867,33 2.150,92 2.596,93 0,00 0,00 4.747,85 13.119,48 31/07/2023
1013 451200 FERNANDA BLOISE PRADO OFICIAL DO MP BELO HORIZONTE - COMARCA; GAECO - SECRETARIA 10.516,49 2.103,30 0,00 0,00 0,00 0,00 0,00 2.105,00 14.724,79 1.800,11 2.090,45 0,00 0,00 3.890,56 10.834,23 31/07/2023
1014 427900 FERNANDA BRAGA CARNEIRO BICALHO ANALISTA DO MP PEÇANHA - COMARCA; PECANHA-PJ-SECRETARIA 12.343,61 2.468,72 0,00 0,00 0,00 0,00 0,00 2.105,00 16.917,33 2.150,92 2.544,79 0,00 0,00 4.695,71 12.221,62 31/07/2023
1015 507100 FERNANDA CABRINI VAZ MOTA ANALISTA DO MP BELO HORIZONTE - COMARCA; DIVISAO DE MATERIAIS 12.343,61 2.468,72 4.020,58 0,00 0,00 0,00 0,00 4.005,00 22.837,91 982,16 3.873,33 0,00 0,00 4.855,49 17.982,42 31/07/2023
1016 259800 FERNANDA CALZAVARA DE SOUSA OFICIAL DO MP BELO HORIZONTE - COMARCA; DIRET DE INFORMACAO E CONHECIMENTO-DINC/CEAF 17.559,01 7.023,60 6.160,10 0,00 0,00 0,00 0,00 3.055,00 33.797,71 3.714,17 6.495,75 0,00 0,00 10.209,92 23.587,79 31/07/2023
1017 494400 FERNANDA CAMPOS BARATA OFICIAL DO MP JUIZ DE FORA - COMARCA; JUIZ DE FORA-PJ-08PJ 7.506,70 1.501,34 0,00 0,00 0,00 0,00 0,00 2.105,00 11.113,04 1.222,23 1.256,14 0,00 0,00 2.478,37 8.634,67 31/07/2023
1018 555600 FERNANDA CAROLINE RIBEIRO ANALISTA DO MP BELO HORIZONTE - COMARCA; DIRETORIA GESTAO CONTRATOS CONVENIOS 12.343,61 2.468,72 0,00 0,00 0,00 0,00 0,00 2.105,00 16.917,33 2.150,92 2.596,93 0,00 0,00 4.747,85 12.169,48 31/07/2023
1019 692000 FERNANDA CESAR SILVA ASSESSOR PROCURADOR JUSTICA BELO HORIZONTE - COMARCA; GABINETE DE PROCURADOR DE JUSTIÇA - SALA 809 0,00 0,00 8.810,89 0,00 0,00 0,00 0,00 2.105,00 10.915,89 876,95 1.709,37 0,00 0,00 2.586,32 8.329,57 31/07/2023
1020 294500 FERNANDA COSTA FLORES OFICIAL DO MP PARÁ DE MINAS - COMARCA; PARA DE MINAS-PJ-04PJ 13.160,57 3.948,17 0,00 0,00 0,00 0,00 0,00 2.105,00 19.213,74 2.518,35 3.127,40 0,00 0,00 5.645,75 13.567,99 31/07/2023
1021 344500 FERNANDA CRISTINA DE SOUZA PAZ ASSESSOR ADMINISTRATIVO II BELO HORIZONTE - COMARCA; CENTRAL DE APOIO TECN-SETOR DE MEIO AMBIENTE 0,00 0,00 7.506,70 0,00 0,00 0,00 412,87 6.609,02 14.528,59 876,65 1.246,53 0,00 0,00 2.123,18 12.405,41 31/07/2023
1022 538100 FERNANDA CRISTINA DOS SANTOS ROSA OFICIAL DO MP RIBEIRÃO DAS NEVES - COMARCA; RIBEIRAO DAS NEVES-PJ-04PJ 7.506,70 3.002,68 0,00 0,00 0,00 0,00 0,00 2.105,00 12.614,38 1.462,45 1.602,95 0,00 0,00 3.065,40 9.548,98 31/07/2023
1023 337800 FERNANDA CRISTINA ROLAND CLIMACO MENDES COORDENADOR II BELO HORIZONTE - COMARCA; DIRETORIA DE PAGAMENTO DE PESSOAL-DPAG 20.533,67 6.160,10 0,00 0,00 0,00 0,00 0,00 2.105,00 28.798,77 2.993,93 5.632,50 0,00 0,00 8.626,43 20.172,34 31/07/2023
1024 545400 FERNANDA CUNHA GUIMARAES ANALISTA DO MP BELO HORIZONTE - COMARCA; CAO-VIOLENCIA DOMESTICA E FAMILIAR 12.343,61 2.468,72 0,00 0,00 0,00 0,00 0,00 2.105,00 16.917,33 2.150,92 2.596,93 0,00 0,00 4.747,85 12.169,48 31/07/2023
1025 429801 FERNANDA CUNHA PINHEIRO DA SILVA ANALISTA DO MP BELO HORIZONTE - COMARCA; ASSESSORIA DE COMUNICACAO INTEGRADA 12.343,61 2.468,72 0,00 0,00 0,00 0,00 0,00 2.105,00 16.917,33 2.150,92 2.492,65 0,00 0,00 4.643,57 12.273,76 31/07/2023
1026 408000 FERNANDA DAS NEVES RAMOS ANALISTA DO MP BELO HORIZONTE - COMARCA; SUPER DE GESTAO DE PESSOAS-LOTACAO TEMPORARIA 18.130,77 3.626,15 0,00 0,00 0,00 0,00 0,00 2.105,00 23.861,92 3.262,06 4.201,13 0,00 0,00 7.463,19 16.398,73 31/07/2023
1027 496000 FERNANDA DE ALMEIDA VIANA ANALISTA DO MP BELO HORIZONTE - COMARCA; PROC JUST ATUACAO TRIBUNAIS SUPERIORES-GAB002 12.343,61 2.468,72 0,00 0,00 0,00 0,00 0,00 4.005,00 18.817,33 2.150,92 2.492,65 0,00 0,00 4.643,57 14.173,76 31/07/2023
1028 266700 FERNANDA DE CASTRO LUCAS OFICIAL DO MP BELO HORIZONTE - COMARCA; DIRET DE DESENV DE RECURSOS HUMANOS-DDRH 17.559,01 7.023,60 6.160,10 0,00 0,00 0,00 1.788,09 3.406,18 35.936,98 3.995,11 6.901,37 0,00 0,00 10.896,48 25.040,50 31/07/2023
1029 433200 FERNANDA DE FIGUEIREDO NORTE ANALISTA DO MP BELO HORIZONTE - COMARCA; ASSESS JUR DO CONS SUPERIOR DO MINISTERIO PUB 18.130,77 3.626,15 0,00 0,00 0,00 0,00 0,00 2.105,00 23.861,92 3.262,06 4.096,85 0,00 0,00 7.358,91 16.503,01 31/07/2023
1030 419200 FERNANDA DE MIRANDA MARTINS SIMOES ANALISTA DO MP UBERLÂNDIA - COMARCA; UBERLANDIA-PJ-17PJ 18.130,77 3.626,15 0,00 0,00 0,00 0,00 0,00 3.055,00 24.811,92 3.262,06 4.201,13 0,00 0,00 7.463,19 17.348,73 31/07/2023
1031 441400 FERNANDA DE MORAIS PINTO ANALISTA DO MP BELO HORIZONTE - COMARCA; PROC. JUSTICA DIR. DIFUSOS E COLETIVOS-SEC 17.559,01 3.511,80 0,00 0,00 0,00 0,00 0,00 2.105,00 23.175,81 3.152,28 4.042,64 0,00 0,00 7.194,92 15.980,89 31/07/2023
1032 432200 FERNANDA DE MOURA GUIMARAES ANALISTA DO MP BELO HORIZONTE - COMARCA; BH-26 CRIME CONT CRIAN ADOL-SECRETARIA 17.559,01 3.511,80 0,00 0,00 0,00 0,00 0,00 2.105,00 23.175,81 3.152,28 4.042,64 0,00 0,00 7.194,92 15.980,89 31/07/2023
1033 461800 FERNANDA DE OLIVEIRA SANTOS ANALISTA DO MP JUIZ DE FORA - COMARCA; JUIZ DE FORA-PJ-21PJ 14.960,00 3.889,60 0,00 0,00 0,00 0,00 0,00 3.055,00 21.904,60 2.796,88 3.529,54 0,00 0,00 6.326,42 15.578,18 31/07/2023
1034 432500 FERNANDA DE PAULA PINTO ANALISTA DO MP BELO HORIZONTE - COMARCA; PROC JUST ATUACAO TRIBUNAIS SUPERIORES-GAB003 17.559,01 3.511,80 0,00 0,00 0,00 0,00 0,00 3.055,00 24.125,81 3.152,28 4.042,64 0,00 0,00 7.194,92 16.930,89 31/07/2023
1035 431600 FERNANDA DIAS BARBOSA PEREIRA ANALISTA DO MP BELO HORIZONTE - COMARCA; BH-02PJ FAMILIA-SECRETARIA 17.559,01 3.511,80 0,00 0,00 0,00 0,00 0,00 3.055,00 24.125,81 3.152,28 3.886,22 0,00 0,00 7.038,50 17.087,31 31/07/2023
1036 162200 FERNANDA FERNANDES MONTEIRO ASSESSOR ADMINISTRATIVO II BELO HORIZONTE - COMARCA; BH-18PJ VIOLENCIA DOMESTICA-SECRETARIA 0,00 3.753,35 7.506,70 0,00 0,00 0,00 0,00 2.105,00 13.365,05 876,95 2.278,62 0,00 0,00 3.155,57 10.209,48 31/07/2023
1037 512800 FERNANDA FERREIRA BARBOSA MOREIRA ANALISTA DO MP IPATINGA - COMARCA; IPATINGA-PJ-05PJ 12.343,61 2.468,72 0,00 0,00 0,00 0,00 0,00 2.105,00 16.917,33 982,16 2.767,68 0,00 0,00 3.749,84 13.167,49 31/07/2023
1038 329200 FERNANDA GABRIEL GUZELLA OFICIAL DO MP BELO HORIZONTE - COMARCA; DIRET DE PLANOS PROJETOS E PROGRAMAS INST 12.343,61 3.703,08 0,00 0,00 0,00 0,00 0,00 2.105,00 18.151,69 2.348,42 2.882,06 0,00 0,00 5.230,48 12.921,21 31/07/2023
1039 324200 FERNANDA GEORGIA NEVES ZAHAN OFICIAL DO MP IPANEMA - COMARCA; IPANEMA-PJ-01PJ 12.343,61 9.874,89 0,00 0,00 0,00 0,00 0,00 2.105,00 24.323,50 3.335,91 4.307,75 0,00 0,00 7.643,66 16.679,84 31/07/2023
1040 548200 FERNANDA GONCALVES DE CARVALHO ZUZA OFICIAL DO MP TUPACIGUARA - COMARCA; TUPACIGUARA-PJ-01PJ 7.506,70 1.501,34 0,00 0,00 0,00 0,00 0,00 2.105,00 11.113,04 1.222,23 1.256,14 0,00 0,00 2.478,37 8.634,67 31/07/2023
1041 355400 FERNANDA HELENA BASQUES OFICIAL DO MP SABARÁ - COMARCA; SABARA-PJ-SECRETARIA 12.343,61 3.703,08 3.004,68 0,00 0,00 0,00 0,00 2.105,00 21.156,37 2.348,42 3.708,35 0,00 0,00 6.056,77 15.099,60 31/07/2023
1042 454800 FERNANDA IATAROLA BARBOSA DIAS ANALISTA DO MP BARBACENA - COMARCA; BARBACENA-PJ-08PJ 14.960,00 4.488,00 0,00 0,00 0,00 0,00 0,00 2.105,00 21.553,00 2.892,63 3.615,63 0,00 0,00 6.508,26 15.044,74 31/07/2023
1043 515500 FERNANDA LILIANE MARUGEIRO ANALISTA DO MP LAGOA SANTA - COMARCA; LAGOA SANTA-PJ-01PJ 12.343,61 2.468,72 0,00 0,00 0,00 0,00 0,00 3.055,00 17.867,33 2.150,92 2.544,79 0,00 0,00 4.695,71 13.171,62 31/07/2023
1044 392900 FERNANDA MAGALHAES SILVA ANALISTA DO MP BELO HORIZONTE - COMARCA; DIR CONTEUDO JORNALISTICO 18.720,84